     2              OBSERVATION DATA    G (GPS)             RINEX VERSION / TYPE
ASRINEXO V2.9.7 UX USGS/MENLO_PARK 25-JUL-01 14:05          PGM / RUN BY / DATE
                                                            COMMENT
National Earthquake Hazard Reduction Program                COMMENT
Crustal Strain Project                                      COMMENT
345 Middlefield Road, MS/977                                COMMENT
U.S. Geological Survey, Menlo Park, California 94025        COMMENT
Contact: kwendt@usgs.gov (Ph: 650-329-4866)                 COMMENT
HI's are vertical to base of antenna                        COMMENT
BIT 2 OF LLI (+4) FLAGS DATA COLLECTED UNDER "AS" CONDITION COMMENT
cw07 S_CW07                                                 MARKER NAME
JLS                                                         OBSERVER / AGENCY
LP00108.707 ASHTECH Z-XII3 CC00                             REC # / TYPE / VERS
CR14330 ASH700936D_M NONE                                   ANT # / TYPE
 -2694550.0000 -3980561.0000  4178651.0000                  APPROX POSITION XYZ
        1.1832        0.0000        0.0000                  ANTENNA: DELTA H/E/N
     1     1                                                WAVELENGTH FACT L1/2
     5    C1    L1    L2    P1    P2                        # / TYPES OF OBSERV
    30                                                      INTERVAL
  2001     7    19     0     1    0.000000                  TIME OF FIRST OBS
                                                            END OF HEADER
 01  7 19  0  1  0.0000000  0  6 22 20 01 29 11 25
  23213820.116    -1574692.699 7  -1214380.66445  23213818.229    23213832.8034
  20395691.035   -25761811.392 9 -13367928.35048  20395690.348    20395696.7184
  21691498.333   -12051032.760 9  -8951273.43747  21691497.749    21691505.6684
  23364382.844     4746964.94816                  23364382.168    23364391.0584
  22451165.136    -8255437.975 8  -6422302.49146  22451164.962    22451172.7314
  21511124.120    -8776812.788 9  -6828332.57047  21511123.909    21511130.0884
 01  7 19  0  1 30.0000000  0  6 22 20 01 29 11 25
  23195465.620    -1671142.158 7  -1289536.00045  23195464.093    23195478.7424
  20389428.992   -25794718.311 9 -13393570.09548  20389428.313    20389434.7884
  21681448.342   -12103846.115 9  -8992426.67047  21681447.706    21681455.6974
  23378733.344                                    23378733.332    23378743.6984
  22466858.910    -8172968.003 8  -6358040.25946  22466858.597    22466866.3094
  21521765.658    -8720890.845 9  -6784757.03647  21521765.512    21521771.7104
 01  7 19  0  2  0.0000000  0  6 22 20 01 29 11 25
  23177146.290    -1767415.538 7  -1364554.05145  23177145.424    23177158.0384
  20383248.668   -25827195.905 9 -13418877.29248  20383248.001    20383254.5924
  21671437.976   -12156450.570 9  -9033417.11147  21671437.426    21671445.4384
  23393097.248                                    23393096.763    23393107.8924
  22482610.115    -8090195.861 8  -6293542.55946  22482609.762    22482617.4134
  21532479.586    -8664589.645 9  -6740885.97147  21532479.355    21532485.6264
 01  7 19  0  2 30.0000000  0  6 22 20 01 29 11 25
  23158860.061    -1863514.117 7  -1439435.92545  23158859.176    23158870.6414
  20377149.585   -25859246.994 9 -13443852.16148  20377148.864    20377155.3974
  21661466.715   -12208850.393 9  -9074248.10247  21661466.159    21661474.1324
  23407472.130     4973412.21717   3914099.64054  23407472.396    23407482.9844
  22498417.651    -8007128.713 8  -6228814.97946  22498417.100    22498424.6124
  21543264.388    -8607915.390 9  -6696724.23047  21543264.159    21543270.3774
 01  7 19  0  3  0.0000000  0  6 22 20 01 29 11 25
  23140607.878    -1959433.738 7  -1514178.41045  23140606.571    23140617.9804
  20371132.046   -25890868.567 9 -13468492.32648  20371131.369    20371137.9974
  21651534.531   -12261044.022 9  -9114918.43747  21651534.035    21651541.9064
  23421859.818     5049015.684 6   3973011.35044  23421859.913    23421870.7654
  22514280.751    -7923768.253 8  -6163858.86546  22514280.168    22514287.7114
  21554119.868    -8550868.734 9  -6652272.30847  21554119.664    21554125.8244
 01  7 19  0  3 30.0000000  0  6 22 20 01 29 11 25
  23122389.886    -2055170.481 7  -1588778.37845  23122388.723    23122399.9074
  20365196.694   -25922058.931 9 -13492796.48948  20365195.958    20365202.7144
  21641641.587   -12313031.628 9  -9155428.25747  21641641.203    21641648.8984
  23436257.909     5124678.761 7   4031969.47044  23436258.183    23436269.6724
  22530199.088    -7840117.310 8  -6098676.41046  22530198.468    22530205.9344
  21565045.753    -8493451.866 9  -6607531.90647  21565045.630    21565051.7954
 01  7 19  0  4  0.0000000  0  6 22 20 01 29 11 25
  23104207.470    -2150722.090 7  -1663233.99845  23104206.041    23104217.0354
  20359343.376   -25952817.740 9 -13516764.39148  20359342.670    20359349.5094
  21631787.785   -12364814.484 9  -9195778.51047  21631787.315    21631794.8844
  23450669.218     5200400.034 7   4090972.94744  23450669.218    23450679.0284
  22546171.830    -7756180.144 8  -6033270.90146  22546171.150    22546178.7744
  21576041.780    -8435667.942 9  -6562505.50347  21576041.607    21576047.8524
 01  7 19  0  4 30.0000000  0  6 22 20 01 29 11 25
  23086060.276    -2246085.529 6  -1737543.00244  23086058.536    23086069.9814
  20353572.420   -25983143.569 9 -13540394.89148  20353571.815    20353578.6214
  21621972.966   -12416392.554 9  -9235969.19147  21621972.459    21621979.6664
  23465089.953     5276178.901 7                  23465089.858    23465099.8304
  22562198.571    -7671959.537 8  -5967644.53146  22562197.846    22562205.5524
  21587107.038    -8377519.483 9  -6517195.03147  21587106.807    21587113.0514
 01  7 19  0  5  0.0000000  0  6 22 20 01 29 11 25
  23067948.803    -2341252.572 7  -1811699.03744  23067948.591    23067959.8204
  20347885.623   -26013029.771 9 -13563682.83148  20347884.912    20347891.3524
  21612198.089   -12467760.876 9  -9275996.43947  21612197.477    21612204.4924
  23479522.265                                    23479521.299    23479532.7784
  22578279.035    -7587453.395 8  -5901795.66546  22578278.583    22578286.5724
  21598242.110    -8319003.336 9  -6471598.05447  21598242.008    21598248.2014
 01  7 19  0  5 30.0000000  0  6 22 20 01 29 11 25
  23049877.638    -2436218.362 7  -1885698.11644  23049876.883    23049887.4054
  20342282.770   -26042472.773 9 -13586625.40148  20342282.081    20342288.4864
  21602463.255   -12518917.553 9  -9315858.76247  21602462.646    21602469.8314
  23493964.927                                    23493963.582    23493977.9904
  22594413.955    -7502662.669 8  -5835725.04346  22594413.683    22594421.7414
  21609447.663    -8260119.616 9  -6425714.69047  21609447.450    21609453.6464
 01  7 19  0  6  0.0000000  0  6 22 20 01 29 11 25
  23031844.513    -2530981.312 7  -1959539.19944  23031844.118    23031854.8344
  20336764.066   -26071473.597 9 -13609223.42148  20336763.392    20336769.7814
  21592768.140   -12569865.156 9  -9355558.16047  21592767.598    21592774.9184
  23508422.536                                    23508434.132    23508521.0614
  22610602.458    -7417592.799 8  -5769436.92346  22610602.185    22610610.0364
  21620722.250    -8200872.861 9  -6379548.41047  21620722.025    21620727.9954
 01  7 19  0  6 30.0000000  0  6 22 13 20 01 11 25
  23013848.503    -2625547.453 7  -2033227.02944  23013848.275    23013859.6614
  24639983.486                                    24639983.704    24639983.4764
  20331328.100   -26100039.935 9 -13631482.88748  20331327.435    20331333.7364
  21583110.829   -12620612.916 9  -9395101.85547  21583110.474    21583117.8254
  22626841.928    -7332256.235 8  -5702940.98046  22626841.403    22626849.0914
  21632063.292    -8141274.493 9  -6333108.12347  21632063.095    21632069.0344
 01  7 19  0  7  0.0000000  0  5 22 20 01 11 25
  22995893.884    -2719900.827 7  -2106749.01044  22995893.113    22995903.8074
  20325977.566   -26128157.280 9 -13653392.49548  20325976.889    20325983.2094
  21573494.136   -12671147.976 9  -9434479.80447  21573493.832    21573501.1794
  22643133.356    -7246642.882 8  -5636229.35846  22643132.965    22643140.8584
  21643473.441    -8081313.307 9  -6286385.14547  21643473.246    21643479.1984
 01  7 19  0  7 30.0000000  0  5 22 20 01 11 25
  22977980.032    -2814041.337 7  -2180105.14444  22977979.604    22977989.1594
  20320712.202   -26155827.005 9 -13674953.32048  20320711.574    20320717.8344
  21563917.529   -12721473.089 9  -9473694.13947  21563917.181    21563924.7554
  22659476.713    -7160758.785 8  -5569306.76246  22659476.301    22659484.0514
  21654951.533    -8020994.736 9  -6239383.70047  21654951.389    21654957.5474
 01  7 19  0  8  0.0000000  0  5 22 20 01 11 25
  22960106.968    -2907966.722 7  -2253293.66444  22960106.540    22960116.9044
  20315532.112   -26183048.977 9 -13696165.23848  20315531.391    20315537.5864
  21554380.668   -12771589.618 9  -9512745.96347  21554380.323    21554387.8954
  22675870.966    -7074608.026 8  -5502176.39946  22675870.452    22675878.0984
  21666496.968    -7960322.291 9  -6192106.50747  21666496.877    21666503.1134
 01  7 19  0  8 30.0000000  0  5 22 20 01 11 25
  22942274.416    -3001673.569 7  -2326311.91644  22942274.373    22942284.7314
  20310437.304   -26209822.104 9 -13717027.39648  20310436.637    20310442.8074
  21544883.599   -12821497.864 9  -9551635.47747  21544883.128    21544890.6954
  22692315.276    -6988193.859 8  -5434840.74046  22692314.616    22692322.4834
  21678109.392    -7899298.044 9  -6144555.17847  21678109.317    21678115.6574
 01  7 19  0  9  0.0000000  0  5 22 20 01 11 25
  22924484.547    -3095159.954 7  -2399158.32544  22924484.011    22924494.0654
  20305427.910   -26236146.182 9 -13737539.64748  20305427.206    20305433.5084
  21535425.781   -12871199.295 9  -9590363.83147  21535425.245    21535432.9444
  22708809.009    -6901520.827 8  -5367303.41246  22708807.980    22708815.7754
  21689788.197    -7837925.707 9  -6096732.59047  21689788.181    21689794.5524
 01  7 19  0  9 30.0000000  0  5 22 20 01 11 25
  22906737.455    -3188423.567 7  -2471831.11045  22906736.486    22906746.2154
  20300504.218   -26262019.915 9 -13757700.99948  20300503.544    20300509.8194
  21526007.422   -12920694.221 9  -9628931.30447  21526006.885    21526014.4054
  22725350.222    -6814592.104 8  -5299566.87445  22725349.718    22725357.6574
  21701533.057    -7776208.134 9  -6048640.99947  21701532.901    21701539.1474
 01  7 19  0 10  0.0000000  0  5 22 20 01 11 25
  22889032.997    -3281459.935 7  -2544326.86345  22889032.074    22889042.3304
  20295666.696   -26287440.813 9 -13777509.48648  20295666.023    20295672.3584
  21516628.355   -12969981.643 9  -9667337.04547  21516627.739    21516635.3454
  22741940.629    -6727409.565 8  -5231632.48645  22741940.023    22741948.1204
  21713343.050    -7714146.019 9  -6000280.91747  21713342.886    21713349.0864
 01  7 19  0 10 30.0000000  0  5 22 20 01 11 25
  22871372.680    -3374262.501 7  -2616640.45745  22871372.279    22871382.6194
  20290916.122   -26312404.682 9 -13796961.84448  20290915.402    20290921.9814
  21507289.197   -13019058.613 9  -9705578.81147  21507288.664    21507296.2384
  22758579.448    -6639973.536 8  -5163500.61645  22758578.514    22758587.1594
  21725218.649    -7651738.535 9  -5951651.73047  21725218.514    21725224.7734
 01  7 19  0 11  0.0000000  0  6 22 13 20 01 11 25
  22853757.266    -3466829.331 7  -2688770.35245  22853756.944    22853767.5044
  24495244.025                                    24495246.993    24495236.4684
  20286252.518   -26336911.475 9 -13816058.04248  20286251.890    20286258.4884
  21497989.676   -13067926.875 9  -9743657.96147  21497989.232    21497996.8004
  22775265.447    -6552288.419 8  -5095174.63345  22775264.553    22775273.0374
  21737159.381    -7588989.532 9  -5902756.43347  21737159.277    21737165.5504
 01  7 19  0 11 30.0000000  0  6 22 13 20 01 11 25
  22836187.768    -3559156.324 7  -2760713.34245  22836187.388    22836197.9584
  24479229.461                                    24479234.718    24479188.5174
  20281676.613   -26360958.830 9 -13834796.23648  20281675.908    20281682.4924
  21488730.230   -13116585.348 9  -9781573.61747  21488729.792    21488737.2834
  22791998.383    -6464356.349 7  -5026656.18845  22791997.648    22792005.6694
  21749164.970    -7525900.195 9  -5853595.95747  21749164.826    21749171.1364
 01  7 19  0 12  0.0000000  0  6 22 13 20 01 11 25
  22818664.780    -3651243.024 8  -2832469.08145  22818664.046    22818673.8694
  24463233.430                                    24463238.872    24463255.0434
  20277187.761   -26384547.913 9 -13853177.32748  20277187.085    20277193.5974
  21479510.329   -13165036.445 9  -9819327.68547  21479509.825    21479517.1314
  22808777.159    -6376182.484 7  -4957949.42245  22808776.732    22808784.4554
  21761234.399    -7462474.874 9  -5804173.66747  21761234.231    21761240.5744
 01  7 19  0 12 30.0000000  0  6 22 13 20 01 11 25
  22801187.776    -3743089.615 8  -2904037.73445  22801186.706    22801196.2004
  24447253.119                                    24447256.666    24447286.6704
  20272785.869   -26407680.634 9 -13871202.82148  20272785.113    20272791.5544
  21470329.076   -13213283.984 9  -9856923.13147  21470328.501    21470335.8924
  22825601.475    -6287773.918 7  -4889059.75245  22825600.596    22825607.8494
  21773366.724    -7398719.458 9  -5754494.14347  21773366.462    21773372.9314
 01  7 19  0 13  0.0000000  0  6 22 13 20 01 11 25
  22783757.175    -3834687.752 8  -2975412.76046  22783756.184    22783765.9274
  24431285.280                                    24431289.120    24431316.1914
  20268471.767   -26430351.166 9 -13888868.17148  20268471.030    20268477.5334
  21461187.257   -13261323.198 9  -9894356.24847  21461186.750    21461194.2394
  22842469.423    -6199128.590 7  -4819985.57245  22842468.848    22842476.7364
  21785562.006    -7334631.811 9  -5704555.71947  21785561.890    21785568.5004
 01  7 19  0 13 30.0000000  0  6 22 13 20 01 11 25
  22766374.208    -3926033.005 8  -3046590.70646  22766373.349    22766383.3864
  24415332.564                                    24415336.174    24415336.1064
  20264246.125   -26452556.981 9 -13906171.40048  20264245.434    20264251.9624
  21452085.418   -13309152.888 9  -9931626.10347  21452084.931    21452092.5694
  22859383.123    -6110248.283 7  -4750728.28245  22859382.240    22859390.5644
  21797820.730    -7270212.344 9  -5654358.76847  21797820.582    21797827.2234
 01  7 19  0 14  0.0000000  0  6 22 13 20 01 11 25
  22749040.338    -4017120.649 8  -3117567.95346  22749039.528    22749049.6344
  24399394.785                                    24399398.368    24399413.5484
  20260109.752   -26474294.834 9 -13923109.98148  20260108.988    20260115.3894
  21443023.872   -13356771.500 9  -9968731.47747  21443023.434    21443031.0444
  22876340.990    -6021134.673 7  -4681289.11945  22876339.650    22876348.7554
  21810142.434    -7205461.904 9  -5603903.92647  21810142.232    21810149.0814
 01  7 19  0 14 30.0000000  0  5 22 20 01 11 25
  22731756.737    -4107947.492 8  -3188341.98146  22731755.952    22731765.6184
  20256062.554   -26495563.083 9 -13939682.63648  20256061.790    20256068.1964
  21434002.612   -13404178.648 9 -10005672.07147  21434002.159    21434009.6824
  22893341.968    -5931790.304 7  -4611670.24145  22893341.100    22893350.6004
  21822526.615    -7140382.492 9  -5553192.72047  21822526.459    21822533.3774
 01  7 19  0 15  0.0000000  0  5 22 20 01 11 25
  22714519.258    -4198533.438 8  -3258928.28046  22714518.017    22714527.3854
  20252100.365   -26516384.225 9 -13955906.89548  20252099.603    20252106.0854
  21425017.216   -13451398.395 9 -10042466.63147  21425016.649    21425023.9914
  22910382.297    -5842242.128 7  -4541892.53745  22910381.772    22910391.0724
  21834968.433    -7074999.980 9  -5502245.34447  21834968.286    21834975.0544
 01  7 19  0 15 30.0000000  0  5 22 20 01 11 25
  22697334.478    -4288836.851 8  -3329294.51246  22697333.633    22697343.0934
  20248230.613   -26536718.808 9 -13971752.01848  20248229.972    20248236.5804
  21416074.667   -13498392.489 9 -10079085.36547  21416074.070    21416081.2454
  22927468.683    -5752454.976 7  -4471928.61845  22927468.104    22927477.0334
  21847474.952    -7009278.279 9  -5451033.65647  21847474.838    21847481.4254
 01  7 19  0 16  0.0000000  0  6 22 13 20 01 11 25
  22680201.473    -4378870.298 8  -3399450.30346  22680200.724    22680210.0314
  24335786.782     -884340.07954                  24335785.856    24335796.5944
  20244451.005   -26556580.961 9 -13987229.00448  20244450.378    20244456.8554
  21407171.954   -13545176.429 9 -10115540.33547  21407171.344    21407178.4964
  22944596.563    -5662447.429 7  -4401792.95745  22944596.136    22944604.9574
  21860042.718    -6943235.102 9  -5399571.45347  21860042.597    21860049.1624
 01  7 19  0 16 30.0000000  0  6 22 13 20 01 11 25
  22663123.273    -4468615.435 8  -3469381.47146  22663122.697    22663131.8854
  24319925.859    -2044332.74918   -949287.35345  24319926.955    24319933.2034
  20240764.796   -26575953.878 9 -14002324.78748  20240764.070    20240770.2914
  21398312.142   -13591734.864 9 -10151819.60547  21398311.567    21398318.6144
  22961768.968    -5572207.162 7  -4331475.96345  22961768.479    22961777.3624
  21872673.981    -6876857.133 9  -5347848.38147  21872673.933    21872680.5594
 01  7 19  0 17  0.0000000  0  6 22 13 20 01 11 25
  22646096.675    -4558090.548 8  -3539102.23745  22646095.975    22646104.9824
  24304079.049    -2127608.645 8  -1014177.48545  24304077.737    24304086.8614
  20237167.511   -26594858.139 9 -14017055.37648  20237166.731    20237172.9374
  21389491.089   -13638089.628 9 -10187940.15947  21389490.494    21389497.5664
  22978980.074    -5481758.673 7  -4260996.74845  22978979.894    22978989.2534
  21885364.460    -6810168.418 9  -5295883.16147  21885364.477    21885370.8944
 01  7 19  0 17 30.0000000  0  6 22 13 20 01 11 25
  22629122.880    -4647290.193 8  -3608608.33745  22629121.915    22629130.7044
  24288246.465    -2210809.274 8  -1079009.00545  24288245.667    24288254.9704
  20233659.760   -26613290.710 9 -14031418.40548  20233659.039    20233665.3804
  21380709.077   -13684239.074 9 -10223900.71147  21380708.404    21380715.7544
  22996231.263    -5391103.593 7  -4190356.44745  22996230.651    22996240.4014
  21898114.080    -6743169.292 9  -5243676.06947  21898113.981    21898120.2124
 01  7 19  0 18  0.0000000  0  6 22 13 20 01 11 25
  22612202.078    -4736209.554 8  -3677896.01746  22612200.950    22612209.9554
  24272428.717    -2293933.601 8  -1143781.02945  24272428.417    24272436.9464
  20230242.435   -26631248.863 9 -14045411.75448  20230241.775    20230248.0484
  21371966.443   -13730181.608 9 -10259700.04247  21371965.786    21371973.3424
  23013521.355    -5300243.158 7  -4119556.20245  23013520.660    23013531.2584
  21910922.512    -6675860.594 9  -5191227.73847  21910922.364    21910928.5414
 01  7 19  0 18 30.0000000  0  6 22 13 20 01 11 25
  22595335.258    -4824843.448 8  -3746961.27446  22595334.355    22595343.6524
  24256625.697    -2376978.481 8  -1208491.14745  24256625.488    24256633.8024
  20226916.266   -26648728.859 9 -14059032.52448  20226915.528    20226921.6144
  21363263.523   -13775914.680 9 -10295336.15947  21363263.041    21363270.8074
  23030851.334    -5209178.192 7  -4048596.61545  23030850.442    23030860.3414
  21923789.664    -6608242.117 9  -5138538.03847  21923789.686    21923795.9054
 01  7 19  0 19  0.0000000  0  6 22 13 20 01 11 25
  22578524.061    -4913188.760 8  -3815801.63746  22578522.934    22578532.1764
  24240837.557    -2459943.919 7  -1273139.37545  24240837.597    24240845.8624
  20223681.142   -26665729.378 9 -14072279.67348  20223680.328    20223686.4764
  21354600.593   -13821438.528 9 -10330809.25047  21354600.158    21354607.9014
  23048219.191    -5117911.592 7  -3977479.89644  23048218.600    23048227.0574
  21936715.569    -6540315.961 9  -5085608.60047  21936715.668    21936721.8394
 01  7 19  0 19 30.0000000  0  6 22 13 20 01 11 25
  22561767.400    -5001241.638 8  -3884414.15846  22561766.634    22561776.1534
  24225064.815    -2542829.791 8  -1337725.62945  24225064.927    24225072.4904
  20220537.347   -26682249.145 9 -14085152.21048  20220536.624    20220542.9304
  21345977.513   -13866753.062 9 -10366119.22647  21345977.058    21345984.8234
  23065623.869    -5026446.479 7  -3906208.48144  23065623.871    23065632.1544
  21949699.676    -6472084.200 8  -5032441.03647  21949699.610    21949706.1054
 01  7 19  0 20  0.0000000  0  6 22 13 20 01 11 25
  22545067.715    -5088998.469 8  -3952795.98646  22545067.055    22545076.8104
  24209307.281    -2625635.794 8  -1402249.66145  24209307.525    24209314.4934
  20217485.469   -26698286.622 9 -14097648.94248  20217484.767    20217491.0424
  21337394.054   -13911857.966 9 -10401265.87547  21337393.730    21337401.5274
  23083066.309    -4934785.632 7  -3834784.54744  23083066.177    23083075.5224
  21962741.258    -6403548.853 8  -4979036.88347  21962741.201    21962748.1284
 01  7 19  0 20 30.0000000  0  6 22 13 20 01 11 25
  22528425.200    -5176455.974 8  -4020944.59046  22528424.516    22528434.3734
  24193564.887    -2708361.394 7  -1466711.02945  24193565.253    24193572.5064
  20214525.635   -26713840.510 9 -14109768.84448  20214525.015    20214531.1494
  21328850.789   -13956753.148 9 -10436249.11047  21328850.434    21328858.1684
  23100545.711    -4842931.905 7  -3763210.37144  23100545.713    23100554.7034
  21975840.504    -6334711.745 9  -4925397.59447  21975840.541    21975847.4374
 01  7 19  0 21  0.0000000  0  6 22 13 20 01 11 25
  22511840.130    -5263612.088 8  -4088858.35046  22511839.378    22511848.8904
  24177838.101    -2791007.293 7  -1531110.28145  24177838.022    24177845.7404
  20211658.138   -26728910.333 9 -14121511.55548  20211657.391    20211663.4314
  21320347.268   -14001439.452 9 -10471069.58347  21320346.821    21320354.6374
  23118061.818    -4750889.245 7  -3691488.95544  23118061.069    23118069.0004
  21988996.953    -6265576.048 9  -4871525.64047  21988996.804    21989003.3314
 01  7 19  0 21 30.0000000  0  6 22 13 20 01 11 25
  22495312.984    -5350462.299 8  -4156533.75646  22495312.079    22495321.3874
  24162126.077    -2873572.019 8  -1595446.27345  24162126.358    24162134.0184
  20208882.860   -26743493.834 9 -14132875.31548  20208882.132    20208888.3234
  21311883.677   -14045915.637 9 -10505726.32647  21311883.230    21311891.1114
  23135612.067    -4658659.333 7  -3619621.59944  23135611.670    23135619.5564
  22002209.470    -6196143.051 8  -4817422.00647  22002209.328    22002215.7654
 01  7 19  0 22  0.0000000  0  6 22 13 20 01 11 25
  22478844.636    -5437002.946 8  -4223967.88546  22478843.900    22478853.0274
  24146430.160    -2956055.590 8  -1659719.04845  24146430.264    24146437.6424
  20206200.320   -26757589.677 9 -14143859.08948  20206199.639    20206205.9794
  21303460.200   -14090181.832 9 -10540219.43347  21303459.662    21303467.4984
  23153197.767    -4566245.340 7  -3547610.82444  23153197.734    23153205.5484
  22015478.233    -6126414.490 8  -4763088.08247  22015478.162    22015484.6014
 01  7 19  0 22 30.0000000  0  6 22 13 20 01 11 25
  22462435.770    -5523230.817 8  -4291158.32546  22462435.120    22462444.2884
  24130749.198    -3038458.252 8  -1723928.78445  24130749.310    24130756.8294
  20203610.863   -26771197.006 9 -14154462.18548  20203610.281    20203616.6334
  21295076.690   -14134238.034 9 -10574548.91047  21295076.126    21295083.7514
  23170818.056    -4473650.514 7  -3475459.15244  23170817.866    23170826.1394
  22028802.818    -6056392.714 8  -4708525.68047  22028802.707    22028809.3464
 01  7 19  0 23  0.0000000  0  6 22 13 20 01 11 25
  22446087.252    -5609142.437 8  -4358102.35046  22446086.568    22446095.6614
  24115083.926    -3120778.936 8  -1788074.62045  24115083.846    24115091.5914
  20201115.023   -26784313.867 9 -14164683.10448  20201114.369    20201120.5484
  21286733.096   -14178083.530 9 -10608714.21647  21286732.582    21286740.1014
  23188474.184    -4380877.095 8  -3403168.32845  23188472.603    23188480.7444
  22042182.986    -5986079.360 9  -4653736.06447  22042182.854    22042189.6554
 01  7 19  0 23 30.0000000  0  6 22 13 20 01 11 25
  22429799.468    -5694735.593 8  -4424798.18546  22429798.764    22429807.5534
  24099433.992    -3203017.799 8  -1852156.69545  24099434.179    24099442.0734
  20198712.333   -26796939.997 9 -14174521.64148  20198711.643    20198717.7334
  21278429.618   -14221719.181 9 -10642715.99147  21278429.080    21278436.4644
  23206162.050    -4287928.864 8  -3330741.24945  23206160.349    23206168.7864
  22055618.254    -5915477.734 9  -4598721.83747  22055618.063    22055624.8734
 01  7 19  0 24  0.0000000  0  6 22 13 20 01 11 25
  22413573.107    -5780006.805 8  -4491243.19646  22413572.217    22413580.9294
  24083799.725    -3285175.538 7  -1916175.62645  24083799.633    24083808.2504
  20196402.993   -26809074.451 9 -14183977.04548  20196402.372    20196408.6074
  21270166.004   -14265145.190 9 -10676554.38547  21270165.321    21270172.6284
  23223881.965    -4194809.165 7  -3258180.57445  23223880.493    23223889.4374
  22069107.792    -5844590.055 8  -4543484.71747  22069107.635    22069114.3504
 01  7 19  0 24 30.0000000  0  6 22 13 20 01 11 25
  22397408.939    -5864951.196 8  -4557433.55246  22397407.917    22397416.5604
  24068181.635    -3367250.322 7  -1980129.89545  24068181.225    24068190.1204
  20194187.933   -26820714.699 9 -14193047.35348  20194187.285    20194193.5364
  21261942.346   -14308360.277 9 -10710228.45047  21261941.824    21261949.0544
  23241633.149    -4101519.604 7  -3185487.54244  23241632.353    23241641.8794
  22082651.737    -5773417.031 9  -4488025.25947  22082651.488    22082658.1104
 01  7 19  0 25  0.0000000  0  6 22 13 20 01 11 25
  22381306.941    -5949566.280 8  -4623367.29146  22381306.024    22381314.6994
  24052579.114    -3449242.840 8  -2044019.99845  24052578.487    24052587.2974
  20192066.933   -26831860.383 9 -14201732.28448  20192066.313    20192072.5904
  21253758.793   -14351364.889 9 -10743738.51447  21253758.389    21253765.5784
  23259417.314    -4008063.857 7  -3112665.05844  23259416.601    23259426.0674
  22096249.307    -5701961.490 9  -4432345.62347  22096249.115    22096255.7804
 01  7 19  0 25 30.0000000  0  6 22 13 20 01 11 25
  22365268.231    -6033848.738 8  -4689041.84046  22365267.289    22365276.3264
  24036991.876    -3531152.046 7  -2107845.15645  24036991.247    24037000.2444
  20190040.471   -26842509.587 9 -14210030.34848  20190039.846    20190046.0984
  21245615.499   -14394158.427 9 -10777084.09947  21245615.017    21245622.2184
  23277232.246    -3914444.350 7  -3039714.88744  23277231.749    23277242.2754
  22109900.191    -5630224.964 9  -4376447.03047  22109900.164    22109906.9114
 01  7 19  0 26  0.0000000  0  6 22 13 20 01 11 25
  22349294.035    -6117793.442 8  -4754453.20146  22349293.166    22349302.2614
  24021420.256    -3612976.158 8  -2171604.04345  24021420.328    24021429.3244
  20188109.009   -26852659.591 9 -14217939.42848  20188108.323    20188114.5464
  21237512.528   -14436739.125 9 -10810263.83347  21237512.097    21237519.2854
  23295078.361    -3820662.271 7  -2966638.07945  23295077.872    23295088.2334
  22123604.925    -5558207.719 9  -4320329.71147  22123604.816    22123611.4534
 01  7 19  0 26 30.0000000  0  6 22 13 20 01 11 25
  22333384.233    -6201399.719 8  -4819600.87346  22333383.162    22333392.5284
  24005864.902    -3694717.870 7  -2235298.78845  24005865.126    24005873.8764
  20186272.164   -26862312.102 9 -14225460.85248  20186271.445    20186277.8134
  21229449.504   -14479110.004 9 -10843280.08047  21229449.058    21229456.2434
  23312954.658    -3726723.595 7  -2893439.26045  23312954.267    23312964.0414
  22137362.126    -5485914.754 8  -4263997.55047  22137361.843    22137368.3294
 01  7 19  0 27  0.0000000  0  6 22 13 20 01 11 25
  22317539.119    -6284662.750 8  -4884481.06746  22317538.370    22317548.0444
  23990325.590    -3776375.465 8  -2298927.95845  23990326.033    23990334.5164
  20184530.329   -26871464.846 9 -14232592.83248  20184529.701    20184536.0614
  21221426.718   -14521269.492 9 -10876131.58647  21221426.362    21221433.4734
  23330860.392    -3632630.171 7  -2820119.87044  23330859.822    23330869.4594
  22151170.922    -5413347.241 8  -4207451.45947  22151170.844    22151177.5084
 01  7 19  0 27 30.0000000  0  6 22 13 20 01 11 25
  22301760.424    -6367579.789 8  -4949091.67346  22301759.703    22301769.5544
  23974802.666    -3857948.863 8  -2362491.51845  23974803.049    23974811.6854
  20182883.958   -26880116.867 9 -14239334.66848  20182883.301    20182889.5374
  21213444.180   -14563217.550 9 -10908818.35647  21213443.848    21213451.0244
  23348794.428    -3538385.040 7  -2746682.18744  23348793.857    23348804.9594
  22165031.765    -5340507.068 8  -4150692.92347  22165031.638    22165038.5474
 01  7 19  0 28  0.0000000  0  6 22 13 20 01 11 25
  22286048.172    -6450147.821 8  -5013430.31046  22286047.510    22286057.2254
  23959295.092    -3939437.997 8  -2425989.42445  23959295.875    23959304.6914
  20181332.969   -26888266.863 9 -14245685.29948  20181332.374    20181338.6364
  21205501.896   -14604954.171 9 -10941340.36747  21205501.527    21205508.8104
  23366757.295    -3443990.976 7  -2673128.32244  23366756.340    23366768.6354
  22178944.290    -5267396.497 8  -4093723.67647  22178944.176    22178951.1674
 01  7 19  0 28 30.0000000  0  6 22 13 20 01 11 25
  22270403.080    -6532364.561 8  -5077495.19246  22270402.281    22270411.6954
  23943803.945    -4020843.680 8  -2489422.32245  23943804.819    23943813.5684
  20179877.623   -26895915.108 9 -14251644.96648  20179877.021    20179883.2914
  21197599.696   -14646480.647 9 -10973698.62747  21197599.258    21197606.5834
  23384748.655    -3349452.323 7  -2599461.89844  23384746.816    23384758.5164
  22192907.714    -5194018.863 8  -4036546.31447  22192907.630    22192914.4804
 01  7 19  0 29  0.0000000  0  6 22 13 20 01 11 25
  22254825.671    -6614225.923 8  -5141283.18546  22254824.706    22254833.8134
  23928328.637    -4102165.589 8  -2552789.91445  23928329.633    23928338.2444
  20178518.051   -26903060.097 9 -14257212.49648  20178517.384    20178523.6734
  21189737.585   -14687796.241 9 -11005892.57247  21189737.140    21189744.5634
  23402765.983    -3254771.491 7  -2525684.73844  23402764.530    23402775.4704
  22206921.595    -5120375.889 8  -3979162.21447  22206921.409    22206928.0624
 01  7 19  0 29 30.0000000  0  6 22 13 20 01 11 25
  22239316.079    -6695728.150 8  -5204791.35446  22239315.104    22239324.3274
  23912869.690    -4183402.249 8  -2616091.13045  23912870.654    23912879.1934
  20177254.310   -26909700.273 9 -14262386.65348  20177253.658    20177260.1004
  21181915.936   -14728900.308 9 -11037921.67447  21181915.305    21181922.7994
  23420810.137    -3159950.870 7  -2451798.61844  23420808.602    23420818.7604
  22220985.372    -5046469.198 8  -3921572.62647  22220985.242    22220992.0194
 01  7 19  0 30  0.0000000  0  6 22 13 20 01 11 25
  22223875.232    -6776867.967 8  -5268017.11346  22223874.482    22223883.9944
  23897427.395    -4264553.319 8  -2679325.60945  23897428.245    23897436.5874
  20176087.150   -26915834.055 9 -14267166.22148  20176086.486    20176092.7584
  21174134.403   -14769792.216 9 -11069785.46947  21174133.812    21174141.4234
  23438879.709    -3064992.814 6                  23438877.738    23438888.2864
  22235099.114    -4972300.004 8  -3863778.48047  22235099.101    22235106.1494
 01  7 19  0 30 30.0000000  0  6 22 13 20 01 11 25
  22208504.637    -6857641.325 8  -5330957.28546  22208503.872    22208513.1334
  23882001.319    -4345617.820 8  -2742492.60645  23882001.864    23882010.6064
  20175016.709   -26921459.635 9 -14271549.79048  20175016.087    20175022.1964
  21166393.411   -14810471.060 9 -11101483.24247  21166392.841    21166400.5394
  23456973.736    -2969899.637 7                  23456972.547    23456984.3034
  22249262.831    -4897870.048 8  -3805781.11647  22249262.726    22249269.9084
 01  7 19  0 31  0.0000000  0  6 22 13 20 01 11 25
  22193204.260    -6938045.942 8  -5393610.15246  22193203.355    22193212.4634
  23866591.331    -4426596.797 8  -2805593.00445  23866592.091    23866600.8584
  20174042.894   -26926577.321 9 -14275537.59848  20174042.211    20174048.3584
  21158692.862   -14850938.139 9 -11133016.02047  21158692.282    21158699.7994
  23475094.903    -2874675.552 7                  23475093.726    23475105.5304
  22263475.593    -4823182.471 8  -3747583.02747  22263475.397    22263482.4494
 01  7 19  0 31 30.0000000  0  6 22 13 20 01 11 25
  22177974.138    -7018079.736 8  -5455974.06546  22177973.269    22177982.5594
  23851197.950    -4507491.202 8  -2868627.48445  23851198.558    23851207.1224
  20173165.548   -26931187.287 9 -14279129.77548  20173164.929    20173171.1514
  21151032.398   -14891194.657 9 -11164384.68947  21151031.745    21151039.1834
  23493239.941    -2779324.589 7  -2155207.20654  23493238.359    23493249.9224
  22277736.286    -4748241.001 8  -3689187.10447  22277736.244    22277743.0794
 01  7 19  0 32  0.0000000  0  6 22 13 20 01 11 25
  22162815.523    -7097738.340 8  -5518045.63746  22162814.752    22162824.0774
  23835820.867    -4588299.448 8  -2931594.79445  23835821.294    23835829.6744
  20172385.263   -26935287.360 9 -14282324.63648  20172384.659    20172390.9684
  21143412.214   -14931239.237 9 -11195588.23947  21143411.571    21143418.8214
  23511409.038    -2683848.655 7  -2080810.57944  23511407.759    23511419.2014
  22292045.545    -4673046.129 8  -3630593.74947  22292045.368    22292052.0744
 01  7 19  0 32 30.0000000  0  6 22 13 20 01 11 25
  22147728.888    -7177019.294 8  -5579822.92346  22147728.067    22147737.2774
  23820459.966    -4669021.307 8  -2994494.88445  23820460.368    23820468.7664
  20171702.243   -26938876.832 9 -14285121.62548  20171701.652    20171707.8884
  21135832.172   -14971072.018 9 -11226626.73047  21135831.558    21135838.8124
  23529600.452    -2588250.680 7  -2006318.78844  23529599.428    23529610.6744
  22306402.658    -4597599.844 8  -3571804.48647  22306402.359    22306409.0624
 01  7 19  0 33  0.0000000  0  6 22 13 20 01 11 25
  22132715.173    -7255917.046 8  -5641301.60446  22132714.460    22132723.0964
  23805115.729    -4749654.697 7  -3057326.03045  23805116.182    23805124.7664
  20171117.006   -26941952.775 9 -14287518.45148  20171116.377    20171122.5474
  21128292.802   -15010690.878 9 -11257498.54747  21128292.308    21128299.6674
  23547814.688    -2492531.825 7  -1931732.78144  23547814.226    23547824.8434
  22320807.028    -4521902.589 8  -3512819.63647  22320806.987    22320813.7924
 01  7 19  0 33 30.0000000  0  6 22 13 20 01 11 25
  22117774.989    -7334429.334 8  -5702479.91846  22117774.094    22117782.3564
  23789788.211    -4830200.931 8  -3120089.20045  23789788.343    23789797.2704
  20170629.426   -26944515.556 9 -14289515.42548  20170628.724    20170634.7984
  21120794.008   -15050096.841 9 -11288204.46947  21120793.569    21120800.9384
  23566052.610    -2396696.070 7  -1857055.70044  23566051.490    23566061.6744
  22335258.837    -4445957.628 8  -3453641.78447  22335258.852    22335265.8114
 01  7 19  0 34  0.0000000  0  6 22 13 20 01 11 25
  22102907.854    -7412554.987 8  -5763356.96846  22102906.877    22102915.4614
  23774477.082    -4910661.462 8  -3182785.62145  23774476.973    23774486.0804
  20170239.109   -26946566.263 9 -14291113.37748  20170238.455    20170244.5434
  21113335.525   -15089292.035 9 -11318746.14347  21113334.972    21113342.2984
  23584311.944    -2300748.52116  -1782291.53744  23584310.162    23584319.4204
  22349757.220    -4369769.440 8  -3394274.39447  22349757.055    22349764.0814
 01  7 19  0 34 30.0000000  0  5 22 13 20 01 25
  22088116.005    -7490285.979 8  -5823926.45246  22088115.236    22088123.7954
  23759183.015    -4991030.718 8  -3245410.88345  23759183.219    23759192.3244
  20169947.504   -26948098.671 9 -14292307.45448  20169946.846    20169952.8984
  21105917.925   -15128270.722 9 -11349119.12647  21105917.418    21105924.8404
  22364302.465    -4293334.321 8  -3334714.59047  22364302.216    22364309.1684
 01  7 19  0 35  0.0000000  0  5 22 13 20 01 25
  22073399.161    -7567624.279 8  -5884189.99546  22073398.205    22073406.8434
  23743905.796    -5071313.235 8  -3307968.58445  23743906.116    23743914.8444
  20169753.741   -26949116.874 9 -14293100.85748  20169753.051    20169759.1924
  21098540.687   -15167037.568 9 -11379327.02447  21098540.235    21098547.6944
  22378893.454    -4216659.411 9  -3274967.93947  22378893.144    22378899.9814
 01  7 19  0 35 30.0000000  0  5 22 13 20 01 25
  22058757.276    -7644564.286 8  -5944143.16946  22058756.711    22058765.7234
  23728645.224    -5151507.185 8  -3370457.25745  23728645.531    23728653.9624
  20169658.401   -26949618.077 9 -14293491.39748  20169657.706    20169663.9354
  21091204.140   -15205590.832 9 -11409368.50147  21091203.734    21091211.1124
  22393529.866    -4139745.016 8  -3215034.68147  22393529.642    22393536.3094
 01  7 19  0 36  0.0000000  0  5 22 13 20 01 25
  22044192.642    -7721103.035 8  -6003783.63246  22044191.873    22044200.7684
  23713401.487    -5231612.474 8  -3432876.86245  23713401.904    23713410.1764
  20169661.580   -26949602.115 9 -14293478.94548  20169660.834    20169667.0214
  21083908.264   -15243930.759 9 -11439243.75047  21083907.864    21083915.1604
  22408211.462    -4062593.658 8  -3154916.77947  22408211.178    22408217.5644
 01  7 19  0 36 30.0000000  0  5 22 13 20 01 25
  22029704.566    -7797238.328 8  -6063109.75146  22029703.743    22029712.7454
  23698174.346    -5311629.732 7  -3495227.88445  23698174.796    23698183.3144
  20169763.000   -26949068.459 9 -14293063.09848  20169762.304    20169768.4694
  21076652.974   -15282057.870 9 -11468953.15947  21076652.547    21076659.6634
  22422937.387    -3985208.041 8  -3094616.32847  22422937.144    22422943.3824
 01  7 19  0 37  0.0000000  0  5 22 13 20 01 25
  22015293.791    -7872966.695 8  -6122118.79346  22015292.910    22015301.9984
  23682964.509    -5391557.578 8  -3557509.22145  23682964.745    23682973.3284
  20169963.363   -26948015.578 9 -14292242.65848  20169962.665    20169968.7994
  21069438.188   -15319971.215 9 -11498496.00347  21069437.812    21069444.9274
  22437707.758    -3907589.177 8  -3034134.12346  22437707.469    22437713.6414
 01  7 19  0 37 30.0000000  0  5 22 13 20 01 25
  22000961.265    -7948285.263 8  -6180808.46946  22000960.402    22000969.2594
  23667771.834    -5471396.274 8  -3619721.05545  23667771.743    23667780.1694
  20170262.626   -26946443.299 9 -14291017.50048  20170261.918    20170267.9974
  21062264.108   -15357671.183 9 -11527872.57147  21062263.669    21062270.8254
  22452522.208    -3829739.321 8  -2973471.91046  22452521.872    22452528.0694
 01  7 19  0 38  0.0000000  0  5 22 13 20 01 25
  21986707.167    -8023190.480 8  -6239176.07846  21986706.350    21986715.1264
  23652595.804    -5551145.698 8  -3681863.38845  23652595.948    23652603.9774
  20170660.869   -26944350.758 9 -14289386.94048  20170660.152    20170666.1624
  21055130.654   -15395157.567 9 -11557082.70847  21055130.226    21055137.5034
  22467380.047    -3751661.520 8  -2912632.06746  22467379.757    22467386.0784
 01  7 19  0 38 30.0000000  0  5 22 13 20 01 25
  21972532.405    -8097678.944 8  -6297218.98446  21972531.543    21972540.4694
  23637437.550    -5630805.322 8  -3743935.64345  23637437.114    23637444.8344
  20171158.339   -26941736.944 9 -14287350.19448  20171157.588    20171163.4714
  21048038.106   -15432429.974 9 -11586126.12047  21048037.577    21048044.7924
  22482281.133    -3673356.840 8  -2851615.47546  22482280.711    22482287.2384
 01  7 19  0 39  0.0000000  0  5 22 13 20 01 25
  21958437.670    -8171747.394 8  -6354934.57846  21958436.840    21958445.4784
  23622295.169    -5710374.099 7  -3805937.13745  23622295.017    23622303.4494
  20171755.164   -26938600.648 9 -14284906.32648  20171754.395    20171760.2384
  21040986.342   -15469487.588 9 -11615002.14447  21040985.779    21040992.9744
  22497224.703    -3594826.754 8  -2790423.22146  22497224.346    22497230.9464
 01  7 19  0 39 30.0000000  0  5 22 13 20 01 25
  21944423.521    -8245391.971 8  -6412319.89646  21944422.653    21944430.9534
  23607170.786    -5789850.753 7  -3867866.82345  23607170.836    23607179.5574
  20172451.563   -26934939.973 9 -14282053.85448  20172450.853    20172456.8554
  21033975.473   -15506329.329 9 -11643709.97347  21033974.913    21033982.3114
  22512210.968    -3516072.689 8  -2729056.45346  22512210.691    22512217.0904
 01  7 19  0 40  0.0000000  0  5 22 13 20 01 25
  21930490.031    -8318611.395 8  -6469373.91846  21930489.239    21930497.5464
  23592064.228    -5869237.230 8  -3929726.28245  23592064.114    23592072.5934
  20173247.491   -26930756.488 9 -14278793.99848  20173246.862    20173252.9804
  21027005.404   -15542957.340 9 -11672251.26247  21027004.817    21027012.3534
  22527239.257    -3437098.775 8  -2667518.36346  22527239.057    22527245.1974
 01  7 19  0 40 30.0000000  0  5 22 13 20 01 25
  21916638.151    -8391402.292 8  -6526093.98746  21916637.467    21916645.6264
  23576974.868    -5948533.364 8  -3991515.36445  23576974.829    23576982.7134
  20174143.340   -26926049.481 9 -14275126.19848  20174142.651    20174148.8214
  21020076.091   -15579371.437 9 -11700625.84947  21020075.405    21020082.9014
  22542309.264    -3357906.905 8  -2605810.43446  22542309.014    22542314.9314
 01  7 19  0 41  0.0000000  0  5 22 13 20 01 25
  21902868.764    -8463761.874 8  -6582478.00046  21902867.930    21902875.9994
  23561903.073    -6027738.908 8  -4053233.87445  23561902.904    23561910.6024
  20175138.848   -26920818.258 9 -14271049.91948  20175138.103    20175144.3154
  21013187.337   -15615571.336 9 -11728833.53848  21013186.823    21013194.2524
  22557420.001    -3278499.263 8  -2543934.39046  22557419.813    22557426.1064
 01  7 19  0 41 30.0000000  0  5 22 13 20 01 25
  21889181.846    -8535687.352 8  -6638523.73847  21889180.955    21889189.1414
  23546848.377    -6106853.079 8  -4114881.18145  23546848.176    23546855.7044
  20176234.107   -26915061.968 9 -14266564.50848  20176233.405    20176239.5504
  21006339.612   -15651556.711 9 -11756874.06848  21006339.084    21006346.5214
  22572571.284    -3198877.398 8  -2481891.38346  22572571.165    22572578.0634
 01  7 19  0 42  0.0000000  0  5 22 13 20 01 25
  21875578.146    -8607174.580 8  -6694227.96147  21875577.263    21875585.7664
  23531810.885    -6185874.972 8  -4176456.55645  23531810.856    23531818.1154
  20177429.574   -26908779.023 9 -14261668.71148  20177428.907    20177435.0054
  20999532.892   -15687326.398 9 -11784746.53148  20999532.396    20999539.8024
  22587763.415    -3119042.686 8  -2419682.54746  22587763.217    22587770.2834
 01  7 19  0 42 30.0000000  0  5 22 13 20 01 25
  21862058.391    -8678219.990 8  -6749587.91246  21862057.513    21862066.3354
  23516791.466    -6264803.817 8  -4237959.42745  23516791.284    23516798.3534
  20178725.482   -26901968.755 9 -14256361.99848  20178724.849    20178730.9234
  20992767.414   -15722879.986 9 -11812450.60048  20992766.740    20992774.1064
  22602995.945    -3038996.851 8  -2357309.20946  22602995.551    22603002.5734
 01  7 19  0 43  0.0000000  0  5 22 13 20 01 25
  21848623.382    -8748820.556 8  -6804601.25946  21848622.533    21848631.4354
  23501789.275    -6343639.726 8  -4299389.88645  23501789.220    23501796.1944
  20180121.895   -26894630.817 9 -14250644.12348  20180121.203    20180127.2594
  20986042.552   -15758217.620 9 -11839986.39847  20986042.076    20986049.4384
  22618268.315    -2958742.050 8  -2294773.04046  22618267.739    22618274.3544
 01  7 19  0 43 30.0000000  0  5 22 13 20 01 25
  21835273.650    -8818974.116 8  -6859266.30747  21835272.835    21835281.5804
  23486805.104    -6422382.440 8  -4360747.73545  23486804.984    23486811.5314
  20181618.695   -26886764.639 9 -14244514.63948  20181618.037    20181624.2244
  20979359.076   -15793339.468 9 -11867354.05147  20979358.602    20979365.9464
  22633579.298    -2878280.603 8  -2232075.84546  22633578.800    22633585.3754
 01  7 19  0 44  0.0000000  0  6 22 13 04 20 01 25
  21822009.445    -8888677.398 8  -6913580.46946  21822008.578    21822017.3044
  23471838.405    -6501031.272 8  -4422032.44845  23471838.245    23471844.7884
  24220294.878                                    24220296.688    24220280.5094
  20183216.302   -26878369.301 9 -14237972.82748  20183215.660    20183221.7384
  20972716.810   -15828244.743 9 -11894552.94247  20972716.301    20972723.6414
  22648929.414    -2797614.004 8  -2169218.79145  22648929.033    22648935.4814
 01  7 19  0 44 30.0000000  0  5 22 13 20 01 25
  21808831.931    -8957925.912 8  -6967540.27546  21808831.140    21808839.6174
  23456889.589    -6579584.832 8  -4483242.92045  23456889.684    23456896.3584
  20184914.968   -26869443.063 9 -14231017.31648  20184914.255    20184920.3874
  20966115.786   -15862932.242 9 -11921582.13147  20966115.430    20966122.7364
  22664318.568    -2716743.450 8  -2106202.81146  22664318.249    22664324.6434
 01  7 19  0 45  0.0000000  0  5 22 13 20 01 25
  21795741.241    -9026718.851 8  -7021145.07746  21795740.313    21795748.6064
  23441959.258    -6658045.489 8  -4544381.00045  23441958.959    23441965.8004
  20186714.276   -26859987.762 9 -14223649.53848  20186713.559    20186719.5934
  20959556.061   -15897404.258 9 -11948443.41247  20959555.711    20959562.8474
  22679745.693    -2635673.188 8  -2043031.18346  22679745.459    22679751.8714
 01  7 19  0 45 30.0000000  0  6 22 13 04 20 01 25
  21782737.587    -9095052.349 8  -7074391.88046  21782736.706    21782745.0104
  23427045.994    -6736411.461 8  -4605445.28145  23427046.084    23427053.1564
                      -116.170
  20188614.507   -26850002.058 9 -14215868.46248  20188613.794    20188619.8354
  20953037.762   -15931659.513 9 -11975135.77548  20953037.234    20953044.2554
  22695210.593    -2554404.107 8  -1979704.66145  22695210.294    22695216.8524
 01  7 19  0 46  0.0000000  0  6 22 13 04 20 01 25
  21769821.893    -9162923.161 8  -7127278.15847  21769821.166    21769829.4964
  23412151.090    -6814681.647 8  -4666434.95045  23412151.495    23412158.5534
  24177668.912    24177672.526                                    24177686.2744
  20190615.897   -26839484.558 9 -14207672.99948  20190615.138    20190621.3324
  20946560.631   -15965696.962 9 -12001658.42348  20946560.108    20946567.1514
  22710712.796    -2472937.328 8  -1916224.06745  22710712.721    22710719.3554
 01  7 19  0 46 30.0000000  0  5 22 13 20 01 25
  21756993.111    -9230339.623 8  -7179810.38847  21756992.387    21757000.3374
  23397273.085    -6892867.446 8  -4727358.84346  23397273.414    23397280.4774
  20192716.370   -26828446.230 9 -14199071.70348  20192715.654    20192721.9174
  20940122.780   -15999527.711 9 -12028020.01848  20940122.275    20940129.2494
  22726250.528    -2391286.112 8  -1852599.76045  22726250.454    22726257.0814
 01  7 19  0 47  0.0000000  0  5 22 13 20 01 25
  21744255.954    -9297274.670 8  -7231967.49147  21744255.085    21744262.7424
  23382415.454    -6970944.560 8  -4788198.04346  23382415.711    23382423.3534
  20194920.732   -26816862.462 9 -14190045.40348  20194920.008    20194926.2374
  20933728.938   -16033127.779 9 -12054201.88448  20933728.511    20933735.4784
  22741827.438    -2309429.303 8  -1788815.27045  22741827.430    22741833.8914
 01  7 19  0 47 30.0000000  0  5 22 13 20 01 25
  21731608.096    -9363739.279 8  -7283758.03547  21731607.212    21731615.0234
  23367575.635    -7048926.467 8  -4848963.09946  23367575.845    23367584.0864
  20197226.135   -26804747.097 9 -14180604.85248  20197225.422    20197231.6724
  20927376.302   -16066511.031 9 -12080214.77948  20927375.839    20927382.8754
  22757440.421    -2227382.437 8  -1724882.71245  22757440.431    22757447.0254
 01  7 19  0 48  0.0000000  0  5 22 13 20 01 25
  21719050.088    -9429731.940 8  -7335180.82147  21719049.245    21719057.2634
  23352754.185    -7126814.009 8  -4909654.59446  23352754.224    23352762.5594
  20199632.502   -26792100.701 9 -14170750.51248  20199631.826    20199638.3094
  20921064.766   -16099678.293 9 -12106059.38248  20921064.289    20921071.4294
  22773089.451    -2145148.146 7  -1660804.11045  22773089.118    22773095.9044
 01  7 19  0 48 30.0000000  0  5 22 13 20 01 25
  21706582.309    -9495249.832 8  -7386233.61147  21706581.437    21706589.6004
  23337950.825    -7204606.616 8  -4970272.10446  23337950.833    23337959.1484
  20202140.193   -26778922.644 9 -14160481.89948  20202139.609    20202146.0764
  20914794.502   -16132628.941 9 -12131735.20048  20914794.059    20914801.0974
  22788773.432    -2062728.401 7  -1596580.98345  22788773.021    22788780.0844
 01  7 19  0 49  0.0000000  0  5 22 13 20 01 25
  21694205.609    -9560288.579 8  -7436913.07147  21694204.805    21694213.0524
  23323165.982    -7282302.699 8  -5030814.41946  23323165.589    23323174.0604
  20204749.646   -26765211.442 9 -14149797.85348  20204748.943    20204755.2384
  20908565.585   -16165361.788 9 -12157241.29948  20908565.172    20908572.2324
  22804492.617    -1980123.856 7  -1532213.82245  22804492.099    22804499.3874
 01  7 19  0 49 30.0000000  0  5 22 13 20 01 25
  21681921.369    -9624843.855 8  -7487215.80447  21681920.399    21681928.4674
  23308398.934    -7359900.747 8  -5091280.34245  23308399.011    23308407.4134
  20207460.550   -26750965.473 9 -14138697.09048  20207459.837    20207466.1094
  20902378.366   -16197875.375 9 -12182576.52848  20902377.925    20902384.9184
  22820246.555    -1897335.608 8  -1467703.53345  22820246.312    22820253.6754
 01  7 19  0 50  0.0000000  0  5 22 13 20 01 25
  21669728.752    -9688914.320 8  -7537140.78746  21669727.940    21669736.2114
  23293650.994    -7437402.104 8  -5151670.90446  23293651.020    23293659.1574
  20210272.963   -26736185.786 9 -14127180.44448  20210272.309    20210278.6034
  20896232.869   -16230170.764 9 -12207741.76048  20896232.360    20896239.3464
  22836035.303    -1814366.896 8  -1403052.63845  22836034.861    22836042.3054
 01  7 19  0 50 30.0000000  0  5 22 13 20 01 25
  21657629.124    -9752496.755 8  -7586685.46246  21657628.486    21657636.7154
  23278921.613    -7514805.093 8  -5211984.82646  23278921.738    23278929.8164
  20213187.377   -26720870.951 9 -14115246.81048  20213186.712    20213192.9054
  20890128.918   -16262246.895 9 -12232736.13848  20890128.445    20890135.4274
  22851857.866    -1731218.859 7  -1338261.98545  22851857.269    22851865.1014
 01  7 19  0 51  0.0000000  0  5 22 13 20 01 25
  21645623.250    -9815589.264 8  -7635848.40247  21645622.437    21645630.4234
  23264210.854    -7592110.355 8  -5272222.59246  23264211.121    23264218.9964
  20216203.311   -26705021.648 9 -14102896.70748  20216202.644    20216208.8504
  20884066.568   -16294104.285 9 -12257560.05248  20884066.052    20884073.1244
  22867713.509    -1647894.360 8  -1273333.82645  22867713.351    22867721.6354
 01  7 19  0 51 30.0000000  0  5 22 13 20 01 25
  21633710.965    -9878188.542 8  -7684626.98647  21633710.184    21633718.1754
  23249518.750    -7669317.356 8  -5332383.82846  23249519.113    23249526.8864
  20219321.052   -26688637.677 9 -14090129.99648  20219320.386    20219326.5464
  20878045.871   -16325742.733 9 -12282213.37548  20878045.390    20878052.5344
  22883603.329    -1564395.208 7  -1208269.59245  22883602.931    22883610.9814
 01  7 19  0 52  0.0000000  0  5 22 13 20 01 25
  21621893.275    -9940291.852 8  -7733019.10947  21621892.376    21621900.2674
  23234845.366    -7746426.183 8  -5392468.56546  23234845.851    23234853.4514
  20222540.667   -26671718.770 9 -14076946.43148  20222539.957    20222546.1944
  20872066.862   -16357162.262 9 -12306696.10048  20872066.389    20872073.6794
  22899525.772    -1480723.440 7  -1143070.88445  22899525.179    22899532.8654
 01  7 19  0 52 30.0000000  0  6 22 13 04 20 01 25
  21610170.209   -10001896.340 8  -7781022.49947  21610169.252    21610177.3334
  23220190.938    -7823436.127 8  -5452476.20746  23220191.357    23220198.8794
  24049213.094                                    24049217.273    24049215.9644
  20225862.166   -26654264.334 9 -14063345.57948  20225861.497    20225867.6354
  20866129.587   -16388362.295 9 -12331007.78348  20866129.060    20866136.4574
  22915480.585    -1396880.383 7  -1077738.72045  22915479.804    22915487.1664
 01  7 19  0 53  0.0000000  0  6 22 13 04 20 01 25
  21598542.524   -10062998.688 8  -7828634.64447  21598541.601    21598550.0814
  23205555.262    -7900345.423 8  -5512405.47646  23205555.789    23205563.6154
  24039980.877                                    24039987.293    24039991.2334
  20229285.783   -26636273.247 9 -14049326.55248  20229285.117    20229291.2454
  20860234.194   -16419341.358 9 -12355147.29148  20860233.801    20860241.2764
  22931467.758    -1312866.896 7  -1012273.71245  22931466.797    22931474.3554
 01  7 19  0 53 30.0000000  0  6 22 13 04 20 01 25
  21587011.400   -10123595.777 8  -7875853.07547  21587010.424    21587018.9104
  23190938.874    -7977153.862 8  -5572256.14746  23190939.407    23190947.5214
  24030846.878     -582560.31654                  24030846.141    24030850.1114
  20232811.672   -26617744.899 9 -14034888.87648  20232810.927    20232817.0234
  20854381.246   -16450099.107 9 -12379114.34548  20854380.803    20854388.2654
  22947486.482    -1228684.995 7   -946677.42945  22947485.887    22947493.8834
 01  7 19  0 54  0.0000000  0  6 22 13 04 20 01 25
  21575576.590   -10183685.928 8  -7922676.49247  21575575.510    21575584.0704
  23176342.011    -8053862.445 8  -5632028.97346  23176342.412    23176350.4644
  24021798.105     -804297.68916   -619579.87044  24021805.030    24021817.1874
  20236439.384   -26598680.606 9 -14020033.58748  20236438.675    20236444.9074
  20848570.211   -16480636.721 9 -12402909.85748  20848569.686    20848577.1134
  22963537.393    -1144338.066 7   -880952.58845  22963536.644    22963544.8524
 01  7 19  0 54 30.0000000  0  6 22 13 04 20 01 25
  21564238.551   -10243267.300 8  -7969103.46847  21564237.519    21564246.1434
  23161763.750    -8130471.850 8  -5691724.54346  23161763.905    23161772.3154
  24012854.937     -851308.167 7   -656211.29444  24012859.643    24012872.0404
  20240168.931   -26579081.100 9 -14004761.24948  20240168.243    20240174.5114
  20842800.892   -16510954.838 9 -12426534.33048  20842800.320    20842807.7454
  22979619.100    -1059828.853 8   -815101.29245  22979618.470    22979626.8484
 01  7 19  0 55  0.0000000  0  6 22 13 04 20 01 25
  21552997.652   -10302338.598 8  -8015132.98147  21552996.651    21553004.9534
  23147204.388    -8206981.940 8  -5751342.70246  23147204.453    23147212.7164
  24004006.837     -897819.905 7                  24004013.364    24004018.6494
  20244000.254   -26558946.852 9 -13989072.23848  20243999.680    20244005.9204
  20837073.173   -16541053.980 9 -12449988.16748  20837072.655    20837080.0444
  22995731.509     -975159.884 7   -749125.53745  22995730.806    22995738.9624
 01  7 19  0 55 30.0000000  0  5 22 13 20 01 25
  21541854.427   -10360895.479 8  -8060761.65147  21541853.435    21541861.5044
  23132664.518    -8283391.048 8  -5810882.18546  23132664.340    23132672.3694
  20247933.899   -26538276.121 9 -13972965.16648  20247933.257    20247939.4644
  20831387.502   -16570932.183 9 -12473269.86148  20831386.991    20831394.2584
  23011873.437     -890331.398 7   -683025.48045  23011873.232    23011880.9814
 01  7 19  0 56  0.0000000  0  5 22 13 20 01 25
  21530811.034   -10418929.304 8  -8105982.74847  21530810.100    21530818.1094
  23118144.270    -8359692.912 8  -5870338.14046  23118144.182    23118152.5434
  20251970.782   -26517063.356 9 -13956435.75348  20251970.043    20251976.0934
  20825744.836   -16600583.538 9 -12496374.79148  20825744.358    20825751.9204
  23028046.634     -805339.723 8   -616798.27445  23028046.655    23028053.9894
 01  7 19  0 56 30.0000000  0  5 22 13 20 01 25
  21519866.521   -10476442.818 8  -8150798.42147  21519865.508    21519873.8644
  23103643.877    -8435892.997 8  -5929714.74346  23103643.770    23103652.0824
  20256109.520   -26495313.890 9 -13939488.14148  20256108.808    20256114.8594
  20820144.551   -16630013.304 9 -12519307.05548  20820144.064    20820151.6374
  23044250.112     -720192.517 8   -550449.83545  23044249.968    23044256.6424
 01  7 19  0 57  0.0000000  0  5 22 13 20 01 25
  21509021.147   -10533434.660 8  -8195207.61247  21509020.225    21509028.6734
  23089162.779    -8511991.820 8  -5989012.48146  23089162.845    23089170.8664
  20260350.229   -26473028.563 9 -13922122.95848  20260349.562    20260355.5954
  20814586.273   -16659222.318 9 -12542067.30948  20814585.772    20814593.3054
  23060482.505     -634892.334 8   -483982.19745  23060482.250    23060488.6104
 01  7 19  0 57 30.0000000  0  5 22 13 20 01 25
  21498275.914   -10589902.160 9  -8239208.18747  21498274.933    21498282.9544
  23074701.358    -8587988.112 8  -6048230.30646  23074701.436    23074709.1194
  20264693.015   -26450206.758 9 -13904339.73748  20264692.356    20264698.4874
  20809070.146   -16688209.699 9 -12564654.84448  20809069.641    20809077.2414
  23076743.635     -549440.032 7   -417396.06445  23076743.224    23076749.7994
 01  7 19  0 58  0.0000000  0  5 22 13 20 01 25
  21487630.796   -10645842.622 8  -8282798.08247  21487629.834    21487637.5164
  23060259.368    -8663881.954 8  -6107368.27246  23060259.274    23060266.9614
  20269137.929   -26426848.438 9 -13886138.45948  20269137.238    20269143.5544
  20803596.386   -16716975.148 9 -12587069.45948  20803595.890    20803603.2854
  23093032.791     -463838.054 7   -350693.26945  23093032.506    23093039.6474
 01  7 19  0 58 30.0000000  0  5 22 13 20 01 25
  21477086.830   -10701250.553 8  -8325973.05247  21477085.883    21477093.7264
  23045837.235    -8739670.399 8  -6166424.13246  23045837.219    23045844.7834
  20273685.351   -26402951.240 9 -13867517.27948  20273684.690    20273691.0524
  20798165.388   -16745516.023 9 -12609309.09948  20798164.850    20798171.9914
  23109350.565     -378085.903 8   -283873.47145  23109350.520    23109358.3834
 01  7 19  0 59  0.0000000  0  5 22 13 20 01 25
  21466644.352   -10756124.703 8  -8368732.08947  21466643.432    21466651.6504
  23031434.868    -8815354.063 8  -6225398.35446  23031435.070    23031442.7754
  20278335.210   -26378516.218 9 -13848477.01148  20278334.531    20278340.9934
  20792776.887   -16773833.360 9 -12631374.54348  20792776.301    20792783.3434
  23125697.085     -292186.291 8   -216938.73545  23125696.883    23125705.3124
 01  7 19  0 59 30.0000000  0  5 22 13 20 01 25
  21456303.966   -10810463.654 8  -8411074.04847  21456303.040    21456311.4044
  23017052.667    -8890933.057 8  -6284290.99646  23017052.816    23017060.6024
  20283087.294   -26353544.080 9 -13829018.20948  20283086.611    20283092.9794
  20787430.697   -16801927.323 9 -12653265.91548  20787430.192    20787437.1904
  23142071.462     -206141.922 8   -149891.17445  23142070.898    23142079.4154
 01  7 19  1  0  0.0000000  0  5 22 13 20 01 25
  21446065.829   -10864265.794 9  -8452997.73447  21446064.938    21446072.9214
  23002690.454    -8966407.902 8  -6343102.46046  23002690.439    23002698.2434
  20287941.683   -26328035.506 9 -13809141.41748  20287940.940    20287946.9384
  20782127.093   -16829798.227 9 -12674983.49048  20782126.513    20782133.4614
  23158472.313     -119955.308 8    -82732.77245  23158471.873    23158480.1414
 01  7 19  1  0 30.0000000  0  5 22 13 20 01 25
  21435930.471   -10917527.004 8  -8494499.94347  21435929.585    21435937.4174
  22988348.125    -9041776.930 8  -6401831.50346  22988348.237    22988355.8884
  20292898.004   -26301989.408 9 -13788845.75348  20292897.250    20292903.3374
  20776866.121   -16857444.610 9 -12696526.11848  20776865.635    20776872.5314
  23174900.002      -33626.893 7    -15463.93345  23174899.592    23174907.6304
 01  7 19  1  1  0.0000000  0  5 22 13 20 01 25
  21425897.842   -10970248.421 8  -8535581.51647  21425896.990    21425904.8664
  22974025.710    -9117043.661 8  -6460480.81646  22974025.414    22974032.9604
  20297955.831   -26275409.750 9 -13768134.35248  20297955.098    20297961.3934
  20771647.236   -16884870.146 9 -12717896.63848  20771646.718    20771653.6254
  23191353.620       52837.584 7     51910.90645  23191353.111    23191360.9514
 01  7 19  1  1 30.0000000  0  5 22 13 20 01 25
  21415969.533   -11022422.616 8  -8576236.68047  21415968.593    21415976.2764
  22959723.134    -9192202.253 8  -6519045.89346  22959723.135    22959730.5104
  20303116.311   -26248291.248 9 -13747003.06948  20303115.615    20303121.9434
  20766471.318   -16912069.161 9 -12739090.65648  20766470.901    20766477.7844
  23207833.133      139441.226 7    119394.21745  23207832.802    23207841.3434
 01  7 19  1  2  0.0000000  0  6 22 13 04 20 01 25
  21406145.542   -11074047.867 8  -8616464.05347  21406144.565    21406152.2704
  22945441.493    -9267252.498 8  -6577526.51946  22945441.511    22945448.5984
  23890256.382                                    23890254.751    23890414.8674
  20308379.173   -26220634.413 9 -13725452.28948  20308378.452    20308384.8354
  20761338.630   -16939041.646 9 -12760108.16448  20761338.185    20761345.1634
  23224339.541      226182.208 7    186984.51545  23224339.215    23224347.8084
 01  7 19  1  2 30.0000000  0  5 22 13 20 01 25
  21396425.849   -11125122.996 8  -8656262.82747  21396425.033    21396432.6754
  22931180.213    -9342195.116 8  -6635923.29646  22931180.374    22931187.3184
  20313744.247   -26192440.630 9 -13703483.10648  20313743.538    20313749.9604
  20756248.894   -16965788.494 9 -12780949.85148  20756248.478    20756255.4034
  23240871.263      313057.360 7    254679.37545  23240871.200    23240879.8994
 01  7 19  1  3  0.0000000  0  6 22 13 04 20 01 25
  21386812.042   -11175643.930 8  -8695629.73447  21386811.269    21386819.0654
  22916939.895    -9417028.775 8  -6694235.15446  22916940.112    22916946.8614
  23875577.656     -516654.84054                  23875575.623    23875584.1224
  20319211.867   -26163708.859 9 -13681094.72348  20319211.123    20319217.4994
  20751202.486   -16992308.332 9 -12801614.63748  20751201.982    20751208.7544
  23257428.471      400066.068 7    322478.31145  23257428.428    23257437.2874
 01  7 19  1  3 30.0000000  0  6 22 13 04 20 01 25
  21377303.529   -11225611.154 8  -8734565.16947  21377302.791    21377310.7474
  22902720.010    -9491755.992 8  -6752464.08946  22902720.216    22902726.5034
  23868387.898     -708267.52917   -546103.16445  23868385.640    23868389.6824
  20324781.121   -26134442.159 9 -13658289.53148  20324780.417    20324786.7634
  20746198.755   -17018603.575 9 -12822104.42848  20746198.296    20746204.8984
  23274009.895      487203.986 7    390377.95845  23274009.969    23274019.3104
 01  7 19  1  4  0.0000000  0  6 22 13 04 20 01 25
  21367900.400   -11275025.032 9  -8773069.42547  21367899.700    21367907.5074
  22888520.112    -9566378.182 8  -6810611.16846  22888520.137    22888526.1564
  23861293.985     -745539.878 7   -575146.39644  23861290.033    23861295.9464
  20330451.634   -26104642.799 9 -13635069.25548  20330451.022    20330457.3904
  20741237.353   -17044676.041 9 -12842420.61848  20741236.841    20741243.4114
  23290615.733      574466.932 7    458375.03544  23290615.710    23290624.6624
 01  7 19  1  4 30.0000000  0  6 22 13 04 20 01 25
  21358603.803   -11323880.702 9  -8811138.71147  21358602.927    21358610.4724
  22874340.553    -9640892.185 8  -6868673.94446  22874340.584    22874346.6234
  23854298.645     -782288.473 7   -603781.63344  23854294.346    23854304.4254
  20336224.147   -26074308.052 9 -13611431.79348  20336223.565    20336229.9004
  20736318.759   -17070522.604 9 -12862560.76948  20736318.276    20736324.9594
  23307245.723      661856.176 7    526470.51144  23307245.161    23307254.3494
 01  7 19  1  5  0.0000000  0  6 22 13 04 20 01 25
  21349414.055   -11372173.113 8  -8848769.12547  21349413.129    21349420.6164
  22860181.989    -9715295.326 8  -6926650.31246  22860182.115    22860188.3184
  23847405.612     -818510.069 7   -632006.25044  23847404.014    23847412.2134
  20342098.944   -26043435.992 9 -13587375.65148  20342098.368    20342104.5884
  20731443.747   -17096140.797 9 -12882522.99148  20731443.271    20731449.8564
  23323899.238      749372.256 7    594664.77244  23323898.953    23323907.4784
 01  7 19  1  5 30.0000000  0  6 22 13 04 20 01 25
  21340331.569   -11419899.906 8  -8885958.79747  21340330.667    21340338.5244
  22846044.603    -9789587.058 8  -6984539.92346  22846044.822    22846051.0644
  23840612.647     -854203.566 7   -659819.34844  23840611.231    23840620.9794
  20348075.910   -26012026.995 9 -13562901.13448  20348075.301    20348081.4954
  20726612.178   -17121530.405 9 -12902307.07048  20726611.696    20726618.2604
  23340577.275      837013.176 7    662956.38544  23340576.102    23340585.3604
 01  7 19  1  6  0.0000000  0  6 22 13 04 20 01 25
  21331357.197   -11467058.253 8  -8922705.49747  21331356.459    21331364.5974
  22831928.616    -9863766.251 8  -7042341.83346  22831928.696    22831935.1574
  23833920.513     -889367.364 7   -687219.75044  23833919.669    23833929.1364
  20354155.155   -25980080.586 9 -13538007.84648  20354154.542    20354160.8044
  20721824.354   -17146690.240 9 -12921912.12248  20721823.850    20721830.6074
  23357278.716      924777.996 7    731344.51454  23357277.687    23357287.2624
 01  7 19  1  6 30.0000000  0  6 22 13 04 20 01 25
  21322491.621   -11513647.958 8  -8959009.10347  21322490.797    21322498.7994
  22817833.465    -9937834.113 8  -7100056.97346  22817833.623    22817840.3874
  23827329.760     -924002.292 7   -714207.93544  23827329.135    23827338.2614
  20360336.151   -25947598.789 9 -13512697.36148  20360335.543    20360341.8434
  20717080.072   -17171621.592 9 -12941339.12248  20717079.584    20717086.4364
  23374002.387     1012663.04316                  23374001.164    23374011.5124
 01  7 19  1  7  0.0000000  0  6 22 13 04 20 01 25
  21313734.460   -11559667.073 9  -8994868.12047  21313733.679    21313741.5204
  22803759.990   -10011790.452 8  -7157685.21146  22803760.125    22803766.8044
  23820840.234     -958107.297 7   -740783.21344  23820839.345    23820847.7864
  20366618.887   -25914581.991 9 -13486969.99748  20366618.354    20366624.6464
  20712379.394   -17196324.306 9 -12960587.97748  20712378.849    20712385.5824
  23390748.177                                    23390747.127    23390757.9944
 01  7 19  1  7 30.0000000  0  5 22 13 04 20 01
  21305084.736   -11605121.932 9  -9030287.44547  21305084.017    21305091.6284
  22789706.516   -10085643.627 8  -7215233.06546  22789706.465    22789712.7794
  23814449.973     -991690.496 8   -766951.86645  23814449.049    23814457.4774
  20373001.939   -25881039.534 9 -13460833.04648  20373001.334    20373007.5954
  20707720.369   -17220807.166 9 -12979665.52448  20707719.844    20707726.6294
 01  7 19  1  8  0.0000000  0  5 22 13 04 20 01
  21296544.789   -11650000.728 9  -9065257.90147  21296543.969    21296551.4904
  22775674.332   -10159383.543 8  -7272692.70146  22775674.219    22775680.3934
  23808160.334    -1024741.462 7   -792705.85845  23808159.526    23808168.4504
  20379486.712   -25846962.054 9 -13434279.17348  20379486.056    20379492.3384
  20703105.175   -17245060.032 9 -12998563.84248  20703104.649    20703111.4704
 01  7 19  1  8 30.0000000  0  5 22 13 04 20 01
  21288114.935   -11694299.944 8  -9099776.73047  21288114.096    21288121.5674
  22761664.070   -10233008.164 8  -7330062.47546  22761664.048    22761670.1414
  23801972.112    -1057257.670 7   -818043.14645  23801971.618    23801980.6544
  20386073.402   -25812348.316 9 -13407307.43948  20386072.845    20386079.1794
  20698534.063   -17269080.954 9 -13017281.43648  20698533.534    20698540.4534
 01  7 19  1  9  0.0000000  0  5 22 13 04 20 01
  21279795.297   -11738018.067 8  -9133842.74447  21279794.515    21279802.0384
  22747675.503   -10306517.164 8  -7387342.13446  22747675.572    22747681.4534
  23795886.471    -1089238.323 8   -842963.09145  23795885.890    23795894.8844
  20392762.195   -25777198.861 9 -13379918.28048  20392761.565    20392767.9704
  20694007.232   -17292869.638 9 -13035818.05548  20694006.697    20694013.5254
 01  7 19  1  9 30.0000000  0  5 22 13 04 20 01
  21271586.673   -11781153.469 9  -9167454.70847  21271585.948    21271593.6954
  22733708.794   -10379910.809 8  -7444531.92846  22733708.961    22733715.1144
  23789903.155    -1120683.404 7   -867465.65945  23789902.763    23789911.2334
  20399552.713   -25741515.148 9 -13352112.80748  20399552.084    20399558.3384
  20689524.527   -17316426.519 9 -13054174.06348  20689523.961    20689530.7914
 01  7 19  1 10  0.0000000  0  5 22 13 04 20 01
  21263489.456   -11823704.850 9  -9200611.57147  21263488.713    21263496.4314
  22719763.919   -10453189.781 8  -7501632.37646  22719764.135    22719770.6554
  23784020.319    -1151593.056 7   -891551.11445  23784020.226    23784029.1804
  20406444.521   -25705298.591 9 -13323892.12648  20406443.843    20406450.1514
  20685085.634   -17339752.405 9 -13072350.06148  20685085.124    20685091.9894
 01  7 19  1 10 30.0000000  0  5 22 13 04 20 01
  21255503.744   -11865670.461 9  -9233312.02447  21255502.951    21255510.4654
  22705841.229   -10526353.529 8  -7558643.04646  22705841.453    22705847.9824
  23778239.861    -1181966.769 7   -915218.91045  23778240.116    23778249.2464
  20413437.669   -25668549.742 9 -13295256.66848  20413436.902    20413443.1894
  20680690.829   -17362847.023 9 -13090345.84248  20680690.386    20680697.2514
 01  7 19  1 11  0.0000000  0  5 22 13 04 20 01
  21247629.440   -11907050.114 8  -9265555.89347  21247628.772    21247636.0444
  22691940.235   -10599403.068 8  -7615564.71746  22691940.547    22691946.9724
  23772562.526    -1211805.077 7   -938469.48845  23772562.327    23772571.5684
  20420531.542   -25631270.299 9 -13266207.77248  20420530.871    20420537.2234
  20676339.927   -17385711.433 9 -13108162.26148  20676339.458    20676346.3284
 01  7 19  1 11 30.0000000  0  5 22 13 04 20 01
  21239867.157   -11947841.214 8  -9297341.09947  21239866.457    21239873.8194
  22678061.199   -10672337.150 8  -7672396.41346  22678061.405    22678067.9664
  23766986.578    -1241106.461 7   -961301.74845  23766986.508    23766995.4074
  20427726.558   -25593460.173 9 -13236745.34848  20427725.920    20427732.2064
  20672032.998   -17408344.703 9 -13125798.56448  20672032.500    20672039.3134
 01  7 19  1 12  0.0000000  0  5 22 13 04 20 01
  21232217.350   -11988040.376 8  -9328665.09647  21232216.712    21232224.2804
  22664204.379   -10745154.564 8  -7729137.20646  22664204.618    22664211.1794
  23761512.743    -1269869.202 7   -983714.20945  23761513.167    23761521.6054
  20435022.403   -25555118.949 9 -13206869.09848  20435021.878    20435028.2144
  20667770.174   -17430745.470 9 -13143253.68948  20667769.711    20667776.5204
 01  7 19  1 12 30.0000000  0  5 22 13 04 20 01
  21224680.653   -12027645.956 9  -9359526.53447  21224679.900    21224687.4434
  22650370.007   -10817854.575 8  -7785786.50746  22650370.255    22650376.8584
  23756141.398    -1298093.046 7  -1005706.81345  23756142.055    23756150.4924
  20442419.674   -25516247.541 9 -13176579.70148  20442419.007    20442425.3584
  20663551.754   -17452913.641 9 -13160527.57648  20663551.291    20663558.0734
 01  7 19  1 13  0.0000000  0  5 22 13 04 20 01
  21217257.106   -12066657.727 8  -9389925.28347  21217256.270    21217263.6724
  22636557.701   -10890438.592 8  -7842345.45146  22636558.066    22636564.5584
  23750873.505    -1325778.798 7  -1027280.13245  23750873.961    23750882.3094
  20449917.384   -25476847.879 9 -13145878.68348  20449916.647    20449922.9154
  20659377.298   -17474850.328 9 -13177621.07948  20659376.821    20659383.5694
 01  7 19  1 13 30.0000000  0  5 22 13 04 20 01
  21209946.353   -12105074.982 8  -9419860.78747  21209945.510    21209953.3574
  22622767.752   -10962906.832 8  -7898814.14746  22622767.994    22622774.4454
  23745708.071    -1352926.553 7  -1048434.23845  23745708.388    23745716.7024
  20457515.036   -25436921.284 9 -13114767.06148  20457514.348    20457520.7304
  20655246.574   -17496555.784 9 -13194534.41648  20655246.221    20655253.0074
 01  7 19  1 14  0.0000000  0  5 22 13 04 20 01
  21202749.736   -12142893.880 8  -9449330.02547  21202748.842    21202756.8574
  22608999.906   -11035256.836 8  -7955190.72646  22609000.265    22609006.6924
  23740645.361    -1379533.929 7  -1069167.18345  23740645.351    23740653.6814
  20465213.137   -25396466.882 9 -13083244.16748  20465212.508    20465218.9674
  20651160.505   -17518028.010 9 -13211266.00048  20651160.119    20651166.9674
 01  7 19  1 14 30.0000000  0  5 22 13 04 20 01
  21195667.006   -12180112.865 8  -9478331.77247  21195666.156    21195674.2924
  22595254.598   -11107488.905 8  -8011475.40546  22595254.960    22595261.2674
  23735685.272    -1405600.945 7  -1089479.02045  23735684.899    23735692.5334
  20473011.602   -25355485.652 9 -13051310.76048  20473011.009    20473017.4304
  20647118.786   -17539267.220 9 -13227816.00748  20647118.328    20647125.2914
 01  7 19  1 15  0.0000000  0  5 22 13 04 20 01
  21188699.354   -12216726.906 9  -9506862.15847  21188698.659    21188706.6944
  22581532.689   -11179599.183 8  -8067665.13446  22581532.850    22581539.2494
  23730827.366    -1431123.670 7  -1109366.88344  23730827.351    23730835.3864
  20480910.891   -25313975.045 9 -13018964.85948  20480910.261    20480916.5084
  20643121.884   -17560269.681 9 -13244181.54948  20643121.544    20643128.5994
 01  7 19  1 15 30.0000000  0  5 22 13 04 20 01
  21181847.030   -12252736.227 8  -9534921.33547  21181846.303    21181854.3694
  22567833.477   -11251588.649 8  -8123760.78346  22567833.694    22567839.9924
  23726073.654    -1456103.124 7  -1128831.43145  23726073.860    23726082.0974
  20488910.488   -25271937.177 9 -12986208.10448  20488909.823    20488916.1064
  20639169.980   -17581036.696 9 -13260363.63448  20639169.700    20639176.7174
 01  7 19  1 16  0.0000000  0  5 22 13 04 20 01
  21175109.882   -12288140.902 9  -9562509.35947  21175109.196    21175117.0054
  22554157.136   -11323458.200 8  -8179762.98646  22554157.262    22554163.4064
  23721423.806    -1480540.322 7  -1147873.34645  23721423.690    23721432.2994
  20497009.844   -25229374.552 9 -12953042.44348  20497009.246    20497015.5314
  20635262.859   -17601569.469 9 -13276363.18348  20635262.475    20635269.4184
 01  7 19  1 16 30.0000000  0  5 22 13 04 20 01
  21168488.318   -12322939.258 8  -9589624.93347  21168487.401    21168494.8624
  22540503.710   -11395207.549 8  -8235671.49846  22540503.804    22540509.9994
  23716877.013    -1504435.210 7  -1166492.66845  23716876.997    23716884.9974
  20505208.915   -25186288.205 9 -12919468.70248  20505208.320    20505214.6294
  20631400.103   -17621868.148 9 -13292180.33048  20631399.729    20631406.6424
 01  7 19  1 17  0.0000000  0  5 22 13 04 20 01
  21161982.420   -12357128.387 9  -9616265.75247  21161981.515    21161988.8754
  22526873.506   -11466836.195 8  -8291485.95746  22526873.460    22526879.6904
  23712432.837    -1527786.419 7  -1184688.35045  23712433.056    23712440.9604
  20513507.661   -25142678.073 9 -12885486.79248  20513507.074    20513513.4594
  20627582.185   -17641931.429 9 -13307814.04348  20627581.832    20627588.7474
 01  7 19  1 17 30.0000000  0  5 22 13 04 20 01
  21155592.700   -12390704.593 8  -9642429.00347  21155591.859    21155599.6504
  22513266.563   -11538340.740 8  -8347203.73246  22513266.480    22513272.6464
  23708092.298    -1550590.981 7  -1202458.08645  23708092.641    23708101.1714
  20521906.395   -25098542.459 9 -12851095.41948  20521905.790    20521912.1734
  20623809.670   -17661756.416 9 -13323262.06648  20623809.304    20623816.1694
 01  7 19  1 18  0.0000000  0  5 22 13 04 20 01
  21149319.873   -12423666.683 8  -9668113.70647  21149319.221    21149327.3214
  22499683.348   -11609720.599 8  -8402824.32946  22499683.273    22499689.3244
  23703857.117    -1572848.530 8  -1219801.64045  23703857.289    23703866.3694
  20530405.024   -25053882.128 9 -12816295.17448  20530404.397    20530410.7224
  20620082.632   -17681342.699 9 -13338524.10548  20620082.294    20620088.9494
 01  7 19  1 18 30.0000000  0  5 22 13 04 20 01
  21143164.077   -12456016.719 9  -9693321.48147  21143163.313    21143171.1014
  22486123.268   -11680979.128 8  -8458350.40146  22486123.221    22486129.4454
  23699725.974    -1594562.850 7  -1236721.88345  23699725.909    23699734.6744
  20539002.598   -25008701.777 9 -12781089.74848  20539001.955    20539008.2244
  20616400.307   -17700693.964 9 -13353603.00348  20616399.913    20616406.6634
 01  7 19  1 19  0.0000000  0  5 22 13 04 20 01
  21137125.010   -12487751.997 9  -9718050.25547  21137124.333    21137131.8684
  22472586.267   -11752115.111 8  -8513780.97746  22472586.353    22472592.5784
  23695697.658    -1615732.331 7  -1253217.52545  23695697.831    23695705.7274
  20547699.051   -24963001.348 9 -12745479.04848  20547698.395    20547704.7714
  20612762.826   -17719808.802 9 -13368497.67048  20612762.471    20612769.2824
 01  7 19  1 19 30.0000000  0  5 22 13 04 20 01
  21131203.623   -12518870.192 9  -9742298.16447  21131202.743    21131210.0574
  22459073.002   -11823126.832 8  -8569114.72946  22459073.078    22459079.4974
  23691773.595    -1636355.928 7  -1269287.81145  23691773.337    23691780.5454
  20556494.461   -24916780.927 9 -12709463.15348  20556493.816    20556500.3084
  20609170.726   -17738686.199 9 -13383207.30348  20609170.248    20609176.9524
 01  7 19  1 20  0.0000000  0  5 22 13 04 20 01
  21125399.808   -12549368.708 9  -9766063.22247  21125398.981    21125406.2594
  22445583.561   -11894012.483 8  -8624350.24946  22445583.846    22445590.5264
  23687952.623    -1656431.947 7  -1284931.44045  23687952.343    23687960.4754
  20565388.983   -24870040.185 9 -12673041.81348  20565388.358    20565394.8214
  20605623.848   -17757324.294 9 -13397730.48748  20605623.464    20605630.2914
 01  7 19  1 20 30.0000000  0  5 22 13 04 20 01
  21119714.314   -12579245.947 9  -9789344.13547  21119713.477    21119720.9754
  22432118.753   -11964771.213 8  -8679486.87146  22432118.828    22432125.7454
  23684235.908    -1675959.445 7  -1300147.66445  23684236.223    23684244.5274
  20574382.522   -24822779.523 9 -12636215.34548  20574381.772    20574388.1924
  20602122.739   -17775722.319 9 -13412066.58748  20602122.368    20602129.3504
 01  7 19  1 21  0.0000000  0  5 22 13 04 20 01
  21114146.807   -12608503.188 9  -9812141.93147  21114146.031    21114153.4374
  22418677.635   -12035405.579 8  -8734526.56246  22418677.533    22418684.2014
  23680624.525    -1694941.815 7  -1314939.06045  23680624.564    23680632.7354
  20583473.948   -24775002.848 9 -12598986.80348  20583473.328    20583479.7984
  20598666.826   -17793883.251 9 -13426217.93848  20598666.430    20598673.4624
 01  7 19  1 21 30.0000000  0  5 22 13 04 20 01
  21108697.942   -12637137.015 9  -9834453.99147  21108697.203    21108704.5174
  22405260.432   -12105913.585 8  -8789467.82046  22405260.341    22405266.9004
  23677116.020    -1713376.526 7  -1329303.66545  23677116.195    23677124.6144
  20592663.850   -24726709.446 9 -12561355.61348  20592663.266    20592669.7504
  20595256.527   -17811804.696 9 -13440182.68448  20595256.121    20595263.1544
 01  7 19  1 22  0.0000000  0  5 22 13 04 20 01
  21103368.134   -12665145.765 9  -9856278.96547  21103367.313    21103374.6494
  22391867.565   -12176293.708 8  -8844309.43446  22391867.433    22391874.1034
  23673712.328    -1731263.077 7  -1343241.16445  23673712.420    23673721.0884
  20601952.085   -24677899.686 9 -12523322.05748  20601951.495    20601957.9194
  20591892.000   -17829485.642 9 -13453960.03448  20591891.570    20591898.6134
 01  7 19  1 22 30.0000000  0  5 22 13 04 20 01
  21098157.403   -12692529.349 9  -9877616.80347  21098156.480    21098163.7424
  22378498.716   -12246546.461 8  -8899051.81046  22378498.718    22378505.4494
  23670413.109    -1748602.067 7  -1356751.99245  23670412.755    23670421.7634
  20611338.194   -24628575.341 9 -12484887.53548  20611337.598    20611344.0234
  20588573.117   -17846926.607 9 -13467550.38948  20588572.678    20588579.6984
 01  7 19  1 23  0.0000000  0  5 22 13 04 20 01
  21093065.500   -12719285.207 8  -9898465.49747  21093064.665    21093072.0854
  22365154.501   -12316670.091 8  -8953693.54346  22365154.496    22365161.2514
  23667217.965    -1765392.099 7  -1369835.11545  23667216.978    23667227.2454
  20620822.229   -24578736.523 9 -12446052.10548  20620821.642    20620828.1404
  20585300.206   -17864126.126 9 -13480952.58848  20585299.773    20585306.7404
 01  7 19  1 23 30.0000000  0  5 22 13 04 20 01
  21088094.071   -12745409.748 9  -9918822.23847  21088093.296    21088100.7744
  22351835.311   -12386662.210 8  -9008232.78246  22351835.257    22351842.1884
  23664127.595    -1781631.191 7  -1382488.97245  23664127.253    23664135.7674
  20630404.384   -24528382.330 9 -12406815.10148  20630403.738    20630410.3644
  20582073.778   -17881082.002 9 -13494164.95148  20582073.277    20582080.2534
 01  7 19  1 24  0.0000000  0  5 22 13 04 20 01
  21083242.597   -12770905.809 9  -9938689.25847  21083241.795    21083249.1864
  22338540.388   -12456526.258 8  -9062672.25146  22338540.320    22338547.4084
  23661141.895    -1797323.297 7  -1394716.55145  23661142.052    23661149.4044
  20640083.848   -24477517.769 9 -12367180.40748  20640083.078    20640089.4744
  20578892.741   -17897797.990 9 -13507190.39748  20578892.270    20578899.3884
 01  7 19  1 24 30.0000000  0  5 22 13 04 20 01
  21078511.134   -12795770.573 9  -9958064.38647  21078510.251    21078517.4764
  22325270.261   -12526260.035 8  -9117010.20746  22325270.248    22325277.5124
  23658258.746    -1812466.487 7  -1406516.45545  23658259.490    23658267.9204
  20649860.301   -24426141.964 9 -12327147.33548  20649859.619    20649865.9924
  20575757.769   -17914271.753 9 -13520027.09948  20575757.300    20575764.5304
 01  7 19  1 25  0.0000000  0  5 22 13 04 20 01
  21073900.002   -12820000.650 8  -9976944.93847  21073899.243    21073906.4394
  22312025.878   -12595859.813 8  -9171243.76046  22312025.846    22312033.1554
  23655481.286    -1827058.069 7  -1417886.46945  23655482.221    23655491.3704
  20659734.396   -24374253.372 9 -12286714.69548  20659733.744    20659740.0074
  20572669.599   -17930500.260 9 -13532672.67948  20572669.117    20572676.3424
 01  7 19  1 25 30.0000000  0  5 22 13 04 20 01
  21069409.527   -12843597.616 8  -9995332.15447  21069408.742    21069416.0074
  22298806.628   -12665328.919 8  -9225375.47246  22298806.397    22298813.5394
  23652809.804    -1841101.309 7  -1428829.12345  23652810.477    23652819.2224
  20669705.195   -24321856.568 9 -12245886.03448  20669704.481    20669710.7114
  20569627.486   -17946486.431 9 -13545129.43848  20569627.004    20569634.2294
 01  7 19  1 26  0.0000000  0  5 22 13 04 20 01
  21065039.201   -12866562.652 9 -10013226.98247  21065038.497    21065046.1144
  22285611.500   -12734669.258 8  -9279406.84946  22285611.362    22285618.2524
  23650241.905    -1854598.648 7  -1439346.54645  23650242.668    23650250.4984
  20679771.993   -24268955.217 9 -12204664.22848  20679771.322    20679777.5244
  20566631.029   -17962232.348 9 -13557398.98848  20566630.558    20566637.8274
 01  7 19  1 26 30.0000000  0  5 22 13 04 20 01
  21060790.570   -12888890.748 9 -10030625.47547  21060789.868    21060797.2134
  22272441.696   -12803875.845 8  -9333334.02546  22272441.769    22272448.4084
  23647777.824    -1867546.059 7  -1449435.36745  23647778.564    23647785.8674
  20689935.458   -24215546.237 9 -12163046.87648  20689934.766    20689941.0424
  20563681.133   -17977733.569 9 -13569477.86048  20563680.750    20563687.9554
 01  7 19  1 27  0.0000000  0  5 22 13 04 20 01
  21056662.993   -12910581.267 9 -10047527.15347  21056662.286    21056669.5944
  22259297.782   -12872948.350 8  -9387156.68746  22259297.729    22259304.3104
  23645417.687    -1879943.533 7  -1459095.75245  23645418.898    23645426.6924
  20700195.094   -24161630.958 9 -12121034.98548  20700194.493    20700200.8634
  20560777.966   -17992989.769 9 -13581365.80548  20560777.580    20560784.7154
 01  7 19  1 27 30.0000000  0  5 22 13 04 20 01
  21052657.127   -12931632.399 9 -10063930.60447  21052656.349    21052663.6904
  22246179.215   -12941885.347 8  -9440873.78746  22246179.261    22246185.7694
  23643163.874    -1891790.468 7  -1468327.13945  23643164.666    23643172.8094
  20710551.287   -24107209.766 9 -12078628.88748  20710550.604    20710556.9524
  20557921.685   -18007999.982 9 -13593062.06948  20557921.277    20557928.3194
 01  7 19  1 28  0.0000000  0  5 22 13 04 20 01
  21048772.674   -12952045.239 9 -10079836.71447  21048771.978    21048779.2454
  22233086.334   -13010688.864 8  -9494486.87446  22233086.355    22233092.6754
  23641014.491    -1903089.573 7  -1477131.60445  23641014.559    23641022.7734
  20721002.760   -24052286.668 9 -12035831.70448  20721002.099    20721008.5624
  20555111.818   -18022766.280 9 -13604568.28548  20555111.392    20555118.3214
 01  7 19  1 28 30.0000000  0  5 22 13 04 20 01
  21045010.118   -12971817.894 8 -10095243.94447  21045009.314    21045016.6454
  22220019.271   -13079357.347 8  -9547994.71546  22220019.221    22220025.1624
  23638969.008    -1913839.792 7  -1485508.46945  23638968.631    23638976.8694
  20731549.722   -23996861.805 9 -11992643.53447  20731549.037    20731555.5554
  20552348.555   -18037287.354 9 -13615883.40348  20552348.135    20552355.0464
 01  7 19  1 29  0.0000000  0  5 22 13 04 20 01
  21041369.177   -12990949.669 8 -10110151.81947  21041368.424    21041375.9094
  22206978.205   -13147890.415 8  -9601397.02346  22206978.038    22206983.7344
  23637028.213    -1924041.605 7  -1493457.85345  23637027.825    23637035.5704
  20742191.799   -23940936.304 9 -11949065.25447  20742191.160    20742197.8734
  20549632.182   -18051562.713 9 -13627007.06048  20549631.696    20549638.5454
 01  7 19  1 29 30.0000000  0  5 22 13 04 20 01
  21037850.785   -13009438.868 9 -10124558.96647  21037850.049    21037857.5114
  22193962.699   -13216286.164 8  -9654692.34546  22193962.689    22193968.4444
  23635192.874    -1933693.606 7  -1500978.97145  23635192.167    23635198.7964
  20752929.217   -23884510.510 9 -11905097.13647  20752928.616    20752935.3024
  20546962.779   -18065590.773 9 -13637938.01248  20546962.264    20546969.1644
 01  7 19  1 30  0.0000000  0  5 22 13 04 20 01
  21034454.927   -13027284.785 9 -10138464.85747  21034454.150    21034461.3964
  22180973.474   -13284544.517 8  -9707880.63946  22180973.611    22180979.3224
  23633459.540    -1942796.636 7  -1508072.28544  23633458.630    23633466.6164
  20763761.766   -23827586.098 9 -11860740.48148  20763761.147    20763767.6174
  20544340.180   -18079371.786 9 -13648676.44948  20544339.760    20544346.7514
 01  7 19  1 30 30.0000000  0  5 22 13 04 20 01
  21031182.184   -13044482.846 9 -10151865.91647  21031181.416    21031188.7824
  22168011.234   -13352661.390 8  -9760958.68046  22168011.316    22168017.0874
  23631831.639    -1951347.830 7  -1514735.53244  23631831.014    23631839.8804
  20774689.568   -23770161.135 9 -11815993.79947  20774688.842    20774695.2534
  20541765.506   -18092901.975 9 -13659219.44448  20541765.102    20541771.8824
 01  7 19  1 31  0.0000000  0  5 22 13 04 20 01
  21028032.468   -13061035.580 9 -10164764.14847  21028031.607    21028038.8534
  22155075.370   -13420639.659 8  -9813928.70946  22155075.420    22155081.0554
  23630308.922    -1959350.573 7  -1520971.38744  23630308.048    23630316.9534
  20785711.528   -23712240.144 9 -11770860.59947  20785710.842    20785717.2924
  20539238.034   -18106184.164 9 -13669569.19148  20539237.612    20539244.3684
 01  7 19  1 31 30.0000000  0  5 22 13 04 20 01
  21025005.441   -13076943.215 9 -10177159.71647  21025004.542    21025011.8974
  22142166.105   -13488479.130 8  -9866790.60146  22142166.157    22142171.4634
  23628890.022    -1966805.477 7  -1526780.28544  23628889.489    23628897.6444
  20796827.408   -23653824.857 9 -11725342.21647  20796826.856    20796833.2914
  20536757.556   -18119218.505 9 -13679725.81248  20536757.099    20536764.0514
 01  7 19  1 32  0.0000000  0  5 22 13 04 20 01
  21022101.325   -13092203.102 9 -10189050.50347  21022100.533    21022108.0264
  22129283.368   -13556177.524 8  -9919542.54846  22129283.516    22129288.8304
  23627575.489    -1973711.092 7  -1532161.23844  23627575.022    23627583.6724
  20808037.614   -23594914.846 9 -11679438.34447  20808037.046    20808043.6094
  20534324.777   -18132002.703 9 -13689687.50548  20534324.333    20534331.2614
 01  7 19  1 32 30.0000000  0  5 22 13 04 20 01
  21019321.422   -13106811.615 9 -10200433.73547  21019320.607    21019328.1394
  22116428.194   -13623731.566 8  -9972182.00146  22116428.395    22116433.7504
  23626365.436    -1980065.137 7  -1537112.45544  23626365.496    23626374.8364
  20819342.073   -23535509.178 9 -11633148.23747  20819341.530    20819348.2584
  20531940.211   -18144533.977 9 -13699452.12848  20531939.814    20531946.6414
 01  7 19  1 33  0.0000000  0  5 22 13 04 20 01
  21016664.633   -13120773.292 9 -10211312.94247  21016663.766    21016671.0064
  22103599.797   -13691146.120 8 -10024712.76446  22103599.767    22103605.2034
  23625261.006    -1985873.319 7  -1541638.25344  23625261.151    23625269.2594
  20830739.624   -23475614.645 9 -11586477.20247  20830739.070    20830745.9644
  20529602.782   -18156817.205 9 -13709023.45048  20529602.322    20529609.2824
 01  7 19  1 33 30.0000000  0  5 22 13 04 20 01
  21014130.721   -13134088.239 9 -10221688.22547  21014129.861    21014137.0524
  22090797.650   -13758421.050 8 -10077134.74146  22090797.719    22090803.3664
  23624259.998    -1991136.685 7  -1545739.47944  23624259.934    23624267.8754
  20842230.002   -23415233.003 9 -11539426.60947  20842229.405    20842236.2394
  20527312.491   -18168852.420 9 -13718401.52548  20527312.097    20527318.9354
 01  7 19  1 34  0.0000000  0  5 22 13 04 20 01
  21011721.167   -13146751.039 9 -10231555.34747  21011720.348    21011727.4204
  22078023.241   -13825550.463 8 -10129443.32146  22078023.263    22078028.9864
  23623362.985    -1995850.251 7  -1549412.43444  23623362.756    23623370.2994
  20853813.769   -23354360.576 9 -11491993.58047  20853813.135    20853819.9024
  20525070.686   -18180634.147 9 -13727582.08848  20525070.199    20525076.8394
 01  7 19  1 34 30.0000000  0  5 22 13 04 20 01
  21009435.398   -13158763.580 9 -10240915.75747  21009434.551    21009441.5904
  22065275.874   -13892536.370 8 -10181640.08946  22065276.058    22065282.0434
  23622570.259    -2000017.225 6                  23622569.865    23622577.0844
  20865489.927   -23293001.559 9 -11444181.40047  20865489.372    20865496.0244
  20522876.537   -18192164.735 9 -13736566.95648  20522876.048    20522882.6084
 01  7 19  1 35  0.0000000  0  4 22 13 20 01
  21007274.129   -13170121.621 9 -10249766.14447  21007273.178    21007280.5744
  22052556.852   -13959375.068 9 -10233722.15646  22052557.003    22052563.0834
  20877259.180   -23231154.391 9 -11395988.83647  20877258.545    20877265.0824
  20520730.843   -18203440.514 9 -13745353.27048  20520730.384    20520736.8884
 01  7 19  1 35 30.0000000  0  4 22 13 20 01
  21005238.356   -13180819.223 9 -10258101.92247  21005237.447    21005244.9874
  22039867.034   -14026060.560 9 -10285684.83747  22039867.088    22039873.2704
  20889122.074   -23168814.841 9 -11347412.59947  20889121.412    20889127.9614
  20518634.619   -18214455.620 9 -13753936.45648  20518634.225    20518640.8214
 01  7 19  1 36  0.0000000  0  4 22 13 20 01
  21003325.893   -13190868.622 9 -10265932.63047  21003325.081    21003332.5274
  22027204.164   -14092604.198 8 -10337536.98047  22027204.154    22027210.4624
  20901075.949   -23105996.872 9 -11298463.55847  20901075.287    20901081.8534
  20516585.912   -18225221.938 9 -13762325.78348  20516585.454    20516592.1204
 01  7 19  1 36 30.0000000  0  4 22 13 20 01
  21001537.829   -13200265.853 9 -10273255.14347  21001536.949    21001544.0934
  22014568.872   -14159002.015 9 -10389275.49547  22014569.111    22014575.3664
  20913121.064   -23042698.383 9 -11249140.10247  20913120.478    20913127.2304
  20514585.133   -18235735.534 9 -13770518.17748  20514584.669    20514591.4164
 01  7 19  1 37  0.0000000  0  4 22 13 20 01
  20999873.398   -13209011.365 9 -10280069.81347  20999872.581    20999879.9654
  22001961.548   -14225254.619 9 -10440900.83947  22001961.709    22001968.0124
  20925257.295   -22978922.330 9 -11199444.51347  20925256.696    20925263.4434
  20512632.422   -18245997.234 9 -13778514.30448  20512631.940    20512638.7304
 01  7 19  1 37 30.0000000  0  4 22 13 20 01
  20998333.764   -13217101.391 9 -10286373.69647  20998332.957    20998340.6294
  21989382.479   -14291358.191 9 -10492410.09847  21989382.597    21989389.0504
  20937484.860   -22914667.090 9 -11149375.54447  20937484.161    20937490.8354
  20510728.071   -18256003.769 9 -13786311.59348  20510727.669    20510734.5544
 01  7 19  1 38  0.0000000  0  4 22 13 20 01
  20996918.793   -13224538.093 9 -10292168.53247  20996917.946    20996925.6334
  21976831.397   -14357314.541 9 -10543804.61847  21976831.506    21976838.0844
  20949802.849   -22849936.543 9 -11098936.18647  20949802.114    20949808.6284
  20508872.241   -18265756.770 9 -13793911.32848  20508871.774    20508878.6554
 01  7 19  1 38 30.0000000  0  4 22 13 20 01
  20995628.330   -13231319.799 9 -10297452.98147  20995627.459    20995634.9434
  21964308.852   -14423121.083 9 -10595082.40447  21964308.945    21964315.4714
  20962210.937   -22784730.598 9 -11048126.41047  20962210.274    20962216.9854
  20507064.810   -18275254.128 9 -13801311.85248  20507064.385    20507071.3284
 01  7 19  1 39  0.0000000  0  4 22 13 20 01
  20994462.389   -13237447.069 8 -10302227.44847  20994461.387    20994468.7674
  21951814.755   -14488778.253 9 -10646243.78947  21951814.875    21951821.3034
  20974708.949   -22719052.013 9 -10996948.34047  20974708.411    20974715.2944
  20505305.957   -18284496.554 9 -13808513.73748  20505305.572    20505312.4994
 01  7 19  1 39 30.0000000  0  4 22 13 20 01
  20993421.545   -13242915.797 9 -10306488.78147  20993420.667    20993428.0954
  21939349.884   -14554281.954 9 -10697285.58447  21939349.944    21939356.3634
  20987297.625   -22652899.017 9 -10945400.59247  20987296.957    20987303.7014
  20503596.424   -18293480.167 9 -13815513.93948  20503596.056    20503602.8744
 01  7 19  1 40  0.0000000  0  4 22 13 20 01
  20992505.655   -13247729.822 9 -10310239.96547  20992504.761    20992512.0864
  21926913.728   -14619635.586 9 -10748210.44847  21926913.713    21926919.9134
  20999975.183   -22586277.440 9 -10893487.72747  20999974.600    20999981.3964
  20501935.197   -18302208.633 9 -13822315.32348  20501934.926    20501941.8244
 01  7 19  1 40 30.0000000  0  4 22 13 20 01
  20991714.313   -13251886.912 9 -10313479.22947  20991713.509    20991721.0364
  21914506.578   -14684836.115 9 -10799016.02147  21914506.533    21914512.5574
  21012742.014   -22519186.536 9 -10841209.14347  21012741.492    21012748.4304
  20500323.335   -18310679.088 9 -13828915.67948  20500323.011    20500329.9994
 01  7 19  1 41  0.0000000  0  4 22 13 20 01
  20991048.784   -13255383.522 9 -10316203.86947  20991048.020    20991055.5554
  21902129.218   -14749879.349 9 -10849699.02947  21902129.261    21902135.1134
  21025598.648   -22451624.319 9 -10788563.29547  21025598.211    21025605.2384
  20498761.563   -18318887.701 9 -13835312.01148  20498761.123    20498767.9304
 01  7 19  1 41 30.0000000  0  4 22 13 20 01
  20990508.779   -13258221.136 9 -10318414.98747  20990508.043    20990515.6224
  21889781.452   -14814766.680 9 -10900260.53847  21889781.560    21889787.3684
  21038544.538   -22383594.697 9 -10735553.26347  21038543.969    21038550.9354
  20497248.905   -18326836.117 9 -13841505.57348  20497248.490    20497255.3694
 01  7 19  1 42  0.0000000  0  4 22 13 20 01
  20990093.994   -13260401.945 9 -10320114.29847  20990093.161    20990100.4944
  21877463.136   -14879500.107 9 -10950702.11147  21877463.107    21877468.9344
  21051578.321   -22315102.097 9 -10682182.43247  21051577.746    21051584.6494
  20495785.414   -18334526.476 9 -13847498.05548  20495784.993    20495791.9754
 01  7 19  1 42 30.0000000  0  4 22 13 20 01
  20989804.133   -13261924.958 9 -10321301.04047  20989803.352    20989810.7424
  21865174.341   -14944077.798 9 -11001022.37547  21865174.395    21865180.1294
  21064700.164   -22246146.793 9 -10628451.07947  21064699.601    21064706.4384
  20494371.470   -18341957.261 9 -13853288.29348  20494371.012    20494377.8294
 01  7 19  1 43  0.0000000  0  4 22 13 20 01
  20989639.917   -13262788.021 9 -10321973.55747  20989639.115    20989646.4064
  21852915.786   -15008496.356 9 -11051218.63547  21852915.851    21852921.4704
  21077910.375   -22176728.278 9 -10574358.78147  21077909.717    21077916.3324
  20493007.472   -18349125.580 9 -13858874.01348  20493006.966    20493013.8284
 01  7 19  1 43 30.0000000  0  4 22 13 20 01
  20989601.114   -13262992.121 9 -10322132.59247  20989600.242    20989607.6674
  21840687.219   -15072756.333 8 -11101291.30747  21840687.377    21840693.0394
  21091207.708   -22106849.560 9 -10519907.88347  21091207.101    21091213.7654
  20491693.164   -18356032.090 9 -13864255.71148  20491692.706    20491699.5404
 01  7 19  1 44  0.0000000  0  4 22 13 20 01
  20989687.938   -13262536.492 9 -10321777.56247  20989687.052    20989694.4134
  21828488.955   -15136856.703 8 -11151239.59147  21828489.162    21828495.1744
  21104592.423   -22036512.172 9 -10465099.56747  21104591.865    21104598.5864
  20490428.914   -18362676.101 9 -13869432.87248  20490428.491    20490435.2094
 01  7 19  1 44 30.0000000  0  4 22 13 20 01
  20989900.296   -13261421.050 9 -10320908.38347  20989899.405    20989906.5584
  21816321.544   -15200796.680 8 -11201062.89647  21816321.576    21816327.7914
  21118064.377   -21965717.615 9 -10409935.02447  21118063.759    21118070.4604
  20489214.846   -18369056.986 9 -13874405.00048  20489214.352    20489221.0084
 01  7 19  1 45  0.0000000  0  4 22 13 20 01
  20990237.831   -13259646.492 9 -10319525.59947  20990236.902    20990244.1124
  21804184.305   -15264575.720 8 -11250760.84047  21804184.608    21804190.9804
  21131622.689   -21894468.139 9 -10354416.01147  21131622.142    21131628.8224
  20488050.646   -18375174.736 9 -13879172.09148  20488050.158    20488056.7864
 01  7 19  1 45 30.0000000  0  4 22 13 20 01
  20990700.835   -13257212.703 9 -10317629.11747  20990699.971    20990706.9644
  21792078.480   -15328192.777 9 -11300332.55747  21792078.747    21792085.0484
  21145267.213   -21822764.940 9 -10298543.40847  21145266.726    21145273.5114
  20486936.687   -18381028.341 9 -13883733.34948  20486936.179    20486942.8424
 01  7 19  1 46  0.0000000  0  4 22 13 20 01
  20991288.822   -13254122.609 9 -10315221.26547  20991288.003    20991295.0374
  21780003.101   -15391650.302 9 -11349779.94947  21780003.237    21780009.4594
  21158997.357   -21750613.441 9 -10242321.51247  21158996.841    21159003.5064
  20485872.441   -18386620.755 9 -13888091.07148  20485872.016    20485878.7114
 01  7 19  1 46 30.0000000  0  4 22 13 20 01
  20992002.486   -13250373.461 9 -10312299.84347  20992001.550    20992008.6414
  21767958.530   -15454945.051 9 -11399100.50947  21767958.726    21767964.7744
  21172813.039   -21678012.815 9 -10185749.65247  21172812.387    21172818.9324
  20484858.539   -18391948.915 9 -13892242.88748  20484858.068    20484864.7764
 01  7 19  1 47  0.0000000  0  4 22 13 20 01
  20992841.009   -13245966.166 9 -10308865.56847  20992840.110    20992847.2384
  21755945.009   -15518076.741 8 -11448293.99147  21755945.103    21755951.2654
  21186713.410   -21604965.448 9 -10128829.68047  21186712.844    21186719.4624
  20483894.822   -18397012.926 9 -13896188.88648  20483894.395    20483901.1744
 01  7 19  1 47 30.0000000  0  4 22 13 20 01
  20993805.246   -13240898.468 9 -10304916.71447  20993804.392    20993811.4954
  21743963.037   -15581041.759 9 -11497357.61447  21743963.297    21743969.3724
  21200699.180   -21531470.334 9 -10071560.81947  21200698.562    21200705.2204
  20482982.079   -18401809.413 9 -13899926.40548  20482981.677    20482988.4034
 01  7 19  1 48  0.0000000  0  4 22 13 20 01
  20994894.881   -13235172.169 9 -10300454.66247  20994894.007    20994901.1654
  21732012.988   -15643840.921 9 -11546292.00747  21732013.170    21732019.0514
  21214769.372   -21457530.963 9 -10013945.78447  21214768.791    21214775.5274
  20482120.132   -18406339.418 9 -13903456.27448  20482119.674    20482126.3654
 01  7 19  1 48 30.0000000  0  4 22 13 20 01
  20996109.919   -13228786.701 9 -10295478.98647  20996109.136    20996116.4024
  21720094.605   -15706473.213 9 -11595096.35647  21720094.731    21720100.5074
  21228924.120   -21383148.995 9  -9955985.85247  21228923.412    21228930.2274
  20481308.893   -18410602.434 9 -13906778.10148  20481308.465    20481315.1334
 01  7 19  1 49  0.0000000  0  4 22 13 20 01
  20997450.299   -13221743.212 9 -10289990.55547  20997449.558    20997456.6784
  21708207.892   -15768938.970 9 -11643770.94347  21708207.940    21708213.6174
  21243162.089   -21308327.406 9  -9897683.35447  21243161.455    21243168.3994
  20480548.304   -18414598.911 9 -13909892.23948  20480547.862    20480554.6854
 01  7 19  1 49 30.0000000  0  4 22 13 20 01
  20998915.776   -13214043.542 9 -10283990.80447  20998914.953    20998921.9414
  21696352.755   -15831238.298 9 -11692315.85147  21696352.807    21696358.3784
  21257483.470   -21233068.962 9  -9839040.46747  21257482.731    21257489.5724
  20479838.330   -18418329.514 9 -13912799.20848  20479837.893    20479844.8044
 01  7 19  1 50  0.0000000  0  4 22 13 20 01
  21000506.042   -13205686.117 9 -10277478.51947  21000505.223    21000512.3604
  21684530.020   -15893368.078 9 -11740728.65447  21684530.042    21684535.4324
  21271887.844   -21157373.720 9  -9780057.23247  21271887.079    21271893.7644
  20479179.482   -18421791.527 9 -13915496.87548  20479179.109    20479185.8814
 01  7 19  1 50 30.0000000  0  4 22 13 20 01
  21002221.952   -13196668.968 9 -10270452.16447  21002221.105    21002228.1794
  21672739.879   -15955325.775 9 -11789007.35447  21672739.834    21672745.2214
  21286375.186   -21081241.808 9  -9720733.70147  21286374.489    21286381.1154
  20478572.305   -18424982.657 9 -13917983.48148  20478571.920    20478578.7124
 01  7 19  1 51  0.0000000  0  4 22 13 20 01
  21004063.310   -13186993.104 9 -10262912.52147  21004062.410    21004069.3894
  21660982.357   -16017111.492 9 -11837152.04147  21660982.425    21660987.7424
  21300945.206   -21004676.157 9  -9661072.19347  21300944.473    21300951.0924
  20478016.598   -18427903.318 9 -13920259.30948  20478016.184    20478023.0084
 01  7 19  1 51 30.0000000  0  4 22 13 20 01
  21006029.763   -13176658.959 9 -10254859.95947  21006028.879    21006035.8744
  21649257.650   -16078724.404 9 -11885162.07047  21649257.731    21649263.1844
  21315597.365   -20927678.391 9  -9601073.96847  21315596.689    21315603.4774
  20477512.462   -18430552.910 9 -13922323.94248  20477512.043    20477518.8394
 01  7 19  1 52  0.0000000  0  4 22 13 20 01
  21008121.334   -13165666.567 9 -10246294.45947  21008120.521    21008127.5904
  21637566.239   -16140162.595 9 -11933035.96547  21637566.345    21637571.8464
  21330331.785   -20850249.512 9  -9540739.83247  21330331.079    21330337.8654
  20477060.098   -18432930.082 9 -13924176.28248  20477059.607    20477066.3544
 01  7 19  1 52 30.0000000  0  4 22 13 20 01
  21010337.989   -13154018.909 9 -10237218.35947  21010337.186    21010344.2734
  21625907.763   -16201427.954 9 -11980775.19247  21625907.926    21625913.3804
  21345147.209   -20772394.350 9  -9480073.53247  21345146.493    21345153.1284
  20476659.005   -18435036.764 9 -13925817.84048  20476658.594    20476665.4544
 01  7 19  1 53  0.0000000  0  4 22 13 20 01
  21012679.180   -13141715.427 9 -10227631.20547  21012678.436    21012685.6044
  21614282.486   -16262519.147 9 -12028378.67947  21614282.564    21614288.2134
  21360043.163   -20694114.401 9  -9419076.23547  21360042.511    21360049.3824
  20476309.773   -18436872.109 9 -13927247.97748  20476309.366    20476316.1854
 01  7 19  1 53 30.0000000  0  4 22 13 20 01
  21015145.413   -13128754.951 9 -10217532.16247  21015144.688    21015151.9244
  21602690.761   -16323433.645 9 -12075844.49947  21602690.819    21602696.5564
  21375019.924   -20615410.165 9  -9357748.31447  21375019.382    21375026.4494
  20476012.494   -18438434.256 9 -13928465.22848  20476012.002    20476018.9134
 01  7 19  1 54  0.0000000  0  4 22 13 20 01
  21017736.330   -13115140.852 9 -10206923.79947  21017735.454    21017742.5414
  21591132.485   -16384172.931 9 -12123173.76347  21591132.580    21591138.0554
  21390076.902   -20536285.819 9  -9296093.04847  21390076.278    21390083.4374
  20475766.730   -18439724.900 9 -13929470.92948  20475766.332    20475773.3624
 01  7 19  1 54 30.0000000  0  4 22 13 20 01
  21020451.304   -13100874.147 9 -10195806.88047  21020450.375    21020457.3094
  21579607.893   -16444736.288 9 -12170365.94747  21579607.898    21579613.2394
  21405213.231   -20456743.687 9  -9234112.22247  21405212.699    21405219.8514
  20475572.859   -18440743.600 9 -13930264.72948  20475572.416    20475579.5044
 01  7 19  1 55  0.0000000  0  4 22 13 20 01
  21023290.800   -13085952.318 9 -10184179.48047  21023289.819    21023296.8104
  21568116.960   -16505119.849 9 -12217418.04847  21568117.074    21568122.5444
  21420429.286   -20376783.143 9  -9171805.34947  21420428.726    21420435.8984
  20475431.430   -18441487.308 9 -13930844.23348  20475430.964    20475437.9194
 01  7 19  1 55 30.0000000  0  4 22 13 20 01
  21026255.545   -13070372.583 9 -10172039.44647  21026254.617    21026261.5514
  21556661.070   -16565320.250 9 -12264327.39847  21556661.304    21556666.5664
  21435724.966   -20296403.198 9  -9109171.67047  21435724.527    21435731.6254
  20475343.059   -18441952.286 9 -13931206.55248  20475342.575    20475349.4444
 01  7 19  1 56  0.0000000  0  6 22 27 13 04 20 01
  21029344.310   -13054140.196 8 -10159390.84047  21029343.349    21029350.4604
  23509088.714     -439060.89645                  23509089.326    23509099.8334
  21545239.622   -16625340.948 9 -12311096.74147  21545239.671    21545244.8324
  23685446.061                                    23685447.756    23685521.4464
  21451099.465   -20215610.400 9  -9046216.28947  21451098.903    21451105.8754
  20475306.949   -18442142.576 9 -13931354.83048  20475306.460    20475313.1114
 01  7 19  1 56 30.0000000  0  6 22 27 13 04 20 01
  21032557.368   -13037254.262 9 -10146232.96147  21032556.484    21032563.6304
  23493957.196     -658576.18417   -501022.76645  23493957.122    23493967.8834
  21533852.469   -16685178.796 9 -12357723.60347  21533852.674    21533858.0794
  23689114.092                                    23689112.479    23689111.6944
  21466552.321   -20134404.900 9  -8982939.33447  21466551.775    21466558.7904
  20475323.597   -18442055.593 9 -13931287.06248  20475323.099    20475329.5784
 01  7 19  1 57  0.0000000  0  6 22 27 13 04 20 01
  21035893.858   -13019721.326 9 -10132570.95447  21035892.964    21035900.1974
  23478859.186     -737922.201 7   -562850.74345  23478859.244    23478867.6214
  21522499.535   -16744838.556 9 -12404211.68547  21522499.743    21522505.3804
  23692872.068                                    23692873.255    23692882.9674
  21482082.315   -20052794.308 9  -8919346.72247  21482081.764    21482089.0924
  20475391.794   -18441696.470 9 -13931007.23448  20475391.352    20475397.9054
 01  7 19  1 57 30.0000000  0  6 22 27 13 04 20 01
  21039353.560   -13001541.333 9 -10118404.72047  21039352.629    21039359.8694
  23463793.383     -817095.640 8   -624544.22845  23463793.654    23463801.3704
  21511180.830   -16804319.306 9 -12450560.30447  21511180.970    21511186.4514
  23696732.547     -218588.58255                  23696730.295    23696739.6344
  21497688.991   -19970780.729 9  -8855440.08947  21497688.460    21497695.9874
  20475512.101   -18441064.705 9 -13930514.95048  20475511.668    20475518.2524
 01  7 19  1 58  0.0000000  0  6 22 27 13 04 20 01
  21042936.438   -12982712.498 8 -10103732.90247  21042935.599    21042942.8754
  23448760.766     -896093.728 7   -686101.05645  23448760.112    23448768.7354
  21499896.611   -16863617.758 9 -12496766.87047  21499896.791    21499902.2394
  23700681.865     -256943.72017   -202403.21045  23700678.562    23700690.8734
  21513372.491   -19888363.946 9  -8791219.28047  21513371.922    21513379.3804
  20475684.775   -18440157.303 9 -13929807.89148  20475684.378    20475690.9744
 01  7 19  1 58 30.0000000  0  6 22 27 13 04 20 01
  21046644.523   -12963226.316 9 -10088548.87147  21046643.672    21046650.8394
  23433762.587     -974906.174 8   -747513.28545  23433761.925    23433771.3414
  21488649.090   -16922723.071 9 -12542822.94247  21488649.218    21488654.9204
  23704728.456     -235659.693 7   -185818.32844  23704729.188    23704740.0724
  21529134.007   -19805536.220 9  -8726678.22647  21529133.541    21529140.8214
  20475911.991   -18438963.876 9 -13928877.97348  20475911.532    20475918.0384
 01  7 19  1 59  0.0000000  0  6 22 27 13 04 20 01
  21050476.571   -12943088.702 8 -10072857.22947  21050475.659    21050482.8264
  23418799.814    -1053537.393 8   -808784.28745  23418798.893    23418808.5204
  21477437.635   -16981639.192 9 -12588731.58747  21477437.849    21477443.6584
  23708876.109     -213869.060 7   -168838.66644  23708878.273    23708884.9034
  21544972.640   -19722304.497 9  -8661822.40847  21544972.126    21544979.3874
  20476192.709   -18437488.851 9 -13927728.61048  20476192.317    20476198.8214
 01  7 19  1 59 30.0000000  0  6 22 27 13 04 20 01
  21054431.432   -12922305.408 9 -10056662.46647  21054430.581    21054437.7454
  23403870.532    -1131992.177 8   -869917.78046  23403869.468    23403879.0724
  21466261.500   -17040370.660 9 -12634496.33947  21466261.637    21466267.3704
  23713119.458     -191578.639 7   -151469.52444  23713121.207    23713126.2034
  21560886.641   -19638676.435 9  -8596657.73147  21560886.069    21560893.3014
  20476526.050   -18435737.161 9 -13926363.65448  20476525.636    20476532.1704
 01  7 19  2  0  0.0000000  0  6 22 27 13 04 20 01
  21058509.691   -12900874.566 9 -10039963.12247  21058508.828    21058516.0934
  23388974.861    -1210267.658 8   -930911.58646  23388974.130    23388983.4554
  21455121.100   -17098913.850 9 -12680114.38647  21455121.239    21455126.9874
  23717456.372     -168787.802 7   -133710.30244  23717457.606    23717463.0564
  21576875.942   -19554651.438 8  -8531183.78047  21576875.380    21576882.6654
  20476912.701   -18433705.633 9 -13924780.65848  20476912.268    20476918.7254
 01  7 19  2  0 30.0000000  0  6 22 27 13 04 20 01
  21062711.188   -12878794.999 9 -10022758.26347  21062710.369    21062717.7244
  23374114.314    -1288361.331 8   -991763.76246  23374113.647    23374122.5364
  21444017.098   -17157265.771 9 -12725583.39847  21444017.216    21444022.9994
  23721888.388     -145495.409 7   -115560.42344  23721890.046    23721896.1674
  21592940.625   -19470229.837 8  -8465400.79447  21592940.139    21592947.5004
  20477352.970   -18431391.824 9 -13922977.70948  20477352.544    20477358.9774
 01  7 19  2  1  0.0000000  0  6 22 27 13 04 20 01
  21067035.776   -12856069.975 9 -10005050.45347  21067034.925    21067042.0584
  23359288.130    -1366274.410 8  -1052475.20846  23359287.452    23359295.9084
  21432949.224   -17215427.225 9 -12770903.98947  21432949.408    21432955.1424
  23726415.166     -121705.374 7    -97022.80344  23726416.446    23726424.2054
  21609080.395   -19385415.422 8  -8399311.71447  21609079.855    21609087.1874
  20477846.757   -18428796.878 9 -13920955.67748  20477846.292    20477852.8314
 01  7 19  2  1 30.0000000  0  6 22 27 13 04 20 01
  21071482.901   -12832699.932 9  -9986840.03347  21071482.046    21071489.0914
  23344496.527    -1444005.942 8  -1113045.15246  23344495.503    23344503.7344
  21421918.063   -17273396.737 9 -12816075.00647  21421918.194    21421923.8584
  23731037.132      -97418.250 7    -78097.86944  23731037.713    23731046.0404
  21625294.457   -19300209.957 8  -8332917.94647  21625293.970    21625301.4444
  20478394.141   -18425919.837 9 -13918713.83948  20478393.723    20478400.2894
 01  7 19  2  2  0.0000000  0  6 22 27 13 04 20 01
  21076052.780   -12808685.317 9  -9968127.36647  21076051.923    21076058.8454
  23329739.015    -1521555.513 8  -1173473.30946  23329738.159    23329746.5134
  21410923.568   -17331173.362 9 -12861095.75647  21410923.736    21410929.3194
  23735753.353      -72635.984 7    -58787.06845  23735753.850    23735762.6164
  21641582.695   -19214615.683 9  -8266221.18347  21641582.124    21641589.6404
  20478995.364   -18422760.102 9 -13916251.71248  20478994.937    20479001.6244
 01  7 19  2  2 30.0000000  0  6 22 27 13 04 20 01
  21080744.989   -12784028.282 8  -9948914.10347  21080744.025    21080751.1384
  23315015.935    -1598923.995 8  -1233760.37846  23315015.261    23315023.8244
  21399965.839   -17388757.435 9 -12905966.45347  21399965.952    21399971.4374
  23740563.459      -47361.473 7    -39092.64545  23740563.619    23740572.2764
  21657943.935   -19128636.108 9  -8199224.17947  21657943.368    21657951.1154
  20479650.190   -18419318.216 9 -13913569.71448  20479649.853    20479656.6804
 01  7 19  2  3  0.0000000  0  6 22 27 13 04 20 01
  21085559.369   -12758727.705 9  -9929199.36747  21085558.522    21085565.7824
  23300328.154    -1676108.576 8  -1293904.14146  23300327.469    23300336.1564
  21389045.286   -17446145.494 9 -12950684.39447  21389045.362    21389050.8854
  23745466.739      -21593.780 7    -19013.93045  23745467.195    23745475.2614
  21674378.636   -19042271.087 9  -8131926.81647  21674378.189    21674385.9144
  20480359.417   -18415591.493 9 -13910665.77648  20480359.052    20480365.8304
 01  7 19  2  3 30.0000000  0  6 22 27 13 04 20 01
  21090496.018   -12732785.350 9  -9908984.54147  21090495.184    21090502.3894
  23285675.313    -1753109.112 8  -1353904.44746  23285674.663    23285683.3154
  21378162.098   -17503337.089 9 -12995249.26147  21378162.236    21378167.6784
  23750463.887        4665.157 7      1447.55045  23750463.786    23750471.7924
  21690886.792   -18955522.969 9  -8064330.95747  21690886.161    21690893.5464
  20481122.924   -18411579.682 9 -13907539.67348  20481122.504    20481129.2824
 01  7 19  2  4  0.0000000  0  6 22 27 13 04 20 01
  21095554.576   -12706202.651 9  -9888270.75747  21095553.822    21095560.7494
  23271057.137    -1829925.682 8  -1413761.42846  23271056.773    23271065.3784
  21367316.747   -17560331.431 9 -13039660.40747  21367316.724    21367322.0754
  23755554.153       31412.971 7     22289.94045  23755553.712    23755561.7054
  21707466.943   -18868394.918 9  -7996439.01947  21707466.274    21707473.5344
  20481940.560   -18407282.865 9 -13904191.49948  20481940.138    20481946.8124
 01  7 19  2  4 30.0000000  0  6 22 27 13 04 20 01
  21100734.807   -12678980.768 9  -9867058.90847  21100733.946    21100740.8504
  23256474.312    -1906558.457 8  -1473475.15746  23256473.978    23256482.5484
  21356508.594   -17617128.175 9 -13083917.58847  21356508.607    21356514.1224
  23760736.651       58647.577 8     43511.69845  23760736.056    23760744.2814
  21724118.586   -18780889.409 9  -7928252.95247  21724117.976    21724125.2964
  20482812.557   -18402700.858 9 -13900621.10448  20482812.124    20482818.6594
 01  7 19  2  5  0.0000000  0  6 22 27 13 04 20 01
  21106036.368   -12651120.048 9  -9845349.25147  21106035.605    21106042.7014
  23241926.654    -1983006.231 8  -1533044.77446  23241926.370    23241934.8834
  21345738.391   -17673725.274 9 -13128019.20947  21345738.553    21345744.1334
  23766011.752       86368.118 8     65112.03545  23766011.192    23766019.7424
  21740841.818   -18693007.782 9  -7859773.83247  21740841.259    21740848.7474
  20483739.125   -18397832.300 9 -13896827.42848  20483738.653    20483745.1964
 01  7 19  2  5 30.0000000  0  6 22 27 13 04 20 01
  21111459.487   -12622622.534 9  -9823143.39447  21111458.661    21111465.6444
  23227414.373    -2059269.014 8  -1592470.22846  23227413.946    23227422.4744
  21335006.332   -17730122.508 9 -13171965.08247  21335006.413    21335011.9714
  23771378.553      114572.361 7     87089.28845  23771378.408    23771387.3694
  21757636.182   -18604752.898 9  -7791003.86047  21757635.692    21757643.2124
  20484719.914   -18392677.423 9 -13892810.63648  20484719.514    20484726.2974
 01  7 19  2  6  0.0000000  0  6 22 27 13 04 20 01
  21117003.057   -12593490.650 8  -9800443.25947  21117002.254    21117009.2554
  23212937.086    -2135347.467 8  -1651752.03246  23212936.698    23212945.2164
  21324312.053   -17786320.165 9 -13215755.43647  21324312.216    21324317.9414
  23776837.406      143257.310 7    109441.16045  23776837.048    23776845.9984
  21774501.130   -18516128.304 9  -7721945.78947  21774500.626    21774507.8394
  20485755.240   -18387236.504 9 -13888570.97148  20485754.817    20485761.7384
 01  7 19  2  6 30.0000000  0  6 22 27 13 04 20 01
  21122667.639   -12563722.219 8  -9777247.09847  21122666.872    21122673.9364
  23198495.404    -2211238.342 8  -1710887.69146  23198495.056    23198503.4854
  21313656.936   -17842313.709 9 -13259386.72747  21313656.972    21313662.6964
  23782387.572      172424.399 8    132168.75545  23782387.624    23782395.8194
  21791436.519   -18427133.159 8  -7652598.99347  21791435.893    21791443.1704
  20486845.661   -18381506.052 9 -13884105.68948  20486845.212    20486852.2794
 01  7 19  2  7  0.0000000  0  6 22 27 13 04 20 01
  21128452.759   -12533320.848 8  -9753557.70647  21128452.007    21128459.2914
  23184089.012    -2286943.888 8  -1769878.92046  23184088.779    23184097.1124
  21303040.146   -17898105.205 9 -13302860.58947  21303040.232    21303045.6764
  23788028.824      202068.984 7    155268.39545  23788028.652    23788036.5594
  21808441.245   -18337772.458 9  -7582967.34647  21808440.730    21808448.1754
  20487990.728   -18375488.271 9 -13879416.49848  20487990.389    20487997.3574
 01  7 19  2  7 30.0000000  0  6 22 27 13 04 20 01
  21134358.503   -12502286.280 9  -9729374.93947  21134357.768    21134364.9084
  23169718.408    -2362461.850 8  -1828723.95946  23169717.978    23169726.3724
  21292462.642   -17953691.266 9 -13346174.37047  21292462.655    21292467.7294
  23793760.476      232191.311 7    178740.30945  23793760.212    23793768.8024
  21825515.801   -18248046.652 9  -7513051.19447  21825515.140    21825522.3664
  20489191.046   -18369180.671 9 -13874501.49748  20489190.658    20489197.5934
 01  7 19  2  8  0.0000000  0  6 22 27 13 04 20 01
  21140384.204   -12470621.156 8  -9704700.81247  21140383.477    21140390.4774
  23155383.376    -2437792.643 8  -1887423.16946  23155382.862    23155391.0814
  21281924.111   -18009071.910 9 -13389328.08047  21281924.041    21281929.0324
  23799583.199      262788.465 7    202582.25145  23799582.941    23799591.4194
  21842659.058   -18157958.981 8  -7442853.07647  21842658.372    21842665.3684
  20490446.480   -18362583.837 9 -13869361.09048  20490446.019    20490452.8764
 01  7 19  2  8 30.0000000  0  6 22 27 13 04 20 01
  21146529.623   -12438326.893 8  -9679536.46647  21146528.843    21146535.9524
  23141084.199    -2512936.322 8  -1945976.56046  23141083.472    23141091.5274
  21271424.622   -18064246.666 9 -13432321.36647  21271424.619    21271429.5804
  23805495.685      293858.128 7    226792.36245  23805495.568    23805504.1044
  21859870.602   -18067512.330 9  -7372375.22847  21859869.887    21859876.7994
  20491756.908   -18355697.501 9 -13863995.12948  20491756.412    20491763.4054
 01  7 19  2  9  0.0000000  0  6 22 27 13 04 20 01
  21152794.729   -12405403.027 9  -9653881.48747  21152793.985    21152801.0314
  23126820.499    -2587891.040 8  -2004382.70546  23126819.806    23126828.0744
  21260964.882   -18119212.731 9 -13475152.02347  21260964.900    21260969.8254
  23811497.450      325400.242 7    251370.53045  23811497.714    23811506.2614
  21877150.128   -17976707.368 8  -7301618.16947  21877149.445    21877156.7164
  20493122.630   -18348519.598 9 -13858401.96248  20493122.196    20493129.3464
 01  7 19  2  9 30.0000000  0  6 22 27 13 04 20 01
  21159179.441   -12371851.832 9  -9627737.69247  21159178.705    21159185.5074
  23112592.736    -2662657.427 8  -2062642.13146  23112592.125    23112600.4684
  21250544.760   -18173970.541 9 -13517820.41847  21250544.774    21250549.7884
  23817589.042      357411.829 7    276314.55645  23817589.386    23817598.4534
  21894497.130   -17885547.475 8  -7230584.56547  21894496.515    21894504.1674
  20494544.033   -18341050.839 9 -13852582.15648  20494543.603    20494550.5854
 01  7 19  2 10  0.0000000  0  6 22 27 13 04 20 01
  21165683.315   -12337675.299 9  -9601106.63447  21165682.423    21165689.1264
  23098400.942    -2737235.316 8  -2120754.64746  23098400.321    23098408.7844
  21240164.434   -18228518.953 9 -13560325.63247  21240164.500    21240169.6354
  23823768.926      389890.650 7    301622.74045  23823769.519    23823779.2104
  21911911.413   -17794035.201 8  -7159276.37247  21911910.690    21911918.3034
  20496020.795   -18333290.678 9 -13846535.27748  20496020.400    20496027.1694
 01  7 19  2 10 30.0000000  0  6 22 27 13 04 20 01
  21172305.781   -12302873.332 8  -9573988.21647  21172304.879    21172311.9334
  23084245.199    -2811622.608 8  -2178718.68846  23084244.760    23084253.3374
  21229824.438   -18282855.196 9 -13602665.53047  21229824.499    21229829.8514
  23830038.214      422836.700 8    327294.95445  23830038.936    23830048.3064
  21929392.364   -17702171.297 8  -7087694.17047  21929391.748    21929399.3034
  20497553.540   -18325236.820 9 -13840259.53748  20497553.129    20497559.7454
 01  7 19  2 11  0.0000000  0  6 22 27 13 04 20 01
  21179046.762   -12267448.865 9  -9546384.74547  21179045.951    21179053.1624
  23070125.438    -2885820.871 8  -2236535.43346  23070125.225    23070133.7984
  21219524.658   -18336979.817 9 -13644840.54247  21219524.739    21219530.3114
  23836396.637      456246.110 8    353328.22445  23836397.015    23836405.1864
  21946939.849   -17609959.813 8  -7015841.14047  21946939.140    21946946.5214
  20499141.851   -18316890.674 9 -13833756.06048  20499141.370    20499147.8524
 01  7 19  2 11 30.0000000  0  6 22 27 13 04 20 01
  21185906.099   -12231404.527 9  -9518298.26647  21185905.183    21185912.2704
  23056041.630    -2959831.112 8  -2294205.67446  23056041.495    23056050.1084
  21209265.095   -18390893.427 9 -13686851.12147  21209265.162    21209270.8604
  23842842.062      490115.513 8    379719.91645  23842842.304    23842850.1964
  21964552.751   -17517404.795 8  -6943720.42047  21964551.907    21964559.1644
  20500785.413   -18308253.290 9 -13827025.64548  20500784.942    20500791.5454
 01  7 19  2 12  0.0000000  0  6 22 27 13 04 20 01
  21192882.967   -12194740.505 8  -9489728.92447  21192881.993    21192888.9054
  23041994.186    -3033651.584 8  -2351728.03146  23041993.930    23042002.1754
  21199046.013   -18444593.567 9 -13728695.36847  21199046.255    21199052.0934
  23849374.651      524444.220 8    406469.52545  23849374.831    23849383.2184
  21982230.475   -17424507.114 8  -6871332.67747  21982229.789    21982237.1874
  20502484.923   -18299322.594 9 -13820066.65848  20502484.396    20502491.1734
 01  7 19  2 12 30.0000000  0  6 22 27 13 04 20 01
  21199977.783   -12157456.417 9  -9460676.39647  21199976.931    21199983.7114
  23027983.049    -3107279.388 8  -2409100.26446  23027982.859    23027991.0024
  21188868.601   -18498076.655 9 -13770370.48647  21188868.751    21188874.6784
  23855994.665      559232.951 8    433577.56945  23855994.938    23856003.5334
  21999973.657   -17331266.671 9  -6798677.87747  21999973.015    21999980.4224
  20504240.642   -18290095.415 9 -13812876.66248  20504240.160    20504247.1384
 01  7 19  2 13  0.0000000  0  6 22 27 13 04 20 01
  21207190.127   -12119555.320 8  -9431143.06547  21207189.169    21207196.3184
  23014008.454    -3180715.914 8  -2466323.45746  23014008.314    23014016.6224
  21178732.290   -18551343.156 9 -13811876.81947  21178732.498    21178738.4614
  23862701.680      594477.835 8    461041.08345  23862701.945    23862710.3644
  22017781.167   -17237687.530 8  -6725759.13447  22017780.558    22017788.1844
  20506052.557   -18280573.079 9 -13805456.67348  20506052.096    20506059.1984
 01  7 19  2 13 30.0000000  0  6 22 27 13 04 20 01
  21214519.777   -12081037.383 9  -9401129.09147  21214518.924    21214526.0334
  23000070.825    -3253960.090 8  -2523396.73846  23000070.412    23000078.6914
  21168637.723   -18604391.165 9 -13853212.92247  21168637.837    21168643.6634
  23869494.910      630177.806 8    488859.25145  23869495.343    23869503.7364
  22035652.467   -17143771.228 8  -6652577.64446  22035652.026    22035659.7834
  20507921.089   -18270754.076 9 -13797805.51548  20507920.612    20507927.6684
 01  7 19  2 14  0.0000000  0  6 22 27 13 04 20 01
  21221966.659   -12041905.102 9  -9370636.42147  21221965.689    21221972.5584
  22986169.276    -3327012.587 8  -2580320.68746  22986168.827    22986177.3344
  21158584.446   -18657220.907 9 -13894378.95647  21158584.667    21158590.3864
  23876374.867      666329.841 8    517029.63145  23876375.118    23876383.1204
  22053587.635   -17049521.297 8  -6579136.20946  22053587.190    22053594.7634
  20509845.807   -18260639.128 9 -13789923.75048  20509845.369    20509852.4344
 01  7 19  2 14 30.0000000  0  6 22 27 13 04 20 01
  21229529.386   -12002161.637 8  -9339667.52347  21229528.444    21229535.6094
  22972304.136    -3399874.039 8  -2637095.78846  22972303.755    22972312.3584
  21148572.928   -18709831.940 9 -13935374.56747  21148573.088    21148578.6334
  23883340.076      702930.869 8    545549.87345  23883340.318    23883348.1394
  22071585.730   -16954941.170 8  -6505437.48846  22071585.150    22071592.7944
  20511826.804   -18250228.736 9 -13781811.76148  20511826.388    20511833.5274
 01  7 19  2 15  0.0000000  0  6 22 27 13 04 20 01
  21237208.673   -11961805.432 8  -9308221.13647  21237207.817    21237215.1254
  22958476.373    -3472540.630 8  -2693718.99546  22958475.758    22958484.0684
  21138603.818   -18762219.683 9 -13976196.17847  21138604.039    21138609.5914
  23890390.116      739982.250 8    574421.08345  23890390.707    23890398.8314
  22089646.775   -16860029.871 8  -6431480.69446  22089646.246    22089653.8534
  20513864.931   -18239518.700 9 -13773466.29048  20513864.517    20513871.6084
 01  7 19  2 15 30.0000000  0  6 22 27 13 04 20 01
  21245004.490   -11920838.278 9  -9276298.68647  21245003.670    21245010.9604
  22944685.131    -3545012.678 8  -2750190.60746  22944684.586    22944692.8094
  21128677.414   -18814383.606 9 -14016843.38547  21128677.641    21128683.2214
  23897526.050      777481.333 8    603641.08145  23897526.486    23897534.6714
  22107770.342   -16764790.383 8  -6357268.16446  22107769.759    22107777.2254
  20515959.947   -18228509.186 9 -13764887.45548  20515959.527    20515966.5584
 01  7 19  2 16  0.0000000  0  6 22 27 13 04 20 01
  21252915.923   -11879265.070 9  -9243903.97547  21252914.963    21252922.1984
  22930930.269    -3617293.468 8  -2806513.24246  22930929.858    22930938.0504
  21118793.164   -18866326.269 9 -14057318.17747  21118793.373    21118798.8944
  23904746.236      815422.296 8    633205.44145  23904746.418    23904754.7564
  22125955.350   -16669228.738 8  -6282804.61646  22125954.730    22125961.8264
  20518111.363   -18217203.019 9 -13756077.46648  20518110.988    20518117.9744
 01  7 19  2 16 30.0000000  0  6 22 27 13 04 20 01
  21260942.274   -11837086.006 8  -9211037.19347  21260941.347    21260948.5264
  22917212.276    -3689380.959 8  -2862685.24746  22917212.025    22917220.0044
  21108951.435   -18918044.800 9 -14097618.32247  21108951.677    21108957.1254
  23912050.177      853805.059 8    663114.06045  23912050.233    23912058.9324
  22144201.543   -16573345.718 8  -6208090.65046  22144200.838    22144207.8244
  20520319.661   -18205598.182 9 -13747034.74448  20520319.378    20520326.3454
 01  7 19  2 17  0.0000000  0  6 22 27 13 04 20 01
  21269083.849   -11794300.982 8  -9177698.22147  21269082.911    21269090.1134
  22903531.865    -3761272.681 8  -2918704.65846  22903531.385    22903539.3414
  21099152.975   -18969535.707 9 -14137741.08747  21099153.161    21099158.6464
  23919438.262      892629.386 8    693366.76945  23919438.198    23919447.1434
  22162508.912   -16477141.468 8  -6133126.38746  22162508.234    22162515.1114
  20522585.636   -18193691.766 9 -13737757.03748  20522585.239    20522592.0954
 01  7 19  2 17 30.0000000  0  6 22 27 13 04 20 01
  21277340.271   -11750913.345 8  -9143889.67947  21277339.324    21277346.3484
  22889888.379    -3832969.815 8  -2974572.45946  22889887.831    22889895.8674
  21089397.740   -19020799.459 9 -14177686.86247  21089397.993    21089403.5754
  23926909.711      931891.850 8    723960.80145  23926909.475    23926918.6094
  22180876.796   -16380620.152 8  -6057915.05946  22180875.879    22180882.6994
  20524908.516   -18181485.001 9 -13728245.27148  20524908.082    20524914.9334
 01  7 19  2 18  0.0000000  0  6 22 27 13 04 20 01
  21285711.068   -11706924.345 8  -9109612.57347  21285710.070    21285717.0774
  22876281.934    -3904472.091 8  -3030288.46746  22876281.221    22876289.3984
  21079685.994   -19071835.358 9 -14217455.08747  21079686.137    21079691.9554
  23934464.090      971590.163 8    754894.48045  23934463.915    23934472.6894
  22199303.662   -16283784.100 8  -5982458.46246  22199302.963    22199310.3184
  20527288.557   -18168977.374 9 -13718499.08648  20527288.174    20527295.1264
 01  7 19  2 18 30.0000000  0  6 22 27 13 04 20 01
  21294195.742   -11662335.359 8  -9074867.91047  21294195.085    21294202.1384
  22862712.115    -3975778.830 8  -3085852.08446  22862711.784    22862720.0384
  21070017.876   -19122641.139 9 -14257043.99447  21070018.110    21070024.1024
  23942101.149     1011722.466 8    786166.35145  23942100.818    23942109.5744
  22217790.366   -16186635.659 8  -5906758.46846  22217789.764    22217797.2824
  20529726.010   -18156168.164 9 -13708517.88648  20529725.617    20529732.5284
 01  7 19  2 19  0.0000000  0  6 22 27 13 04 20 01
  21302794.575   -11617149.487 8  -9039658.15647  21302793.773    21302800.8044
  22849179.783    -4046890.883 8  -3141263.98246  22849179.552    22849188.1284
  21060393.693   -19173217.014 9 -14296453.75047  21060393.833    21060399.8284
  23949820.097     1052285.555 8    817773.89545  23949819.964    23949828.5304
  22236336.012   -16089178.137 8  -5830817.60346  22236335.396    22236342.9194
  20532220.764   -18143057.819 9 -13698302.05048  20532220.370    20532227.2504
 01  7 19  2 19 30.0000000  0  6 22 27 13 04 20 01
  21311506.314   -11571368.441 8  -9003984.62147  21311505.602    21311512.7564
  22835685.009    -4117807.524 8  -3196523.60246  22835684.664    22835693.2544
  21050813.367   -19223561.613 9 -14335683.29547  21050813.555    21050819.6824
  23957621.081     1093277.762 8    849715.77345  23957620.714    23957628.9344
  22254939.498   -15991413.583 7  -5754637.49745  22254938.877    22254947.0504
  20534773.119   -18129645.251 9 -13687850.71548  20534772.752    20534779.4874
 01  7 19  2 20  0.0000000  0  6 22 27 13 04 20 01
  21320331.299   -11524992.299 8  -8967847.38647  21320330.632    21320337.9654
  22822227.757    -4188526.762 8  -3251629.43446  22822227.480    22822235.7284
  21041277.785   -19273672.078 9 -14374730.39647  21041277.866    21041283.8924
  23965502.963     1134698.231 8    881991.37745  23965502.759    23965510.9704
  22273601.045   -15893343.059 8  -5678218.97845  22273600.718    22273609.4994
  20537383.391   -18115928.469 9 -13677162.31548  20537382.966    20537389.7264
 01  7 19  2 20 30.0000000  0  6 22 27 13 04 20 01
  21329269.155   -11478024.333 8  -8931249.00547  21329268.415    21329275.8034
  22808808.018    -4259050.207 8  -3306582.69246  22808807.501    22808815.5454
  21031786.579   -19323549.109 9 -14413595.60347  21031786.697    21031792.4044
  23973465.892     1176542.942 8    914597.59345  23973465.594    23973473.9954
  22292320.884   -15794970.927 8  -5601565.47545  22292320.288    22292329.0464
  20540051.141   -18101908.676 9 -13666237.80648  20540050.789    20540057.5654
 01  7 19  2 21  0.0000000  0  6 22 27 13 04 20 01
  21338319.269   -11430466.769 9  -8894191.16647  21338318.459    21338325.7534
  22795425.017    -4329377.900 8  -3361383.40746  22795424.417    22795432.5634
  21022339.975   -19373191.554 9 -14452278.01947  21022340.057    21022345.5754
  23981509.089     1218809.613 8    947532.58945  23981508.887    23981517.3054
  22311098.052   -15696299.845 8  -5524679.02745  22311097.018    22311105.2994
  20542776.679   -18087585.712 9 -13655077.06148  20542776.362    20542783.1164
 01  7 19  2 21 30.0000000  0  6 22 27 13 04 20 01
  21347481.217   -11382321.605 8  -8856675.45447  21347480.327    21347487.4614
  22782079.081    -4399509.197 8  -3416031.12146  22782078.686    22782086.8514
  21012938.148   -19422598.126 9 -14490776.63347  21012938.315    21012943.7844
  23989631.970     1261496.137 7    980794.72545  23989631.645    23989640.5464
  22329931.201   -15597332.139 8  -5447561.43845  22329930.021    22329938.2494
  20545560.185   -18072958.716 9 -13643679.40748  20545559.835    20545566.6194
 01  7 19  2 22  0.0000000  0  6 22 27 13 04 20 01
  21356754.833   -11333588.723 8  -8818701.79847  21356753.828    21356761.0804
  22768771.166    -4469441.500 8  -3470523.74546  22768770.868    22768778.9644
  21003581.953   -19471765.525 9 -14529088.87547  21003582.142    21003587.5354
  23997834.375     1304602.641 8   1014384.07945  23997834.305    23997843.5834
  22348820.269   -15498068.011 8  -5370212.84945  22348819.353    22348827.8214
  20548401.999   -18058024.918 9 -13632042.69548  20548401.617    20548408.2904
 01  7 19  2 22 30.0000000  0  6 22 27 13 04 20 01
  21366139.663   -11284270.566 8  -8780272.07447  21366138.710    21366145.9994
  22755500.966    -4539175.463 8  -3524861.84046  22755500.844    22755508.9964
  20994271.369   -19520693.027 9 -14567214.19347  20994271.558    20994276.9624
  24006116.938     1348125.522 8   1048297.95445  24006116.761    24006125.6774
  22367765.978   -15398510.866 8  -5292635.98845  22367764.927    22367773.0014
  20551302.112   -18042784.825 9 -13620167.30948  20551301.720    20551308.3164
 01  7 19  2 23  0.0000000  0  6 22 27 13 04 20 01
  21375635.589   -11234370.378 9  -8741388.82747  21375634.566    21375641.6374
  22742268.774    -4608712.555 8  -3579046.51246  22742268.465    22742276.5584
  20985006.357   -19569381.414 9 -14605153.18147  20985006.433    20985011.9254
  24014477.814     1392061.313 8   1082533.58545  24014477.542    24014486.0904
  22386766.424   -15298664.969 8  -5214834.06645  22386765.275    22386773.4124
  20554260.429   -18027239.372 9 -13608053.96548  20554260.071    20554266.5384
 01  7 19  2 23 30.0000000  0  6 22 27 13 04 20 01
  21385241.644   -11183889.762 8  -8702053.29447  21385240.666    21385247.7934
  22729074.029    -4678051.777 8  -3633076.98846  22729073.570    22729081.5834
  20975786.935   -19617828.854 9 -14642904.42147  20975787.065    20975792.6374
  24022917.365     1436408.082 8   1117089.43445  24022916.949    24022924.6174
  22405820.593   -15198532.279 8  -5136808.66345  22405819.754    22405828.5394
  20557277.085   -18011387.475 9 -13595701.84448  20557276.663    20557283.1544
 01  7 19  2 24  0.0000000  0  6 22 27 13 04 20 01
  21394957.899   -11132830.090 8  -8662266.53847  21394956.900    21394964.2114
  22715916.885    -4747191.823 8  -3686952.28146  22715916.468    22715924.6544
  20966613.873   -19666033.059 9 -14680466.11647  20966614.025    20966619.6684
  24031434.028     1481164.859 7   1151964.74545  24031433.755    24031441.9134
  22424929.505   -15098113.740 8  -5058560.50545  22424928.606    22424937.7294
  20560352.354   -17995227.502 9 -13583109.65548  20560351.865    20560358.4094
 01  7 19  2 24 30.0000000  0  6 22 27 13 04 20 01
  21404784.178   -11081191.158 8  -8622028.40047  21404783.347    21404790.7744
  22702798.227    -4816130.497 8  -3740670.66846  22702797.940    22702806.1044
  20957487.818   -19713990.771 9 -14717835.75547  20957488.052    20957493.5274
  24040028.184     1526330.862 8   1187158.92245  24040028.424    24040037.0614
  22444092.404   -14997410.515 7  -4980090.52645  22444091.588    22444100.7634
  20563486.540   -17978757.154 9 -13570275.63048  20563486.075    20563492.7414
 01  7 19  2 25  0.0000000  0  6 22 27 13 04 20 01
  21414720.210   -11028977.012 9  -8581342.06747  21414719.378    21414726.6334
  22689717.961    -4884869.857 8  -3794233.73746  22689717.426    22689725.4474
  20948408.699   -19761702.806 9 -14755013.94247  20948408.888    20948414.1164
  24048700.282     1571901.833 8   1222668.66045  24048700.371    24048709.3084
  22463308.830   -14896427.477 7  -4901402.49945  22463308.026    22463317.4254
  20566679.489   -17961978.225 9 -13557201.15548  20566679.014    20566685.7954
 01  7 19  2 25 30.0000000  0  6 22 27 13 04 20 01
  21424765.198   -10976191.562 8  -8540210.56447  21424764.264    21424771.4034
  22676674.728    -4953411.642 8  -3847642.86847  22676674.385    22676682.2714
  20939375.966   -19809170.253 9 -14792001.54947  20939376.102    20939381.2314
  24057448.743     1617873.131 8   1258490.40745  24057448.515    24057457.4834
  22482577.637   -14795168.779 7  -4822499.76345  22482576.926    22482586.7024
  20569931.052   -17944891.984 9 -13543887.20348  20569930.563    20569937.1134
 01  7 19  2 26  0.0000000  0  6 22 27 13 04 20 01
  21434918.070   -10922836.411 8  -8498635.13447  21434917.216    21434924.6694
  22663669.587    -5021754.617 8  -3900897.05047  22663669.148    22663676.9684
  20930390.100   -19856390.870 9 -14828796.81047  20930390.203    20930395.4654
  24066272.729     1664243.660 8   1294623.23145  24066272.735    24066281.4784
  22501898.577   -14693635.987 7  -4743383.33945  22501898.110    22501907.7974
  20573241.156   -17927496.897 9 -13530332.60048  20573240.632    20573247.3364
 01  7 19  2 26 30.0000000  0  6 22 27 13 04 20 01
  21445179.473   -10868911.747 8  -8456615.94147  21445178.761    21445186.3554
  22650702.231    -5089896.560 8  -3953994.63847  22650701.926    22650709.8454
  20921451.930   -19903361.005 9 -14865396.89147  20921452.070    20921457.4464
  24075173.000     1711012.866 8   1331066.68845  24075172.765    24075181.2074
  22521271.183   -14591829.846 7  -4664053.93145  22521270.949    22521280.4344
  20576610.376   -17909790.554 9 -13516535.45248  20576609.900    20576616.7964
 01  7 19  2 27  0.0000000  0  6 22 27 13 04 20 01
  21455549.033   -10814421.908 9  -8414156.35247  21455548.152    21455555.4564
  22637772.813    -5157839.833 8  -4006937.39346  22637772.647    22637780.4624
  20912561.254   -19950082.436 9 -14901803.18447  20912561.275    20912566.5814
  24084147.725     1758175.800 8   1367816.99545  24084147.391    24084155.8854
  22540695.589   -14489755.545 7  -4584515.59444  22540694.913    22540704.3254
  20580038.499   -17891775.078 9 -13502497.43148  20580038.066    20580045.0514
 01  7 19  2 27 30.0000000  0  6 22 27 13 04 20 01
  21466025.472   -10759368.245 8  -8371257.39147  21466024.541    21466031.7954
  22624881.799    -5225583.361 8  -4059724.49146  22624881.361    22624889.2634
  20903718.019   -19996553.437 9 -14938014.35147  20903718.027    20903723.3954
  24093197.503     1805730.600 8   1404872.62345  24093196.986    24093205.1864
  22560169.867   -14387414.866 7  -4504769.75944  22560169.470    22560179.2994
  20583525.717   -17873449.434 9 -13488217.72348  20583525.332    20583532.3304
 01  7 19  2 28  0.0000000  0  6 22 27 13 04 20 01
  21476608.932   -10703751.232 8  -8327919.47547  21476608.073    21476615.3984
  22612028.931    -5293125.271 8  -4112354.48146  22612028.419    22612036.3154
  20894922.895   -20042770.900 9 -14974027.94247  20894923.046    20894928.5074
  24102321.149     1853676.518 8   1442233.03845  24102320.791    24102329.2124
  22579695.138   -14284808.849 7  -4424817.12944  22579694.971    22579704.7194
  20587072.587   -17854811.456 9 -13473694.62448  20587072.127    20587078.9804
 01  7 19  2 28 30.0000000  0  6 22 27 13 04 20 01
  21487299.175   -10647574.041 9  -8284145.06647  21487298.313    21487305.3244
  22599214.352    -5360465.730 8  -4164827.51646  22599213.900    22599221.7224
  20886176.190   -20088734.133 9 -15009843.41347  20886176.382    20886182.2294
  24111518.685     1902010.825 7   1479896.08445  24111518.523    24111527.1484
  22599270.261   -14181940.357 7  -4344659.94844  22599270.409    22599279.4734
  20590678.619   -17835860.946 9 -13458928.01148  20590678.230    20590685.1334
 01  7 19  2 29  0.0000000  0  6 22 27 13 04 20 01
  21498095.690   -10590838.193 8  -8239935.32547  21498094.759    21498101.7684
  22586438.090    -5427604.185 8  -4217143.13246  22586437.705    22586445.7574
  20877478.240   -20134441.168 9 -15045459.26047  20877478.482    20877484.4854
  24120789.326     1950731.421 7   1517860.06345  24120789.447    24120798.5074
  22618894.617   -14078811.706 7  -4264300.04744  22618895.344    22618903.7994
  20594344.484   -17816596.977 9 -13443917.11748  20594344.052    20594350.9944
 01  7 19  2 29 30.0000000  0  6 22 27 13 04 20 01
  21508998.089   -10533545.333 8  -8195291.57047  21508997.221    21509004.3914
  22573700.367    -5494540.220 8  -4269301.01846  22573699.973    22573708.1844
  20868829.608   -20179890.495 9 -15080874.30247  20868829.750    20868835.8434
  24130133.509     1999836.067 8   1556123.36745  24130133.456    24130142.8474
  22638569.437   -13975425.167 7  -4183739.22644  22638569.233    22638577.3274
  20598070.002   -17797018.891 9 -13428661.48448  20598069.643    20598076.6034
 01  7 19  2 30  0.0000000  0  6 22 27 13 04 20 01
  21520005.390   -10475700.749 8  -8150217.87347  21520004.541    21520011.8494
  22561000.663    -5561276.611 8  -4321303.33347  22561000.454    22561008.5334
  20860229.501   -20225083.999 9 -15116089.98147  20860229.634    20860235.8064
  24139550.484     2049319.201 8   1594681.58645  24139550.146    24139559.1304
  22658292.816   -13871786.439 7  -4102981.91645  22658292.198    22658299.5434
  20601854.976   -17777129.242 9 -13413163.07048  20601854.593    20601861.5004
 01  7 19  2 30 30.0000000  0  6 22 27 13 04 20 01
  21531117.701   -10417305.920 8  -8104715.42947  21531116.798    21531124.0664
  22548339.572    -5627812.206 8  -4373149.15947  22548339.270    22548347.2364
  20851678.351   -20270019.875 9 -15151104.92047  20851678.533    20851684.8314
  24149038.742     2099179.360 8   1633533.58645  24149038.410    24149047.2734
  22678062.528   -13767896.977 7  -4022029.18645  22678062.164    22678069.3394
  20605699.492   -17756926.473 9 -13397420.65848  20605699.111    20605706.0404
 01  7 19  2 31  0.0000000  0  6 22 27 13 04 20 01
  21542334.593   -10358361.183 8  -8058784.49347  21542333.573    21542340.9884
  22535716.916    -5694144.535 8  -4424836.61947  22535716.588    22535724.5274
  20843177.393   -20314693.913 9 -15185915.83547  20843177.468    20843183.6704
  24158598.135     2149416.462 8   1672679.31945  24158597.910    24158607.0094
  22697879.440   -13663757.217 7  -3940881.37945  22697879.235    22697887.0264
  20609604.128   -17736407.922 9 -13381432.19248  20609603.708    20609610.6644
 01  7 19  2 31 30.0000000  0  6 22 27 13 04 20 01
  21553655.537   -10298868.798 8  -8012426.82747  21553654.486    21553662.0124
  22523132.839    -5760273.906 8  -4476365.90747  22523132.510    22523140.3674
  20834726.326   -20359105.708 9 -15220522.40048  20834726.339    20834732.4114
  24168229.139     2200027.160 8   1712116.15645  24168229.122    24168237.8544
  22717744.941   -13559370.133 7  -3859540.96345  22717744.020    22717751.7404
  20613568.606   -17715573.659 9 -13365197.69848  20613568.214    20613575.3194
 01  7 19  2 32  0.0000000  0  6 22 27 13 04 20 01
  21565079.990   -10238832.779 8  -7965645.54347  21565079.086    21565086.4654
  22510587.135    -5826202.003 8  -4527738.36947  22510586.865    22510594.7404
  20826324.691   -20403255.926 9 -15254925.13247  20826324.746    20826330.7634
  24177930.644     2251007.194 8   1751840.76145  24177930.686    24177939.4384
  22737656.225   -13454740.346 7  -3778011.41945  22737655.309    22737662.2804
  20617592.859   -17694425.094 9 -13348718.29848  20617592.558    20617599.8404
 01  7 19  2 32 30.0000000  0  6 22 27 13 04 20 01
  21576608.089   -10178254.136 8  -7918441.42747  21576607.045    21576614.1184
  22498080.095    -5891927.304 8  -4578952.81747  22498079.724    22498087.6374
  20817973.377   -20447141.836 9 -15289121.90747  20817973.487    20817979.4734
  24187701.572     2302355.462 8   1791852.33145  24187702.003    24187710.8074
  22757611.564   -13349869.182 7  -3696293.66145  22757610.935    22757618.6854
  20621677.624   -17672960.372 9 -13331992.54948  20621677.300    20621684.4044
 01  7 19  2 33  0.0000000  0  6 22 27 13 04 20 01
  21588238.610   -10117134.533 8  -7870815.78547  21588237.525    21588244.6824
  22485611.609    -5957448.424 8  -4630008.16847  22485611.405    22485619.2094
  20809672.887   -20490761.166 9 -15323110.96547  20809672.983    20809678.9134
  24197542.815     2354070.530 7   1832149.70345  24197543.169    24197551.9864
  22777613.636   -13244757.933 7  -3614388.87645  22777612.676    22777621.1094
  20625822.832   -17651177.883 9 -13315019.20048  20625822.470    20625829.5654
 01  7 19  2 33 30.0000000  0  6 22 27 13 04 20 01
  21599971.179   -10055476.572 8  -7822770.64347  21599970.372    21599977.8154
  22473182.337    -6022765.560 8  -4680904.56247  22473181.960    22473189.4234
  20801423.378   -20534112.745 9 -15356891.39047  20801423.454    20801429.3754
  24207453.331     2406149.573 7   1872730.72545  24207453.369    24207462.4974
  22797661.005   -13139409.572 7  -3532299.39345  22797659.808    22797668.4504
  20630028.504   -17629077.444 9 -13297798.09048  20630028.149    20630035.1534
 01  7 19  2 34  0.0000000  0  6 22 27 13 04 20 01
  21611806.666    -9993282.807 8  -7774308.01447  21611805.688    21611813.1604
  22460791.472    -6087879.226 8  -4731642.42546  22460791.208    22460798.4454
  20793224.922   -20577196.145 9 -15390462.85247  20793225.010    20793230.8224
  24217432.249     2458589.283 7   1913592.76145  24217432.360    24217441.4764
  22817752.212   -13033827.640 7  -3450027.91645  22817751.160    22817759.6614
  20634294.525   -17606659.484 9 -13280329.56748  20634294.145    20634301.1004
 01  7 19  2 34 30.0000000  0  6 22 27 13 04 20 01
  21623743.133    -9930556.481 8  -7725430.38947  21623742.135    21623749.6294
  22448439.247    -6152790.066 8  -4782222.24647  22448438.989    22448446.2864
  20785077.558   -20620011.281 9 -15423825.27647  20785077.620    20785083.2414
  24227479.266     2511385.961 7   1954732.96445  24227479.435    24227488.3534
  22837886.925   -12928015.735 7  -3367577.15545  22837886.570    22837894.8344
  20638620.787   -17583924.481 9 -13262613.98948  20638620.401    20638627.3544
 01  7 19  2 35  0.0000000  0  6 22 27 13 04 20 01
  21635780.024    -9867299.838 8  -7676139.50847  21635779.262    21635786.9284
  22436125.574    -6217497.431 8  -4832643.49947  22436125.344    22436132.9214
  20776981.641   -20662555.611 9 -15456976.68448  20776981.695    20776987.1804
  24237593.807     2564537.804 7   1996149.90045  24237593.604    24237602.6274
  22858066.753   -12821975.492 7  -3284948.53845  22858065.898    22858073.5804
  20643007.619   -17560871.326 9 -13244650.50848  20643007.273    20643014.1504
 01  7 19  2 35 30.0000000  0  6 22 27 13 04 20 01
  21647917.902    -9803514.433 8  -7626436.60247  21647917.308    21647924.8934
  22423850.946    -6281999.936 8  -4882905.11247  22423850.881    22423858.4264
  20768937.565   -20704826.911 9 -15489915.35147  20768937.714    20768943.2094
  24247775.274     2618043.277 7   2037842.36645  24247775.334    24247784.5774
  22878289.439   -12715708.676 7  -3202143.36545  22878288.191    22878295.6854
  20647455.352   -17537498.467 9 -13226437.89848  20647454.984    20647461.7114
 01  7 19  2 36  0.0000000  0  6 22 27 13 04 20 01
  21660156.172    -9739204.056 8  -7576324.64147  21660155.377    21660162.8324
  22411615.493    -6346299.283 8  -4933008.41947  22411615.222    22411622.5864
  20760945.310   -20746826.054 9 -15522641.94147  20760945.476    20760950.9994
  24258023.861     2671898.065 7   2079806.98545  24258023.909    24258032.9624
  22898551.918   -12609219.843 6  -3119165.07345  22898551.516    22898559.6984
  20651963.662   -17513807.146 9 -13207977.13648  20651963.303    20651970.0594
 01  7 19  2 36 30.0000000  0  6 22 27 13 04 20 01
  21672493.929    -9674369.214 8  -7525804.00947  21672493.006    21672500.6824
  22399418.589    -6410393.673 8  -4982952.05147  22399418.326    22399426.0214
  20753005.470   -20788550.137 9 -15555154.21147  20753005.623    20753011.0924
  24268338.284     2726100.786 7   2122042.83845  24268338.400    24268347.6014
  22918857.341   -12502509.950 7  -3036014.52445  22918857.055    22918866.0034
  20656532.944   -17489795.541 9 -13189266.80348  20656532.580    20656539.3684
 01  7 19  2 37  0.0000000  0  6 22 27 13 04 20 01
  21684930.739    -9609013.659 8  -7474877.62946  21684929.825    21684937.6104
  22387260.573    -6474284.167 8  -5032736.81047  22387260.412    22387268.1944
  20745118.049   -20829999.089 9 -15587452.09548  20745118.263    20745123.5354
  24278718.295     2780648.078 8   2164547.16645  24278718.691    24278727.9134
  22939206.607   -12395582.430 7  -2952694.52145  22939205.437    22939214.0594
  20661163.118   -17465464.262 9 -13170307.39148  20661162.715    20661169.4514
 01  7 19  2 37 30.0000000  0  6 22 27 13 04 20 01
  21697465.818    -9543141.714 8  -7423548.87146  21697464.888    21697472.3884
  22375141.145    -6537971.855 8  -5082363.52447  22375141.012    22375148.7684
  20737283.366   -20871172.305 9 -15619535.11648  20737283.467    20737288.4904
  24289164.125     2835535.712 7   2207316.62745  24289164.221    24289172.9184
  22959594.735   -12288441.614 7  -2869208.29145  22959593.746    22959602.2984
  20665853.958   -17440814.201 9 -13151099.56348  20665853.537    20665860.2444
 01  7 19  2 38  0.0000000  0  6 22 27 13 04 20 01
  21710099.175    -9476752.287 8  -7371816.86946  21710098.302    21710105.6034
  22363060.934    -6601453.007 8  -5131829.30647  22363060.905    22363068.6534
  20729501.768   -20912065.418 9 -15651399.88748  20729501.824    20729506.7724
  24299674.300     2890764.553 8   2250352.01045  24299673.786    24299682.1824
  22980022.976   -12181086.724 7  -2785555.17445  22980022.371    22980031.1424
  20670606.225   -17415841.492 9 -13131640.34048  20670605.678    20670612.4434
 01  7 19  2 38 30.0000000  0  6 22 27 13 04 20 01
  21722830.654    -9409848.892 8  -7319684.37346  21722829.777    21722837.0284
  22351020.199    -6664729.175 9  -5181135.35747  22351019.970    22351027.5364
  20721773.296   -20952678.775 9 -15683046.67948  20721773.395    20721778.3614
  24310247.800     2946330.475 7   2293650.02545  24310247.497    24310255.8384
  23000493.104   -12073521.622 7  -2701738.36645  23000492.007    23000500.6964
  20675419.379   -17390547.374 9 -13111930.64848  20675418.856    20675425.6734
 01  7 19  2 39  0.0000000  0  6 22 27 13 04 20 01
  21735659.135    -9342435.079 8  -7267154.14046  21735658.297    21735665.7944
  22339018.092    -6727801.110 8  -5230282.29047  22339017.790    22339025.1534
  20714098.026   -20993012.201 9 -15714475.32548  20714098.099    20714103.3184
  24320884.530     3002229.624 7   2337207.71245  24320884.552    24320893.0214
  23021003.019   -11965750.328 7  -2617760.90945  23021001.559    23021009.7894
  20680293.641   -17364932.462 9 -13091970.97948  20680293.211    20680299.9914
 01  7 19  2 39 30.0000000  0  6 22 27 13 04 20 01
  21748584.263    -9274512.259 8  -7214227.28346  21748583.439    21748591.2114
  22327055.180    -6790667.333 8  -5279268.91347  22327054.722    22327062.0054
  20706476.428   -21033063.071 9 -15745683.81848  20706476.525    20706481.9494
  24331585.191     3058460.910 7   2381024.21245  24331585.055    24331593.7584
  23041549.878   -11857774.154 6  -2533623.71844  23041548.941    23041557.6624
  20685229.475   -17338994.964 9 -13071759.97548  20685228.954    20685235.7994
 01  7 19  2 40  0.0000000  0  6 22 27 13 04 20 01
  21761606.142    -9206082.160 8  -7160905.17946  21761605.314    21761612.9494
  22315131.341    -6853326.473 8  -5328094.17947  22315131.016    22315138.3084
  20698909.162   -21072828.561 9 -15776669.93148  20698909.303    20698914.8954
  24342347.874     3115022.544 7   2425098.12345  24342348.013    24342357.1604
  23062135.394   -11749594.357 7  -2449327.87844  23062133.839    23062143.5114
  20690226.757   -17312733.468 9 -13051296.48548  20690226.305    20690233.1344
 01  7 19  2 40 30.0000000  0  6 22 27 13 04 20 01
  21774724.104    -9137148.198 8  -7107190.42746  21774723.083    21774730.8374
  22303246.664    -6915779.796 8  -5376759.05547  22303246.384    22303253.6634
  20691396.451   -21112308.738 9 -15807433.73148  20691396.604    20691402.1884
  24353173.276     3171910.612 8   2469426.39045  24353173.539    24353182.2744
  23082758.628   -11641214.914 7  -2364876.49544  23082757.500    23082766.7164
  20695285.522   -17286148.685 9 -13030581.10048  20695285.162    20695292.1244
 01  7 19  2 41  0.0000000  0  6 22 27 13 04 20 01
  21787937.003    -9067712.527 8  -7053084.71846  21787936.165    21787944.0394
  22291401.462    -6978027.038 8  -5425263.36847  22291401.024    22291408.1874
  20683938.197   -21151502.251 9 -15837974.15048  20683938.347    20683943.8864
  24364060.885     3229122.542 7   2514007.04145  24364060.762    24364069.6274
  23103419.498   -11532638.310 7  -2280271.45444  23103418.687    23103427.8564
  20700406.191   -17259239.975 9 -13009613.28148  20700405.738    20700412.6684
 01  7 19  2 41 30.0000000  0  6 22 27 13 04 20 01
  21801245.290    -8997778.156 8  -6998590.45146  21801244.442    21801251.8984
  22279595.504    -7040068.340 8  -5473607.21947  22279594.908    22279601.9844
  20676534.625   -21190408.142 9 -15868290.45048  20676534.783    20676540.2814
  24375008.463     3286655.306 7   2558837.67545  24375008.433    24375018.2944
  23124117.921   -11423867.766 7  -2195515.29144  23124117.218    23124126.2224
  20705588.289   -17232007.437 9 -12988393.14248  20705587.860    20705594.8144
 01  7 19  2 42  0.0000000  0  6 22 27 13 04 20 01
  21814647.649    -8927348.605 8  -6943710.29746  21814646.754    21814653.9704
  22267828.378    -7101904.037 8  -5521790.83647  22267827.884    22267834.9344
  20669185.928   -21229025.722 9 -15898382.08048  20669186.110    20669191.5754
  24386017.303     3344505.859 7   2603915.87745  24386017.141    24386027.0604
  23144853.566   -11314906.248 7  -2110610.39944  23144852.030    23144861.8964
  20710832.228   -17204451.003 9 -12966920.62748  20710831.769    20710838.6474
 01  7 19  2 42 30.0000000  0  6 22 27 13 04 20 01
  21828143.565    -8856426.236 8  -6888446.11746  21828142.652    21828149.9664
  22256100.602    -7163533.873 8  -5569814.04647  22256100.142    22256107.0664
  20661892.603   -21267353.441 9 -15928247.83948  20661892.699    20661898.1304
  24397085.970     3402671.368 7   2649239.52145  24397085.998    24397095.7694
  23165624.433   -11205756.262 6  -2025558.65644  23165622.764    23165633.2714
  20716137.873   -17176570.183 9 -12945195.33948  20716137.357    20716144.3034
 01  7 19  2 43  0.0000000  0  6 22 27 13 04 20 01
  21841733.124    -8785011.387 8  -6832798.17446  21841732.383    21841739.9304
  22244412.392    -7224955.932 8  -5617675.33847  22244411.854    22244418.8574
  20654654.947   -21305387.641 9 -15957884.89848  20654655.100    20654660.4744
  24408214.680     3461151.062 7   2694808.03245  24408214.753    24408224.0184
  23186429.339   -11096418.876 6  -1940360.85144  23186428.710    23186439.6154
  20721505.425   -17148362.848 9 -12923215.60548  20721505.050    20721512.1624
 01  7 19  2 43 30.0000000  0  6 22 27 13 04 20 01
  21855415.994    -8713108.299 8  -6776769.78946  21855415.141    21855422.8184
  22232762.994    -7286171.967 8  -5665376.12647  22232762.669    22232769.8524
  20647472.978   -21343129.333 9 -15987294.02248  20647473.112    20647478.4314
  24419402.462     3519940.419 8   2740617.83345  24419402.358    24419411.4574
  23207271.790   -10986898.062 6                  23207269.558    23207280.2944
  20726935.108   -17119830.484 9 -12900982.60948  20726934.632    20726941.8514
 01  7 19  2 44  0.0000000  0  6 22 27 13 04 20 01
  21869190.310    -8640724.647 8  -6720366.98246  21869189.385    21869197.0114
  22221152.287    -7347186.577 8  -5712919.94447  22221152.006    22221159.2314
  20640345.978   -21380581.957 9 -16016477.88248  20640346.086    20640351.5644
  24430648.019     3579031.835 7   2786662.99645  24430647.634    24430656.5094
  23228152.634                                    23228148.517    23228155.2524
  20732425.622   -17090977.430 9 -12878499.72748  20732425.251    20732432.4214
 01  7 19  2 44 30.0000000  0  6 22 27 13 04 20 01
  21883056.450    -8567858.757 8  -6663588.40846  21883055.406    21883063.0524
  22209580.878    -7407994.776 8  -5760302.91747  22209580.568    22209587.8684
  20633274.997   -21417739.474 9 -16045431.78448  20633275.211    20633280.7314
  24441950.146     3638427.018 7   2832944.88745  24441950.200    24441959.2174
  23249060.007                                    23249058.233    23249063.3294
  20737978.102   -17061798.651 9 -12855763.03348  20737977.707    20737984.7984
 01  7 19  2 45  0.0000000  0  6 22 27 13 04 20 01
  21897014.317    -8494509.685 8  -6606433.30346  21897013.353    21897021.0864
  22198049.029    -7468593.125 8  -5807522.38847  22198048.930    22198056.4314
  20626261.271   -21454597.027 9 -16074151.95048  20626261.426    20626266.8044
  24453310.467     3698127.044 7   2879464.28544  24453310.126    24453319.5544
  23270002.769                                    23269996.255    23269999.4054
  20743593.267   -17032290.433 9 -12832769.63948  20743592.919    20743599.9584
 01  7 19  2 45 30.0000000  0  6 22 27 13 04 20 01
  21911063.236    -8420680.932 8  -6548904.41846  21911062.358    21911070.4724
  22186557.425    -7528982.936 8  -5854579.35147  22186557.226    22186564.4954
  20619304.491   -21491154.769 9 -16102638.49148  20619304.642    20619309.8884
  24464728.374     3758127.761 7   2926217.89644  24464728.220    24464737.0064
  23290977.963                                    23290971.744    23290969.7724
  20749271.125   -17002453.815 9 -12809520.35348  20749270.709    20749277.7114
 01  7 19  2 46  0.0000000  0  6 22 27 13 04 20 01
  21925203.432    -8346373.151 8  -6491002.26046  21925202.528    21925210.7474
  22175106.054    -7589161.896 8  -5901472.01047  22175105.554    22175112.9604
  20612405.497   -21527409.024 9 -16130888.55048  20612405.649    20612410.8384
  24476202.743     3818428.024 7   2973205.05144  24476202.630    24476212.0654
  23311982.359                                    23311980.330    23311956.7654
  20755011.748   -16972286.225 9 -12786013.16648  20755011.364    20755018.4034
 01  7 19  2 46 30.0000000  0  7 22 27 13 04 20 01 08
  21939434.052    -8271592.080 8  -6432731.30946  21939432.986    21939440.9324
  22163693.768    -7649132.623 8  -5948202.42447  22163693.424    22163700.9994
  20605563.995   -21563361.381 9 -16158903.34948  20605564.125    20605569.2764
  24487733.332     3879022.797 7   3020421.72444  24487732.685    24487742.3004
  23333021.923                                    23333012.000    23333026.3864
  20760814.997   -16941789.894 9 -12762249.79548  20760814.587    20760821.7084
  23888401.809     -290392.17744                  23888403.143    23888412.0844
 01  7 19  2 47  0.0000000  0  7 22 27 13 04 20 01 08
  21953753.346    -8196342.784 8  -6374095.51446  21953752.354    21953760.5464
  22152321.068    -7708897.175 9  -5994772.17247  22152320.737    22152328.1174
  20598779.830   -21599012.562 9 -16186683.46448  20598779.971    20598785.0454
  24499319.168     3939906.959 7   3067863.86344  24499318.106    24499328.0034
  23354092.946                                    23354083.842    23354083.3714
  20766680.548   -16910966.861 9 -12738231.86948  20766680.146    20766687.2924
  23870931.865     -483641.923 7   -361926.53745  23870931.748    23870942.2664
 01  7 19  2 47 30.0000000  0  7 22 27 13 04 20 01 08
  21968161.126    -8120626.573 8  -6315095.91646  21968160.399    21968168.7234
  22140987.710    -7768454.703 9  -6041180.61647  22140987.334    22140994.4974
  20592053.392   -21634360.642 9 -16214227.39848  20592053.518    20592058.5754
  24510960.170     4001078.592 7   3115529.88844  24510958.813    24510968.9954
  23375194.744                                    23375186.503    23375178.8164
  20772608.416   -16879815.995 9 -12713958.49848  20772608.032    20772615.1314
  23853491.145     -575303.162 7   -433350.71645  23853489.583    23853499.3514
 01  7 19  2 48  0.0000000  0  7 22 27 13 04 20 01 08
  21982657.603    -8044448.289 8  -6255736.24246  21982656.793    21982664.4164
  22129693.200    -7827807.299 9  -6087429.37247  22129692.882    22129700.1494
  20585384.520   -21669406.257 9 -16241535.64848  20585384.605    20585389.6934
  24522654.788     4062532.519 7   3163416.00245  24522653.940    24522664.0254
  23396327.397                                    23396320.313    23396364.0024
  20778598.345   -16848338.968 9 -12689430.96848  20778597.956    20778605.0224
  23836074.270     -666824.220 7   -504665.72645  23836072.000    23836083.0564
 01  7 19  2 48 30.0000000  0  7 22 27 13 04 20 01 08
  21997241.744    -7967809.598 8  -6196017.80546  21997240.837    21997248.1144
  22118437.983    -7886953.687 9  -6133517.43247  22118437.734    22118445.0614
  20578773.519   -21704146.987 9 -16268606.30748  20578773.622    20578778.7174
  24534402.250     4124267.218 7   3211520.89445  24534402.087    24534411.8424
  23417491.493                                    23417482.422    23417515.2104
  20784650.711   -16816534.475 9 -12664648.26148  20784650.296    20784657.2484
  23818684.972     -758203.718 7   -575870.37845  23818683.618    23818694.2024
 01  7 19  2 49  0.0000000  0  6 22 27 13 04 01 08
  22011913.000    -7890712.998 8  -6135942.55946  22011912.040    22011919.4154
  22107222.389    -7945893.020 9  -6179444.16247  22107222.078    22107229.1134
  20572221.028   -21738581.062 9 -16295438.03448  20572221.137    20572225.9594
  24546203.644     4186280.379 7   3259842.73245  24546203.165    24546212.7334
  20790765.456   -16784401.432 9 -12639609.55348  20790764.963    20790771.9964
  23801322.948     -849440.333 7   -646963.65745  23801321.998    23801332.2174
 01  7 19  2 49 30.0000000  0  6 22 27 13 04 01 08
  22026671.250    -7813158.228 8  -6075510.27946  22026670.214    22026678.0324
  22096046.652    -8004622.195 8  -6225207.13247  22096046.315    22096053.2224
  20565727.653   -21772704.142 9 -16322027.42248  20565727.733    20565732.4824
  24558057.883     4248572.220 7   3308381.77745  24558057.341    24558066.7334
  20796943.186   -16751936.660 9 -12614312.33348  20796942.786    20796949.8094
  23783988.319     -940529.991 7   -717942.44945  23783988.039    23783998.1734
 01  7 19  2 50  0.0000000  0  6 22 27 13 04 01 08
  22041516.028    -7735148.168 8  -6014723.25946  22041515.036    22041522.9594
  22084910.457    -8063142.146 8  -6270807.05847  22084910.205    22084917.1514
  20559293.639   -21806515.575 9 -16348373.96748  20559293.717    20559298.4864
  24569963.995     4311139.059 8   3357135.07545  24569963.338    24569973.0534
  20803184.058   -16719140.564 9 -12588756.95048  20803183.606    20803190.7294
  23766682.150    -1031473.331 7   -788807.24845  23766682.187    23766692.0154
 01  7 19  2 50 30.0000000  0  6 22 27 13 04 01 08
  22056447.066    -7656686.792 8  -5953584.56546  22056445.820    22056453.3624
  22073813.932    -8121453.793 8  -6316244.67547  22073813.697    22073820.9104
  20552918.827   -21840015.092 9 -16374477.45948  20552918.910    20552923.9234
  24581921.798     4373976.956 8   3406099.56945  24581921.030    24581930.3744
  20809487.595   -16686014.087 9 -12562944.12848  20809487.202    20809494.3334
  23749404.170    -1122270.552 8   -859558.15945  23749404.339    23749413.4604
 01  7 19  2 51  0.0000000  0  6 22 27 13 04 01 08
  22071462.688    -7577778.465 8  -5892097.62345  22071461.486    22071468.8894
  22062756.687    -8179558.278 8  -6361520.87547  22062756.482    22062763.8614
  20546603.206   -21873202.885 9 -16400338.06248  20546603.283    20546608.5634
  24593930.299     4437081.850 7   3455272.20145  24593929.577    24593937.6884
  20815854.034   -16652558.086 9 -12536874.54648  20815853.674    20815860.7504
  23732154.178    -1212922.618 8   -930196.00545  23732153.982    23732163.0824
 01  7 19  2 51 30.0000000  0  6 22 27 13 04 01 08
  22086562.875    -7498423.845 8  -5830262.89645  22086561.931    22086569.8504
  22051739.462    -8237453.071 8  -6406633.69047  22051739.368    22051746.8314
  20540347.670   -21906075.089 9 -16425952.75448  20540347.763    20540353.0724
  24605988.909     4500453.064 7   3504652.32845  24605988.520    24605996.6134
  20822283.773   -16618769.956 9 -12510546.14448  20822283.393    20822290.5244
  23714932.013    -1303426.106 7  -1000718.07645  23714931.635    23714941.0064
 01  7 19  2 52  0.0000000  0  6 22 27 13 04 01 08
  22101747.904    -7418625.343 8  -5768082.23845  22101746.970    22101755.0414
  22040762.570    -8295138.169 8  -6451583.11447  22040762.278    22040769.6714
  20534152.617   -21938630.316 9 -16451320.44848  20534152.712    20534157.7704
  24618097.501     4564087.843 7   3554237.79744  24618097.537    24618105.9144
  20828776.807   -16584649.436 9 -12483958.72748  20828776.368    20828783.4714
  23697737.934    -1393780.448 7  -1071123.86345  23697737.648    23697747.0304
 01  7 19  2 52 30.0000000  0  6 22 27 13 04 01 08
  22117016.668    -7338385.220 8  -5705557.49745  22117015.978    22117024.1664
  22029825.431    -8352613.525 8  -6496369.08747  22029825.040    22029832.6594
  20528018.157   -21970867.161 9 -16476440.05648  20528018.239    20528023.1204
  24630256.113     4627983.408 7   3604026.48745  24630256.228    24630265.4234
  20835333.065   -16550196.127 9 -12457112.01348  20835332.649    20835339.8414
  23680572.861    -1483985.151 8  -1141413.03945  23680572.271    23680581.8024
 01  7 19  2 53  0.0000000  0  6 22 27 13 04 01 08
  22132369.145    -7257709.636 8  -5642693.40145  22132368.110    22132376.2384
  22018927.500    -8409881.985 9  -6540993.86147  22018927.274    22018934.8104
  20521943.945   -22002787.296 9 -16501312.86348  20521944.014    20521948.9004
  24642464.192     4692134.056 7   3654013.86545  24642464.016    24642473.2724
  20841952.347   -16515412.715 9 -12430008.08048  20841951.857    20841958.9184
  23663435.515    -1574042.120 8  -1211587.18645  23663434.766    23663444.7864
 01  7 19  2 53 30.0000000  0  6 22 27 13 04 01 08
  22147803.663    -7176600.412 8  -5579491.41345  22147802.705    22147810.7314
  22008069.442    -8466942.103 9  -6585456.28747  22008069.241    22008076.5514
  20515930.454   -22034388.297 9 -16525937.01548  20515930.577    20515935.5164
  24654720.098     4756537.770 7   3704198.45944  24654719.862    24654729.0694
  20848634.503   -16480297.711 9 -12402645.75748  20848634.001    20848641.0304
  23646326.276    -1663949.655 8  -1281644.90045  23646325.810    23646335.9774
 01  7 19  2 54  0.0000000  0  5 22 27 13 01 08
  22163321.883    -7095051.806 7  -5515947.06145  22163321.062    22163328.9354
  21997252.667    -8523785.370 9  -6629749.72447  21997252.379    21997259.6914
  20509979.570   -22065660.305 9 -16550304.81248  20509979.697    20509984.7644
  20855381.448   -16444842.447 9 -12375018.28248  20855380.931    20855387.9574
  23629246.976    -1753698.712 8  -1351579.11745  23629246.943    23629257.2114
 01  7 19  2 54 30.0000000  0  5 22 27 13 01 08
  22178921.035    -7013074.546 7  -5452068.70345  22178920.592    22178928.9164
  21986475.389    -8580420.158 9  -6673880.71947  21986475.050    21986482.4124
  20504089.996   -22096610.310 9 -16574421.69448  20504090.064    20504095.2274
  20862191.500   -16409054.961 9 -12347131.93448  20862191.125    20862198.0494
  23612196.794    -1843297.098 8  -1421395.92745  23612196.657    23612207.2604
 01  7 19  2 55  0.0000000  0  5 22 27 13 01 08
  22194601.509    -6930673.713 7  -5387860.33845  22194601.186    22194609.3094
  21975737.471    -8636848.851 9  -6717851.12247  21975737.134    21975744.1904
  20498261.474   -22127239.360 9 -16598288.47648  20498261.489    20498266.6894
  20869064.797   -16372937.490 9 -12318988.47648  20869064.277    20869070.9864
  23595175.508    -1932746.618 8  -1491096.72545  23595175.109    23595185.3994
 01  7 19  2 55 30.0000000  0  5 22 27 13 01 08
  22210362.146    -6847853.305 7  -5323324.97945  22210361.625    22210369.3744
  21965038.658    -8693072.154 9  -6761661.45947  21965038.220    21965045.1434
  20492494.123   -22157546.874 9 -16621904.70948  20492494.231    20492499.4704
  20876000.354   -16336490.664 9 -12290588.36148  20875999.856    20876006.5524
  23578182.587    -2022046.942 8  -1560681.26346  23578182.004    23578191.8544
 01  7 19  2 56  0.0000000  0  5 22 27 13 01 08
  22226202.303    -6764614.059 7  -5258463.25245  22226201.730    22226209.5844
  21954379.386    -8749087.502 9  -6805309.76047  21954378.870    21954385.7744
  20486788.665   -22187529.240 9 -16645267.58348  20486788.781    20486794.0404
  20882999.031   -16299711.608 9 -12261929.36648  20882998.621    20883005.4964
  23561218.025    -2111195.598 8  -1630147.64946  23561217.569    23561227.0864
 01  7 19  2 56 30.0000000  0  5 22 27 13 01 08
  22242122.191    -6680957.100 7  -5193276.03245  22242121.678    22242129.5384
  21943759.766    -8804893.634 9  -6848795.02247  21943759.282    21943766.1904
  20481145.562   -22217183.618 9 -16668374.89348  20481145.688    20481150.8774
  20890061.366   -16262599.049 9 -12233010.50047  20890060.842    20890067.6884
  23544282.460    -2200190.334 8  -1699494.06145  23544282.123    23544291.5604
 01  7 19  2 57  0.0000000  0  5 22 27 13 01 08
  22258121.085    -6596885.124 7  -5127765.52345  22258120.474    22258127.8724
  21933179.852    -8860490.604 9  -6892117.30347  21933179.376    21933186.4404
  20475565.107   -22246509.271 9 -16691226.05848  20475565.321    20475570.2904
  20897187.016   -16225152.929 9 -12203831.70947  20897186.569    20897193.3324
  23527376.335    -2289031.049 8  -1768720.45546  23527376.027    23527385.1784
 01  7 19  2 57 30.0000000  0  5 22 27 13 01 08
  22274197.528    -6512400.536 7  -5061933.42745  22274196.986    22274204.4854
  21922639.975    -8915877.657 9  -6935276.01447  21922639.533    21922646.7594
  20470047.692   -22275503.810 9 -16713819.19648  20470047.871    20470052.7974
  20904376.528   -16187372.401 9 -12174392.34547  20904376.012    20904382.7214
  23510500.321    -2377716.031 8  -1837825.50446  23510499.770    23510508.6264
 01  7 19  2 58  0.0000000  0  5 22 27 13 01 08
  22290351.970    -6427505.711 7  -4995781.59045  22290351.550    22290359.6734
  21912140.284    -8971053.842 9  -6978270.41447  21912139.771    21912147.2064
  20464593.718   -22304165.247 9 -16736152.77148  20464593.846    20464598.7854
  20911629.680   -16149256.265 9 -12144691.47747  20911629.221    20911636.0374
  23493654.474    -2466244.058 8  -1906808.25646  23493653.382    23493662.3964
 01  7 19  2 58 30.0000000  0  5 22 27 13 01 08
  22306584.807    -6342206.035 8  -4929314.36145  22306584.131    22306591.8984
  21901680.349    -9026021.695 8  -7021102.45647  21901679.763    21901687.1624
  20459202.719   -22332494.979 9 -16758227.89048  20459202.829    20459207.8404
  20918946.206   -16110806.958 9 -12114730.99547  20918945.765    20918952.7904
  23476837.584    -2554617.066 8  -1975670.21546  23476836.535    23476845.7344
 01  7 19  2 59  0.0000000  0  5 22 27 13 01 08
  22322893.955    -6256503.939 8  -4862533.56545  22322892.913    22322900.0104
  21891259.771    -9080781.378 8  -7063772.31247  21891259.277    21891266.7884
  20453875.077   -22360491.725 9 -16780043.53048  20453875.247    20453880.2474
  20926326.218   -16072024.174 9 -12084510.66347  20926325.896    20926332.9814
  23460049.853    -2642834.459 8  -2044410.92046  23460049.126    23460058.3804
 01  7 19  2 59 30.0000000  0  5 22 27 13 01 08
  22339278.839    -6170399.185 8  -4795439.00345  22339277.860    22339284.7494
  21880879.513    -9135329.743 9  -7106277.50847  21880878.983    21880886.5724
  20448611.675   -22388151.130 9 -16801596.30448  20448611.831    20448616.8924
  20933770.585   -16032905.071 9 -12054028.26047  20933770.113    20933777.0424
  23443292.510    -2730892.935 8  -2113027.78246  23443292.166    23443301.2344
 01  7 19  3  0  0.0000000  0  5 22 27 13 01 08
  22355739.435    -6083894.915 8  -4728033.07945  22355738.933    22355745.4974
  21870539.601    -9189666.497 8  -7148617.79947  21870539.071    21870546.4954
  20443412.750   -22415471.609 9 -16822884.99248  20443412.870    20443417.9074
  20941278.512   -15993449.117 9 -12023283.36747  20941278.125    20941285.3124
  23426565.973    -2818791.369 8  -2181519.91946  23426565.616    23426574.3954
 01  7 19  3  0 30.0000000  0  5 22 27 13 01 08
  22372275.909    -5996996.916 8  -4660320.39645  22372275.257    22372281.5234
  21860239.157    -9243794.308 8  -7190795.26847  21860238.882    21860246.1384
  20438278.000   -22442454.499 9 -16843910.62648  20438278.145    20438283.1404
  20948850.480   -15953658.840 9 -11992277.99647  20948850.073    20948857.2074
  23409869.626    -2906532.184 8  -2249889.30146  23409869.165    23409877.5214
 01  7 19  3  1  0.0000000  0  5 22 27 13 01 08
  22388886.385    -5909708.135 8  -4592303.23145  22388885.647    22388892.2574
  21849978.666    -9297713.798 8  -7232810.41047  21849978.325    21849985.5414
  20433207.634   -22469099.098 9 -16864672.64748  20433207.814    20433212.8794
  20956485.987   -15913534.572 9 -11961012.35647  20956485.527    20956492.5924
  23393203.321    -2994114.822 8  -2318135.38746  23393202.533    23393210.9174
 01  7 19  3  1 30.0000000  0  5 22 27 13 01 08
  22405571.264    -5822029.190 8  -4523982.05645  22405570.496    22405577.1004
  21839758.045    -9351422.779 9  -7274661.53647  21839757.860    21839765.0744
  20428202.398   -22495402.009 9 -16885168.42848  20428202.570    20428207.6654
  20964185.487   -15873074.072 9 -11929484.70047  20964185.007    20964191.7844
  23376566.897    -3081537.198 8  -2386256.62745  23376566.300    23376574.7284
 01  7 19  3  2  0.0000000  0  5 22 27 13 01 08
  22422329.734    -5733962.709 8  -4455358.89745  22422328.975    22422335.7504
  21829577.646    -9404920.782 9  -7316348.23647  21829577.458    21829584.6694
  20423262.507   -22521361.576 9 -16905396.66148  20423262.689    20423267.7274
  20971948.641   -15832276.766 9 -11897694.57947  20971948.312    20971955.2104
  23359961.387    -3168798.070 8  -2454252.03346  23359961.055    23359969.5244
 01  7 19  3  2 30.0000000  0  5 22 27 13 01 08
  22439160.933    -5645512.468 8  -4386436.71045  22439160.323    22439167.6894
  21819437.250    -9458208.286 9  -7357870.90247  21819437.108    21819444.4544
  20418388.168   -22546977.089 9 -16925356.80448  20418388.324    20418393.2314
  20979776.305   -15791143.119 9 -11865642.41247  20979776.003    20979782.6674
  23343386.743    -3255897.325 8  -2522121.51746  23343386.500    23343394.9784
 01  7 19  3  3  0.0000000  0  5 22 27 13 01 08
  22456064.494    -5556680.560 7  -4317217.09945  22456064.261    22456072.2734
  21809337.194    -9511284.517 9  -7399228.94847  21809337.140    21809344.5504
  20413579.626   -22572246.385 9 -16945047.16648  20413579.773    20413584.6964
  20987668.075   -15749672.207 9 -11833327.44247  20987667.660    20987674.3824
  23326843.144    -3342833.725 8  -2589864.08946  23326843.082    23326851.5104
 01  7 19  3  3 30.0000000  0  5 22 27 13 01 08
  22473040.202    -5467471.325 7  -4247703.41645  22473040.028    22473048.8844
  21799277.032    -9564151.349 9  -7440423.82547  21799276.875    21799284.3584
  20408836.782   -22597170.130 9 -16964468.27548  20408836.906    20408841.8964
  20995623.559   -15707865.898 9 -11800751.11847  20995623.123    20995630.0444
  23310331.026    -3429608.574 8  -2657480.76746  23310330.573    23310338.9254
 01  7 19  3  4  0.0000000  0  5 22 27 13 01 08
  22490087.341    -5377888.461 7  -4177898.61745  22490087.066    22490096.4034
  21789256.178    -9616809.652 9  -7481456.19547  21789256.132    21789263.6994
  20404159.726   -22621747.983 9 -16983619.87048  20404159.864    20404164.8624
  21003642.590   -15665724.998 9 -11767914.05647  21003642.211    21003649.2534
  23293849.001    -3516222.204 8  -2724971.87346  23293848.315    23293857.1024
 01  7 19  3  4 30.0000000  0  5 22 27 13 01 08
  22507205.744    -5287934.962 8  -4107805.07345  22507204.976    22507214.0264
  21779275.480    -9669259.152 8  -7522325.86947  21779275.242    21779282.8254
  20399548.782   -22645978.272 9 -17002500.62148  20399548.986    20399554.0174
  21011725.428   -15623249.138 9 -11734816.01447  21011725.115    21011732.1214
  23277397.747    -3602673.825 8  -2792336.74746  23277396.873    23277406.1274
 01  7 19  3  5  0.0000000  0  5 22 27 13 01 08
  22524393.705    -5197613.770 7  -4037424.99045  22524392.757    22524401.3894
  21769334.167    -9721499.421 9  -7563032.52647  21769334.144    21769341.7454
  20395004.375   -22669859.324 9 -17021109.23848  20395004.622    20395009.5684
  21019872.401   -15580437.937 9 -11701456.65647  21019871.936    21019878.8324
  23260977.998    -3688962.405 8  -2859574.53346  23260976.780    23260985.7674
 01  7 19  3  5 30.0000000  0  5 22 27 13 01 08
  22541651.151    -5106926.589 7  -3966759.73145  22541650.011    22541658.1464
  21759433.196    -9773529.741 8  -7603575.57647  21759433.048    21759440.6254
  20390526.891   -22693389.399 9 -17039444.36248  20390526.992    20390531.8604
  21028082.958   -15537290.389 9 -11667835.21047  21028082.541    21028089.6974
  23244589.027    -3775086.601 8  -2926684.25046  23244587.837    23244596.6534
 01  7 19  3  6  0.0000000  0  5 22 27 13 01 08
  22558977.544    -5015873.873 7  -3895809.55945  22558976.406    22558984.6274
  21749572.605    -9825347.882 9  -7643953.28147  21749572.434    21749579.7864
  20386116.535   -22716564.743 9 -17057503.08748  20386116.706    20386121.6504
  21036358.151   -15493804.279 9 -11633949.95747  21036357.753    21036364.9424
  23228231.441    -3861043.732 8  -2993663.80546  23228230.661    23228239.3994
 01  7 19  3  6 30.0000000  0  5 22 27 13 01 08
  22576373.072    -4924459.520 7  -3824577.53845  22576372.042    22576380.1384
  21739752.377    -9876954.705 8  -7684166.33747  21739752.013    21739759.1464
  20381773.841   -22739385.098 9 -17075285.20348  20381774.071    20381779.0804
  21044697.543   -15449980.416 9 -11599801.51547  21044697.120    21044704.3014
  23211905.976    -3946834.218 8  -3060513.46446  23211905.233    23211913.9294
 01  7 19  3  7  0.0000000  0  5 22 27 13 01 08
  22593837.187    -4832689.017 7  -3753068.08645  22593836.191    22593843.4384
  21729971.547    -9928352.410 9  -7724216.44047  21729971.214    21729978.3814
  20377498.758   -22761851.247 9 -17092791.31548  20377498.961    20377504.0374
  21053100.727   -15405820.840 9 -11565391.48347  21053100.332    21053107.4554
  23195611.853    -4032459.535 8  -3127234.41246  23195611.302    23195620.0744
 01  7 19  3  7 30.0000000  0  5 22 27 13 01 08
  22611368.696    -4740565.238 7                  22611367.516    22611373.6664
  21720230.696    -9979540.847 9  -7764103.48647  21720230.357    21720237.5684
  20373291.293   -22783961.890 9 -17110020.40148  20373291.464    20373296.5484
  21061568.043   -15361325.250 9 -11530719.63447  21061567.620    21061574.7504
  23179349.409    -4117919.385 8  -3193826.47846  23179348.791    23179357.7864
 01  7 19  3  8  0.0000000  0  5 22 27 13 01 08
  22628965.540    -4648088.412 7  -3609223.53954  22628965.095    22628972.2464
  21710530.343   -10030517.654 9  -7803825.63247  21710529.843    21710537.0064
  20369152.141   -22805713.602 9 -17126969.80248  20369152.309    20369157.3034
  21070099.730   -15316491.514 9 -11495784.28847  21070099.254    21070106.4224
  23163118.878    -4203210.510 8  -3260287.03446  23163118.247    23163127.3014
 01  7 19  3  8 30.0000000  0  5 22 27 13 01 08
  22646629.279    -4555259.701 6  -3536889.44544  22646629.555    22646638.1294
  21700870.361   -10081281.171 9  -7843381.58247  21700869.900    21700876.9504
  20365081.745   -22827103.505 9 -17143637.26548  20365081.877    20365086.9134
  21078695.991   -15271317.928 9 -11460584.12247  21078695.513    21078702.5714
  23146920.776    -4288331.026 8  -3326614.64446  23146920.390    23146929.1124
 01  7 19  3  9  0.0000000  0  5 22 27 13 01 08
  22664359.562    -4462084.751 7  -3464285.61644  22664359.231    22664368.9204
  21691250.449   -10131834.187 9  -7882773.50547  21691249.970    21691257.0534
  20361079.892   -22848132.767 9 -17160023.71148  20361080.078    20361085.2154
  21087356.331   -15225807.175 9 -11425121.22347  21087355.927    21087363.0524
  23130755.082    -4373282.865 8  -3392810.76946  23130754.472    23130763.3324
 01  7 19  3  9 30.0000000  0  5 22 27 13 01 08
  22682156.223    -4368569.474 7  -3391416.68944  22682155.697    22682164.0314
  21681670.231   -10182179.190 9  -7922003.35947  21681669.772    21681676.7274
  20357146.486   -22868802.754 9 -17176130.19548  20357146.711    20357151.8314
  21096080.685   -15179961.888 9 -11389397.63647  21096080.177    21096087.0774
  23114620.919    -4458068.116 8  -3458877.09846  23114620.292    23114629.0674
 01  7 19  3 10  0.0000000  0  6 22 27 13 01 08 28
  22700017.447    -4274717.050 7  -3318285.05344  22700016.543    22700022.6094
  21672129.257   -10232316.493 9  -7961071.36147  21672128.898    21672135.8304
  20353281.725   -22889112.483 9 -17191955.96848  20353281.926    20353287.1194
  21104868.536   -15133782.337 9 -11353413.60247  21104868.063    21104874.6804
  23098518.338    -4542686.751 8  -3524813.62146  23098517.779    23098526.6834
  22228558.779    -1450118.61744                  22228557.200    22228564.9814
 01  7 19  3 10 30.0000000  0  6 22 27 13 01 08 28
  22717940.341    -4180528.581 6  -3244891.50644  22717939.380    22717945.3274
  21662627.917   -10282244.690 9  -7999976.41147  21662627.725    21662634.7734
  20349485.860   -22909059.587 9 -17207499.16848  20349486.144    20349491.5404
  21113720.050   -15087267.127 9 -11317168.01447  21113719.596    21113726.2254
  23082448.315    -4627136.562 8  -3590618.55946  23082447.474    23082456.5064
  22211279.102    -1989594.10617  -1520880.61945  22211276.443    22211283.7794
 01  7 19  3 11  0.0000000  0  6 22 27 13 01 08 28
  22735926.781    -4086001.476 7  -3171233.95044  22735926.320    22735933.4624
  21653167.746   -10331958.411 9  -8038714.33247  21653167.534    21653174.6424
  20345760.537   -22928637.394 9 -17222754.58848  20345760.703    20345766.0714
  21122636.651   -15040410.755 9 -11280656.57847  21122636.213    21122642.9174
  23066411.163    -4711412.031 8  -3656287.63446  23066410.317    23066419.1244
  22194056.859    -2080090.717 8  -1591397.38645  22194056.134    22194063.0604
 01  7 19  3 11 30.0000000  0  6 22 27 13 01 08 28
  22753978.377    -3991140.492 7  -3097316.35944  22753977.496    22753984.4774
  21643748.068   -10381459.057 9  -8077286.25247  21643747.836    21643754.8804
  20342105.302   -22947845.801 9 -17237722.17648  20342105.513    20342110.7714
  21131617.972   -14993214.502 9 -11243880.29747  21131617.455    21131624.1644
  23050406.672    -4795513.821 8  -3721821.36046  23050406.066    23050414.8354
  22176896.080    -2170271.858 8  -1661668.36645  22176896.124    22176902.5834
 01  7 19  3 12  0.0000000  0  6 22 27 13 01 08 28
  22772092.583    -3895953.269 7  -3023144.55844  22772091.808    22772097.1584
  21634367.981   -10430750.935 9  -8115695.49047  21634367.759    21634374.9564
  20338519.858   -22966688.304 9 -17252404.63448  20338519.946    20338525.0584
  21140662.981   -14945682.811 9 -11206842.63747  21140662.394    21140669.3644
  23034434.862    -4879445.689 8  -3787222.71846  23034434.303    23034443.1024
  22159794.770    -2260139.785 8  -1731695.23745  22159794.873    22159801.0674
 01  7 19  3 12 30.0000000  0  6 22 27 13 01 08 28
  22790267.769    -3800440.463 7  -2948719.00744  22790267.366    22790271.9994
  21625028.053   -10479832.342 9  -8153940.71847  21625027.845    21625035.0574
  20335004.111   -22985162.232 9 -17266799.89648  20335004.329    20335009.4014
  21149771.888   -14897813.966 9 -11169542.25947  21149771.408    21149778.4114
  23018495.537    -4963205.582 8  -3852490.07746  23018495.247    23018504.0414
  22142754.659    -2349690.497 8  -1801474.91945  22142754.339    22142759.8084
 01  7 19  3 13  0.0000000  0  6 22 27 13 01 08 28
  22808504.709    -3704604.513 7  -2874041.76344  22808504.541    22808509.4924
  21615728.303   -10528703.096 9  -8192021.82047  21615728.103    21615735.2184
  20331559.317   -23003265.216 9 -17280906.10648  20331559.504    20331564.3984
  21158945.183   -14849607.968 9 -11131979.14147  21158944.658    21158951.6794
  23002589.660    -5046792.645 8  -3917622.74646  23002589.268    23002597.5614
  22125774.855    -2438921.770 8  -1871005.70145  22125774.006    22125779.8114
 01  7 19  3 13 30.0000000  0  6 22 27 13 01 08 28
  22826802.365    -3608448.283 7  -2799114.86544  22826802.423    22826808.2564
  21606468.702   -10577362.887 9  -8229938.52447  21606468.413    21606475.5964
  20328185.186   -23020996.197 9 -17294722.44048  20328185.350    20328190.3004
  21168182.558   -14801064.427 9 -11094153.02247  21168182.122    21168189.2754
  22986716.820    -5130206.168 8  -3982620.17646  22986716.088    22986724.3434
  22108855.921    -2527830.830 8  -1940285.41345  22108854.979    22108860.9164
 01  7 19  3 14  0.0000000  0  6 22 27 13 01 08 28
  22845161.165    -3511975.672 7  -2723941.43744  22845160.335    22845167.3614
  21597248.937   -10625812.231 9  -8267691.25847  21597248.796    21597255.9884
  20324881.844   -23038354.564 9 -17308248.42748  20324882.087    20324887.1114
  21177484.368   -14752184.008 9 -11056064.39347  21177483.893    21177490.9424
  22970876.387    -5213446.303 8  -4047482.50446  22970875.774    22970884.3064
  22091998.012    -2616416.304 8  -2009312.96745  22091997.260    22092003.0664
 01  7 19  3 14 30.0000000  0  6 22 27 13 01 08 28
  22863579.294    -3415188.988 7  -2648523.30944  22863578.386    22863585.1244
  21588069.664   -10674050.445 9  -8305279.47647  21588069.430    21588076.4844
  20321649.930   -23055338.606 9 -17321482.74548  20321650.094    20321655.0644
  21186850.060   -14702966.170 9 -11017712.85547  21186849.609    21186856.8254
  22955069.202    -5296511.728 8  -4112208.70746  22955068.747    22955077.5144
  22075202.289                    -2078086.29845  22075201.706    22075207.4384
 01  7 19  3 15  0.0000000  0  6 22 27 13 01 08 28
  22882055.517    -3318088.058 6  -2572860.32344  22882054.545    22882062.2504
  21578931.010   -10722074.940 9  -8342701.15347  21578930.657    21578937.4774
  20318490.081   -23071944.389 9 -17334422.29348  20318490.222    20318495.1464
  21196280.520   -14653408.557 9 -10979096.54847  21196280.131    21196287.4314
  22939296.059    -5379399.527 8  -4176796.51346  22939295.716    22939304.3964
  22058469.994    -2792603.65718  -2146601.65445  22058469.340    22058474.9644
 01  7 19  3 15 30.0000000  0  6 22 27 13 01 08 28
  22900591.101    -3220675.373 7  -2496954.27444  22900590.979    22900598.6184
  21569832.970   -10769885.321 9  -8379956.00847  21569832.675    21569839.3204
  20315402.499   -23088170.352 9 -17347065.89548  20315402.579    20315407.4324
  21205775.812   -14603510.622 9 -10940215.03447  21205775.348    21205782.7214
  22923556.792    -5462108.601 8  -4241245.01646  22923556.642    22923565.3414
  22041800.637                                    22041800.290    22041805.7054
 01  7 19  3 16  0.0000000  0  6 22 27 13 01 08 28
  22919186.837    -3122958.699 7  -2420811.49544  22919186.395    22919193.8094
  21560774.811   -10817486.350 9  -8417047.71847  21560774.506    21560781.2244
  20312386.458   -23104020.014 9 -17359416.27348  20312386.557    20312391.3854
  21215334.752   -14553277.202 9 -10901072.13847  21215334.429    21215341.8024
  22907851.035    -5544643.276 8  -4305557.63946  22907850.666    22907859.4654
  22025194.997    -2282854.60155                  22025194.555    22025200.3044
 01  7 19  3 16 30.0000000  0  6 22 27 13 01 08 28
  22937839.809    -3024945.078 7  -2344437.31844  22937838.783    22937845.7374
  21551755.872   -10864881.611 9  -8453979.08647  21551755.470    21551762.3234
  20309441.468   -23119495.731 9 -17371475.26948  20309441.606    20309446.4924
  21224957.009   -14502712.030 9 -10861670.73047  21224956.638    21224963.9274
  22892177.848    -5627006.810 8  -4369736.93046  22892177.245    22892186.1204
  22008652.233    -2350595.28045                  22008651.597    22008657.4934
 01  7 19  3 17  0.0000000  0  6 22 27 13 01 08 28
  22956547.903    -2926633.174 6  -2267830.62444  22956546.816    22956554.1724
  21542776.926   -10912067.143 9  -8490747.02247  21542776.326    21542783.2494
  20306568.693   -23134592.359 9 -17383238.86748  20306568.825    20306573.7504
  21234643.064   -14451811.267 9 -10822007.82347  21234642.693    21234649.8034
  22876537.848    -5709194.645 8  -4433779.32146  22876537.443    22876546.4054
  21992172.842    -2418074.30345                  21992172.227    21992178.5264
 01  7 19  3 17 30.0000000  0  6 22 27 13 01 08 28
  22975312.643    -2828021.171 6  -2190990.11244  22975311.443    22975319.3744
  21533838.362   -10959038.837 9  -8527348.33847  21533837.934    21533844.7584
  20303769.034   -23149304.683 9 -17394703.01348  20303769.153    20303774.0784
  21244393.654   -14400570.842 9 -10782080.22347  21244393.343    21244400.4974
  22860932.627    -5791202.045 8  -4497681.11646  22860932.006    22860940.7504
  21975758.493    -3227250.37218  -2485287.11255  21975757.910    21975764.6304
 01  7 19  3 18  0.0000000  0  6 22 27 13 01 08 28
  22994135.158    -2729116.905 7  -2113922.01244  22994133.716    22994140.5534
  21524939.926   -11005801.389 9  -8563786.68547  21524939.414    21524946.1174
  20301041.876   -23163636.267 9 -17405870.48148  20301042.001    20301046.8294
  21254208.032   -14348995.468 9 -10741891.62747  21254207.709    21254215.0624
  22845360.819    -5873033.528 8  -4561445.82146  22845359.877    22845368.1814
  21959408.627                                    21959408.158    21959415.4734
 01  7 19  3 18 30.0000000  0  6 22 27 13 01 08 28
  23013012.233    -2629924.900 7  -2036629.61344  23013011.195    23013015.4774
  21516080.943   -11052355.774 9  -8600062.82047  21516080.398    21516087.1564
  20298387.215   -23177586.866 9 -17416741.07348  20298387.309    20298392.1524
  21264086.001   -14297086.341 9 -10701442.98847  21264085.749    21264093.1334
  22829822.040    -5954689.372 8  -4625073.65046  22829821.104    22829829.4094
  21943124.072                                    21943123.114    21943130.4054
 01  7 19  3 19  0.0000000  0  6 22 27 13 01 08 28
  23031942.421    -2530443.507 7  -1959111.63444  23031941.371    23031946.1974
  21507262.326   -11098697.474 9  -8636173.23947  21507261.792    21507268.6144
  20295806.000   -23191150.861 9 -17427310.41148  20295806.106    20295811.0094
  21274028.618   -14244839.137 9 -10660730.91147  21274028.257    21274035.4984
  22814317.643    -6036164.752 8  -4688560.86146  22814316.837    22814325.2754
  21926905.198    -2685332.31955                  21926904.479    21926911.2454
 01  7 19  3 19 30.0000000  0  6 22 27 13 01 08 28
  23050926.703    -2430673.049 7  -1881368.45144  23050926.178    23050932.2094
  21498484.665   -11144824.471 9  -8672116.33947  21498484.139    21498490.7734
  20293298.985   -23204324.970 9 -17437575.94748  20293299.141    20293304.1424
  21284035.606   -14192251.839 9 -10619753.82047  21284035.279    21284042.5804
  22798848.237    -6117456.899 8  -4751905.31546  22798847.566    22798855.8614
  21910753.360    -3568854.65618  -2751472.04445  21910752.612    21910759.0524
 01  7 19  3 20  0.0000000  0  6 22 27 13 01 08 28
  23069966.683    -2330619.317 7  -1803404.54544  23069965.775    23069971.7494
  21489747.295   -11190739.683 9  -8707894.39747  21489746.788    21489753.3964
  20290865.783   -23217111.345 9 -17447539.35448  20290865.876    20290871.0714
  21294106.764   -14139327.594 9 -10578514.19847  21294106.457    21294113.7664
  22783413.013    -6198568.584 8  -4815109.19646  22783412.492    22783420.4164
  21894667.946    -3653384.132 8  -2817339.05845  21894667.158    21894673.8094
 01  7 19  3 20 30.0000000  0  6 22 27 13 01 08 28
  23089059.063    -2230287.664 7  -1725224.06244  23089058.406    23089064.5004
  21481049.548   -11236445.348 9  -8743509.20147  21481049.189    21481055.8824
  20288506.110   -23229510.571 9 -17457201.08448  20288506.289    20288511.7014
  21304241.775   -14086068.625 9 -10537013.72647  21304241.311    21304248.5694
  22768011.845    -6279501.435 8  -4878173.69046  22768011.364    22768019.0394
  21878649.102    -3737563.628 8  -2882933.40845  21878648.346    21878655.1954
 01  7 19  3 21  0.0000000  0  6 22 27 13 01 08 28
  23108204.304    -2129679.603 7  -1646828.20844  23108203.653    23108209.4324
  21472392.134   -11281939.721 9  -8778959.35647  21472391.783    21472398.4564
  20286220.880   -23241519.823 9 -17466558.94548  20286221.051    20286226.3754
  21314440.692   -14032473.414 9 -10495251.25447  21314440.210    21314447.3314
  22752645.061    -6360253.185 8  -4941097.08446  22752644.782    22752652.4644
  21862697.489    -3821389.444 8  -2948252.14645  21862696.860    21862703.5084
 01  7 19  3 21 30.0000000  0  6 22 27 13 01 08 28
  23127401.721    -2028797.374 7  -1568218.76144  23127400.884    23127406.8834
  21463775.132   -11327222.647 9  -8814244.74447  21463774.678    21463781.3074
  20284010.074   -23253137.766 9 -17475611.89448  20284010.242    20284015.4374
  21324703.521   -13978542.043 9 -10453226.83447  21324703.035    21324710.1014
  22737313.154    -6440823.001 8  -5003878.69946  22737312.796    22737320.8114
  21846813.513    -3904859.628 8  -3013293.76945  21846812.927    21846819.4834
 01  7 19  3 22  0.0000000  0  6 22 27 13 01 08 28
  23146650.534    -1927644.710 7  -1489398.55944  23146649.408    23146656.5084
  21455198.015   -11372295.104 9  -8849366.11947  21455197.666    21455204.3694
  20281873.631   -23264364.534 9 -17484360.02348  20281873.841    20281879.0784
  21335030.003   -13924275.707 9 -10410941.40447  21335029.576    21335036.7424
  22722015.775    -6521211.792 8  -5066519.25246  22722015.336    22722023.3024
  21830996.997    -3987972.862 8  -3078057.22545  21830996.617    21831003.7824
 01  7 19  3 22 30.0000000  0  6 22 27 13 01 08 28
  23165950.084    -1826223.150 7  -1410368.79644  23165949.027    23165957.0424
  21446661.226   -11417155.679 9  -8884322.39247  21446660.956    21446667.8584
  20279812.069   -23275197.604 9 -17492801.36548  20279812.268    20279817.5914
  21345420.513   -13869673.380 9 -10368394.16947  21345419.994    21345427.3614
  22706753.042    -6601417.657 8  -5129017.21746  22706752.344    22706760.6134
  21815249.049    -4070725.845 8  -3142540.02245  21815248.948    21815256.2644
 01  7 19  3 23  0.0000000  0  6 22 27 13 01 08 28
  23185300.440    -1724536.033 7  -1331132.09644  23185299.590    23185306.9634
  21438164.814   -11461804.239 9  -8919113.46847  21438164.627    21438171.5814
  20277825.774   -23285635.488 9 -17500934.77748  20277826.033    20277831.3094
  21355874.854   -13814735.026 9 -10325585.09247  21355874.396    21355881.7544
  22691524.791    -6681439.870 8  -5191372.11246  22691524.245    22691532.7634
  21799570.609    -4153116.561 8  -3206740.53445  21799570.550    21799577.5144
 01  7 19  3 23 30.0000000  0  6 22 27 13 01 08 28
  23204700.331    -1622586.624 7  -1251690.99944  23204699.391    23204706.7444
  21429708.928   -11506241.103 9  -8953739.56847  21429708.691    21429715.6704
  20275915.011   -23295677.492 9 -17508759.70248  20275915.196    20275920.2784
  21366392.990   -13759461.053 9 -10282514.51047  21366392.544    21366400.0824
  22676331.761    -6761278.207 8  -5253583.69346  22676331.482    22676340.0844
  21783961.860                    -3270657.53645  21783961.507    21783968.3034
 01  7 19  3 24  0.0000000  0  6 22 27 13 01 08 28
  23224150.239    -1520376.484 7  -1172046.76544  23224149.507    23224156.4314
  21421293.328   -11550465.752 9  -8988200.31047  21421293.057    21421300.1614
  20274079.786   -23305321.990 9 -17516274.88448  20274079.897    20274084.9334
  21376975.139   -13703850.950 9 -10239182.00147  21376974.818    21376982.2574
  22661174.069    -6840931.895 8  -5315651.44846  22661173.707    22661182.5174
  21768422.432                    -3334288.91945  21768422.404    21768428.5494
 01  7 19  3 24 30.0000000  0  6 22 27 13 01 08 28
  23243648.911    -1417911.610 7  -1092204.10744  23243648.088    23243654.8894
  21412917.487   -11594481.264 9  -9022498.09547  21412917.256    21412924.3184
  20272319.725   -23314571.262 9 -17523482.11348  20272319.905    20272324.9064
  21387620.955   -13647908.249 9 -10195590.31847  21387620.638    21387627.9024
  22646051.489    -6920403.229 8  -5377577.08046  22646050.875    22646059.4514
  21752952.971    -4398098.73518  -3397635.63545  21752952.724    21752958.4144
 01  7 19  3 25  0.0000000  0  6 22 27 13 01 08 28
  23263195.506    -1315193.968 7  -1012164.45844  23263194.833    23263201.3624
  21404581.514   -11638286.615 9  -9056632.11247  21404581.327    21404588.4764
  20270635.454   -23323422.659 9 -17530379.30248  20270635.522    20270640.5424
  21398330.114   -13591632.088 9 -10151738.79047  21398329.715    21398336.9784
  22630963.708    -6999690.978 8  -5439359.67546  22630963.011    22630971.2914
  21737553.057    -4479025.417 8  -3460695.33845  21737552.775    21737558.3004
 01  7 19  3 25 30.0000000  0  6 22 27 13 01 08 28
  23282789.617    -1212225.860 7   -931929.67044  23282788.683    23282795.0624
  21396285.639   -11681880.631 9  -9090601.46947  21396285.460    21396292.6994
  20269026.881   -23331874.245 9 -17536964.93848  20269027.065    20269032.3004
  21409102.760   -13535021.545 9 -10107626.70247  21409102.337    21409109.5324
  22615910.607    -7078793.535 8  -5500997.94946  22615910.072    22615918.6854
  21722223.765    -4559580.611 8  -3523465.57546  21722223.557    21722229.3734
 01  7 19  3 26  0.0000000  0  6 22 27 13 01 08 28
  23302431.213    -1109009.308 7   -851501.31144  23302430.183    23302436.2444
  21388030.391   -11725262.888 9  -9124405.80947  21388030.095    21388037.0884
  20267495.000   -23339924.247 9 -17543237.66848  20267495.235    20267500.4004
  21419939.003   -13478076.292 9 -10063253.80147  21419938.645    21419945.9304
  22600893.024    -7157710.064 8  -5562491.28746  22600892.707    22600901.2214
  21706965.852    -4639762.109 8  -3585944.60246  21706965.441    21706971.8434
 01  7 19  3 26 30.0000000  0  6 22 27 13 01 08 28
  23322118.686    -1005546.522 7   -770880.96144  23322117.557    23322125.0324
  21379815.409   -11768432.907 9  -9158044.77747  21379815.052    21379821.9834
  20266039.856   -23347571.389 9 -17549196.47148  20266040.063    20266045.1374
  21430839.026   -13420796.425 9 -10018620.15447  21430838.719    21430846.0384
  22585911.621    -7236439.485 8  -5623838.80846  22585911.109    22585919.3654
  21691779.077    -4719567.505 8  -3648130.57546  21691778.814    21691785.4484
 01  7 19  3 27  0.0000000  0  6 22 27 13 01 08 28
  23341852.606     -901840.056 7   -690070.67744  23341852.013    23341860.4294
  21371640.882   -11811390.445 9  -9191518.16747  21371640.401    21371647.3534
  20264661.433   -23354814.624 9 -17554840.55448  20264661.707    20264666.7884
  21441802.900   -13363181.955 9  -9973725.80947  21441802.548    21441810.0384
  22570965.643    -7314981.421 8  -5685040.26246  22570965.096    22570973.2764
  21676664.387    -4798994.620 8  -3710021.77846  21676664.238    21676670.6934
 01  7 19  3 27 30.0000000  0  6 22 27 13 01 08 28
  23361632.480     -797894.933 7   -609074.46144  23361631.719    23361640.8744
  21363506.514   -11854137.054 9  -9224827.20347  21363506.023    21363512.9034
  20263359.961   -23361654.251 9 -17560170.13748  20263360.178    20263365.1824
  21452830.019   -13305234.841 9  -9928572.24947  21452829.605    21452837.0114
  22556055.481    -7393336.663 8  -5746096.24146  22556054.798    22556062.8204
  21661622.042    -4878043.103 8  -3771617.91946  21661621.722    21661628.3094
 01  7 19  3 28  0.0000000  0  6 22 27 13 01 08 28
  23381457.872     -693714.402 7   -527894.86244  23381457.273    23381465.5304
  21355412.066   -11896673.272 9  -9257972.27647  21355411.636    21355418.5654
  20262135.239   -23368089.960 9 -17565184.96648  20262135.456    20262140.4554
  21463919.965   -13246955.693 9  -9883159.92747  21463919.628    21463927.3184
  22541180.563    -7471505.673 8  -5807007.06446  22541179.706    22541187.7624
  21646651.625    -4956711.798 8  -3832918.14146  21646651.425    21646658.3254
 01  7 19  3 28 30.0000000  0  6 22 27 13 01 08 28
  23401328.687     -589301.958 7   -446534.61744  23401327.146    23401334.1554
  21347357.538   -11939000.136 9  -9290954.21947  21347357.122    21347364.0404
  20260987.558   -23374121.422 9 -17569884.79948  20260987.770    20260992.7064
  21475073.007   -13188345.861 9  -9837489.96747  21475072.706    21475080.5274
  22526340.371    -7549488.922 8  -5867773.15646  22526339.740    22526348.0984
  21631753.940    -5034999.906 8  -3893921.80046  21631753.559    21631760.4694
 01  7 19  3 29  0.0000000  0  6 22 27 13 01 08 28
  23421241.381     -484657.736 6   -364993.74844  23421240.726    23421247.8884
  21339343.204   -11981115.086 9  -9323771.04347  21339342.840    21339349.6954
  20259917.598   -23379744.875 9 -17574266.70748  20259917.751    20259922.5694
  21486289.592   -13129402.945 9  -9791560.47647  21486289.261    21486297.0604
  22511536.379    -7627283.012 8  -5928391.81946  22511535.878    22511544.3974
  21616928.946    -5112902.600 8  -3954625.14046  21616928.782    21616935.8864
 01  7 19  3 29 30.0000000  0  6 22 27 13 01 08 28
  23441197.391     -379781.369 6                  23441197.065    23441205.4564
  21331370.000   -12023014.664 9  -9356420.04747  21331369.650    21331376.4644
  20258925.875   -23384956.203 9 -17578327.49748  20258926.077    20258930.9204
  21497569.912   -13070124.096 9  -9745369.18047  21497569.623    21497577.5014
  22496769.257    -7704884.591 8  -5988860.52146  22496768.861    22496777.2284
  21602178.957    -5190414.934 8  -4015024.28846  21602178.673    21602185.6804
 01  7 19  3 30  0.0000000  0  6 22 27 13 01 08 28
  23461198.283     -274680.964 7   -201375.38654  23461197.859    23461205.8214
  21323436.844   -12064703.702 9  -9388904.98847  21323436.512    21323443.3814
  20258012.038   -23389759.269 9 -17582070.14248  20258012.190    20258017.0394
  21508913.250   -13010514.439 9  -9698920.13847  21508912.989    21508920.7524
  22482037.983    -7782298.176 8  -6049182.72346  22482037.599    22482045.7194
  21587502.630    -5267539.865 8  -4075121.56746  21587502.233    21587509.0804
 01  7 19  3 30 30.0000000  0  6 22 27 13 01 08 28
  23481241.600     -169361.193 7   -119308.11744  23481240.676    23481248.0184
  21315543.264   -12106184.397 9  -9421227.59147  21315542.977    21315549.7374
  20257175.550   -23394155.305 9 -17585495.62348  20257175.669    20257180.5584
  21520319.375   -12950576.463 9  -9652215.24747  21520318.963    21520326.5614
  22467342.270    -7859525.015 8  -6109359.40446  22467341.912    22467349.7964
  21572899.769    -5344277.918 8  -4134917.39046  21572899.492    21572906.3184
 01  7 19  3 31  0.0000000  0  6 22 27 13 01 08 28
  23501324.356      -63821.226 7    -37069.21744  23501323.396    23501331.5044
  21307690.180   -12147453.377 9  -9453385.23447  21307689.833    21307696.3584
  20256417.236   -23398139.850 9 -17588600.47748  20256417.384    20256422.3674
  21531788.326   -12890306.988 9  -9605252.06547  21531787.974    21531795.3264
  22452682.642    -7936561.704 8  -6169387.93146  22452682.262    22452690.2574
  21558371.630    -5420623.512 8  -4194407.41646  21558371.430    21558378.1144
 01  7 19  3 31 30.0000000  0  6 22 27 13 01 08 28
  23521449.072       41938.302 7     45340.79244  23521447.921    23521456.9604
  21299877.762   -12188508.496 9  -9485376.21347  21299877.322    21299883.8484
  20255737.874   -23401709.541 9 -17591382.05648  20255738.024    20255743.1854
  21543320.523   -12829704.410 9  -9558029.29147  21543320.230    21543327.5434
  22438059.689    -8013405.572 8  -6229266.22046  22438059.085    22438067.3364
  21543919.197    -5496573.129 9  -4253588.88947  21543918.865    21543925.3104
 01  7 19  3 32  0.0000000  0  6 22 27 13 01 08 28
  23541615.212      147911.673 7    127917.34444  23541614.317    23541623.3654
  21292105.477   -12229352.144 9  -9517202.41647  21292105.023    21292111.6504
  20255137.165   -23404865.980 9 -17593841.62748  20255137.370    20255142.4424
  21554915.724   -12768771.489 9  -9510549.14147  21554915.373    21554922.9044
  22423473.025    -8090058.474 8  -6288995.70946  22423472.463    22423480.6814
  21529541.783    -5572127.255 8  -4312462.20147  21529541.379    21529547.7754
 01  7 19  3 32 30.0000000  0  6 22 27 13 01 08 28
  23561821.520      254096.711 7    210658.79344  23561821.249    23561829.8964
  21284373.573   -12269983.481 9  -9548863.15947  21284373.095    21284379.8034
  20254615.480   -23407607.448 9 -17595977.83948  20254615.632    20254620.6364
  21566573.684   -12707507.807 9  -9462811.21647  21566573.442    21566580.8154
  22408922.885    -8166519.485 8  -6348575.63446  22408922.366    22408930.6384
  21515239.809    -5647283.470 9  -4371025.44047  21515239.540    21515245.9504
 01  7 19  3 33  0.0000000  0  6 22 27 13 01 08 28
  23582067.780      360490.002 7                  23582067.604    23582074.8374
  21276681.752   -12310403.707 9  -9580359.42747  21276681.380    21276688.0794
  20254172.558   -23409934.336 9 -17597790.98648  20254172.798    20254177.7494
  21578294.619   -12645914.773 9  -9414816.67447  21578294.228    21578301.5294
  22394409.367    -8242788.872 8  -6408006.27646  22394408.714    22394416.8694
  21501013.950    -5722041.015 9  -4429278.02047  21501013.588    21501019.8944
 01  7 19  3 33 30.0000000  0  6 22 27 13 01 08 28
  23602352.112      467089.603 7    376627.07354  23602351.463    23602361.2324
  21269030.432   -12350612.168 9  -9611690.67947  21269029.997    21269036.5924
  20253809.055   -23411844.919 9 -17599279.74548  20253809.250    20253814.1094
  21590078.197   -12583992.145 9  -9366565.31947  21590077.710    21590085.1784
  22379932.424    -8318866.141 8  -6467287.18546  22379931.725    22379939.5054
  21486864.335    -5796397.442 8  -4487218.03447  21486864.043    21486870.3074
 01  7 19  3 34  0.0000000  0  6 22 27 13 01 08 28
  23622676.760      573892.511 7    459850.10344  23622675.341    23622686.0554
  21261419.131   -12390608.934 9  -9642856.96547  21261418.746    21261425.5474
  20253524.773   -23413338.350 9 -17600443.45548  20253524.996    20253529.8514
  21601924.211   -12521740.530 9  -9318057.58747  21601923.729    21601931.2004
  22365491.914    -8394750.827 8  -6526417.98646  22365491.193    22365499.2454
  21472791.203    -5870351.243 8  -4544844.30747  21472790.947    21472797.3094
 01  7 19  3 34 30.0000000  0  6 22 27 13 01 08 28
  23643038.680      680895.860 6    543229.22844  23643037.145    23643047.4294
  21253848.290   -12430393.502 9  -9673857.90147  21253847.927    21253854.8074
  20253320.340   -23414412.973 9 -17601280.83048  20253320.548    20253325.2824
  21613832.716   -12459159.716 8  -9269293.32547  21613832.316    21613839.8784
  22351088.107    -8470441.671 8  -6585397.84546  22351087.525    22351095.6764
  21458795.060    -5943900.208 8  -4602155.12247  21458794.925    21458801.3464
 01  7 19  3 35  0.0000000  0  6 22 27 13 01 08 28
  23663438.601      788097.550 7    626763.12344  23663437.042    23663447.3534
  21246318.010   -12469965.508 9  -9704693.20847  21246317.640    21246324.6124
  20253195.878   -23415067.677 9 -17601790.98848  20253196.004    20253200.7554
  21625803.935   -12396249.825 9  -9220272.65947  21625803.617    21625811.3214
  22336721.657    -8545938.062 8  -6644226.16346  22336720.970    22336729.0144
  21444876.837    -6017042.133 8  -4659148.77147  21444876.621    21444882.7044
 01  7 19  3 35 30.0000000  0  6 22 27 13 01 08 28
  23683875.933      895492.463 6    710447.43444  23683874.721    23683883.8814
  21238827.593   -12509327.691 9  -9735365.01947  21238827.206    21238834.2174
  20253150.888   -23415304.115 9 -17601975.21948  20253151.055    20253155.7904
  21637837.581   -12333014.109 9  -9170998.10247  21637837.157    21637844.8824
  22322391.640    -8621242.668 8  -6702905.04246  22322391.020    22322398.8824
  21431035.593    -6089778.146 8  -4715826.11847  21431035.243    21431041.3084
 01  7 19  3 36  0.0000000  0  6 22 27 13 01 08 28
  23704349.456     1003080.07616                  23704348.075    23704357.6654
  21231377.680   -12548477.536 9  -9765871.37047  21231377.184    21231384.1424
  20253186.084   -23415119.150 9 -17601831.08948  20253186.271    20253191.0864
  21649933.224   -12269450.564 9  -9121468.10647  21649932.943    21649940.6624
  22308098.770    -8696352.051 8  -6761431.76046  22308097.975    22308105.9894
  21417272.299    -6162103.970 9  -4772183.85547  21417272.041    21417278.1984
 01  7 19  3 36 30.0000000  0  5 27 13 01 08 28
  21223968.878   -12587411.092 9  -9796209.18147  21223968.432    21223975.2574
  20253302.369   -23414507.962 9 -17601354.83848  20253302.501    20253307.4664
  21662092.157   -12205555.433 8  -9071679.72447  21662091.766    21662099.4874
  22293843.696    -8771262.177 8  -6819803.21846  22293843.093    22293851.0204
  21403588.650    -6234014.186 9  -4828217.74747  21403588.134    21403594.3744
 01  7 19  3 37  0.0000000  0  5 27 13 01 08 28
  21216601.360   -12626127.974 9  -9826378.15547  21216600.833    21216607.6144
  20253499.900   -23413469.170 9 -17600545.37648  20253500.094    20253505.1604
  21674314.089   -12141328.842 9  -9021633.03847  21674313.764    21674321.5134
  22279627.013    -8845972.432 8  -6878018.95546  22279626.296    22279633.9084
  21389984.071    -6305506.698 9  -4883926.16247  21389983.473    21389989.7214
 01  7 19  3 37 30.0000000  0  6 27 13 01 08 31 28
  21209273.115   -12664638.464 9  -9856386.30647  21209272.526    21209279.1524
  20253777.220   -23412012.141 9 -17599410.01248  20253777.421    20253782.4094
  21686597.119   -12076781.734 8  -8971336.62147  21686596.692    21686604.3964
  22265446.339    -8920492.402 8  -6936086.42846  22265445.633    22265452.9714
  23528182.569                                    23528186.615    23528184.8804
  21376457.194    -6376590.090 9  -4939315.76647  21376456.717    21376462.8904
 01  7 19  3 38  0.0000000  0  6 27 13 01 08 31 28
  21201985.137   -12702936.683 9  -9886229.05847  21201984.592    21201991.3414
  20254135.496   -23410130.328 9 -17597943.67248  20254135.653    20254140.5094
  21698941.902   -12011908.717 8  -8920786.25147  21698941.506    21698949.2584
  22251302.849    -8994816.263 8  -6994001.04346  22251302.184    22251309.5344
  23512565.235                                    23512569.407    23512574.2584
  21363009.714    -6447257.290 9  -4994381.06047  21363009.187    21363015.5334
 01  7 19  3 38 30.0000000  0  7 27 13 10 01 08 31 28
  21194737.569   -12741023.109 9  -9915906.76647  21194737.089    21194743.8594
  20254574.388   -23407823.462 9 -17596146.11648  20254574.590    20254579.5204
  24569685.176                                    24569687.379    24569670.5974
  21711348.569   -11946710.868 9  -8869982.75447  21711348.236    21711356.0054
  22237196.686    -9068943.651 8  -7051762.61846  22237196.229    22237203.6724
  23496997.343    -1283459.69054                  23496994.529    23497004.2644
  21349641.682    -6517506.934 9  -5049121.00047  21349641.171    21349647.6344
 01  7 19  3 39  0.0000000  0  7 27 13 10 01 08 31 28
  21187529.802   -12778900.137 9  -9945421.30147  21187529.309    21187536.0714
  20255093.910   -23405093.117 9 -17594018.57248  20255094.140    20255098.9874
  24553660.505                                    24553663.862    24553661.6474
  21723816.623   -11881191.185 9  -8818928.49147  21723816.285    21723824.0764
  22223127.768    -9142877.079 8  -7109373.02046  22223127.209    22223134.5814
  23481474.131    -1746357.25817  -1347017.80245  23481472.715    23481481.0164
  21336352.943    -6587339.872 9  -5103536.23347  21336352.461    21336358.7564
 01  7 19  3 39 30.0000000  0  6 27 13 01 08 31 28
  21180361.653   -12816568.724 9  -9974773.43847  21180361.241    21180367.8684
  20255694.219   -23401939.304 9 -17591561.04948  20255694.345    20255699.1234
  21736345.763   -11815351.064 9  -8767624.53247  21736345.321    21736352.8774
  22209095.311    -9216617.146 8  -7166832.75846  22209094.844    22209102.3004
  23466000.572    -1827669.600 8  -1410377.94145  23466001.085    23466008.1594
  21323143.443    -6656755.594 9  -5157626.34447  21323142.876    21323149.2144
 01  7 19  3 40  0.0000000  0  6 27 13 01 08 31 28
  21173234.144   -12854024.175 9 -10003959.47347  21173233.676    21173240.2404
  20256375.992   -23398356.630 9 -17588769.35448  20256376.073    20256381.0014
  21748936.640   -11749186.312 9  -8716067.61647  21748936.184    21748943.4654
  22195100.587    -9290158.421 8  -7224137.61146  22195100.222    22195107.8224
  23450577.279    -1908719.917 7  -1473533.83545  23450576.025    23450584.8064
  21310014.346    -6725747.876 9  -5211386.50947  21310014.015    21310020.4154
 01  7 19  3 40 30.0000000  0  6 27 13 01 08 31 28
  21166147.245   -12891264.547 9 -10032977.93147  21166146.882    21166153.4794
  20257139.768   -23394342.144 9 -17585641.19448  20257139.934    20257144.9984
  21761589.714   -11682695.476 9  -8664256.60947  21761589.125    21761596.3674
  22181144.298    -9363498.581 8  -7281285.77046  22181144.023    22181151.4614
  23435203.793    -1989502.877 8  -1536481.49045  23435202.666    23435212.4904
  21296966.573    -6794313.097 9  -5264813.88547  21296966.237    21296972.7954
 01  7 19  3 41  0.0000000  0  6 27 13 01 08 31 28
  21159101.976   -12928287.196 9 -10061826.73447  21159101.599    21159108.1944
  20257986.559   -23389892.296 9 -17582173.78448  20257986.727    20257991.7074
  21774304.709   -11615876.269 8  -8612189.73147  21774304.243    21774311.6364
  22167227.047    -9436634.492 8  -7338274.74646  22167226.629    22167234.1884
  23419883.578    -2070012.565 8  -1599216.17545  23419882.822    23419892.1784
  21284001.155    -6862446.963 9  -5317905.16647  21284000.793    21284007.1984
 01  7 19  3 41 30.0000000  0  7 27 13 10 01 08 31 28
  21152096.741   -12965099.144 9 -10090511.34147  21152096.359    21152103.0904
  20258914.933   -23385013.834 9 -17578372.39148  20258915.105    20258919.9864
  24474543.082                                    24474541.048    24474550.1074
  21787080.875   -11548736.647 9  -8559873.16647  21787080.418    21787087.8124
  22153346.994    -9509573.408 8  -7395110.19946  22153346.598    22153354.4704
  23404614.457    -2150253.118 8  -1661741.11645  23404613.654    23404622.9954
  21271116.840    -6930154.978 9  -5370664.62247  21271116.453    21271122.7334
 01  7 19  3 42  0.0000000  0  6 27 13 01 08 31 28
  21145131.876   -13001699.442 9 -10119031.02247  21145131.480    21145138.2544
  20259925.343   -23379704.604 9 -17574235.32048  20259925.436    20259930.3184
  21799918.310   -11481275.875 8  -8507306.37147  21799917.771    21799925.3064
  22139505.395    -9582313.503 8  -7451790.76346  22139504.809    22139512.3754
  23389397.195    -2230220.354 8  -1724053.12845  23389396.358    23389405.6734
  21258313.884    -6997434.719 9  -5423090.34947  21258313.456    21258319.6844
 01  7 19  3 42 30.0000000  0  6 27 13 01 08 31 28
  21138207.223   -13038089.417 9 -10147386.81947  21138206.804    21138213.5054
  20261017.350   -23373965.554 9 -17569763.33248  20261017.510    20261022.4114
  21812816.381   -11413496.115 8  -8454491.01347  21812815.832    21812823.5044
  22125701.294    -9654855.634 8  -7508317.06846  22125700.566    22125707.8874
  23374232.330    -2309912.414 8  -1786150.68145  23374231.557    23374240.5024
  21245592.513    -7064286.313 9  -5475182.46347  21245592.053    21245598.2384
 01  7 19  3 43  0.0000000  0  6 27 13 01 08 31 28
  21131322.911   -13074265.554 9 -10175576.01247  21131322.580    21131329.5124
  20262192.025   -23367792.216 9 -17564952.93148  20262192.206    20262197.0694
  21825775.536   -11345394.365 8  -8401424.77047  21825775.091    21825782.8704
  22111935.001    -9727196.414 8  -7564686.48247  22111934.586    22111942.0224
  23359120.877    -2389322.285 8  -1848028.37645  23359120.117    23359128.9064
  21232953.626    -7130704.709 9  -5526937.02647  21232953.072    21232959.1644
 01  7 19  3 43 30.0000000  0  6 27 13 01 08 31 28
  21124479.390   -13110228.510 9 -10203599.09147  21124479.077    21124486.0164
  20263449.500   -23361184.562 9 -17559804.12048  20263449.666    20263454.4914
  21838795.773   -11276971.760 8  -8348108.48847  21838795.357    21838803.4874
  22098207.165    -9799335.991 8  -7620899.07747  22098206.770    22098214.4154
  23344063.914    -2468447.634 8  -1909684.35745  23344063.111    23344071.6374
  21220397.127    -7196688.886 9  -5578353.22647  21220396.566    21220402.6784
 01  7 19  3 44  0.0000000  0  6 27 13 01 08 31 28
  21117676.411   -13145979.456 9 -10231456.95447  21117675.987    21117682.8354
  20264789.348   -23354143.157 9 -17554317.32348  20264789.558    20264794.3664
  21851876.850   -11208230.196 8  -8294543.66647  21851876.450    21851884.6244
  22084517.548    -9871275.135 8  -7676955.51247  22084517.256    22084524.7674
  23329061.553    -2547286.391 8  -1971117.03845  23329060.748    23329068.7704
  21207922.971    -7262239.099 9  -5629431.28347  21207922.640    21207928.8224
 01  7 19  3 44 30.0000000  0  6 27 13 01 08 31 28
  21110913.652   -13181518.288 9 -10259149.53147  21110913.229    21110920.0344
  20266211.909   -23346667.074 9 -17548491.81048  20266212.104    20266217.0584
  21865018.749   -11139170.326 9  -8240730.83847  21865018.382    21865026.2444
  22070866.370    -9943013.283 8  -7732855.32147  22070866.097    22070873.3904
  23314113.716    -2625835.188 8  -2032323.84045  23314113.105    23314121.2664
  21195532.435    -7327353.577 9  -5680169.78247  21195531.968    21195537.9044
 01  7 19  3 45  0.0000000  0  6 27 13 01 08 31 28
  21104191.320   -13216844.061 9 -10286676.09147  21104190.933    21104197.7174
  20267717.525   -23338754.733 9 -17542326.36148  20267717.751    20267722.9094
  21878221.291   -11069791.917 9  -8186669.79347  21878220.843    21878228.5664
  22057253.621   -10014549.289 8  -7788597.63847  22057253.232    22057260.4914
  23299222.554    -2704090.037 8  -2093301.54045  23299221.814    23299229.8354
  21183224.911    -7392030.047 9  -5730566.96847  21183224.280    21183230.3244
 01  7 19  3 45 30.0000000  0  6 27 13 01 08 31 28
  21097509.230   -13251958.011 9 -10314037.59547  21097508.968    21097515.6514
  20269306.125   -23330406.777 9 -17535821.46448  20269306.311    20269311.4234
  21891483.982   -11000096.783 8  -8132361.92547  21891483.521    21891491.0034
  22043679.048   -10085884.302 8  -7844183.32447  22043678.539    22043685.8244
  23284387.515    -2782048.676 8  -2154048.39345  23284386.605    23284394.7434
  21171000.416    -7456268.270 9  -5780622.68947  21171000.051    21171006.1264
 01  7 19  3 46  0.0000000  0  6 27 13 01 08 31 28
  21090868.107   -13286857.515 9 -10341232.00247  21090867.866    21090874.3574
  20270978.301   -23321619.738 9 -17528974.42448  20270978.473    20270983.3814
  21904806.981   -10930082.829 8  -8077805.63947  21904806.608    21904814.1784
  22030143.210   -10157015.005 8  -7899609.82347  22030142.849    22030150.0204
  23269609.722    -2859705.385 8  -2214559.96845  23269608.825    23269617.0854
  21158860.779    -7520064.251 9  -5830333.78947  21158860.246    21158866.2284
 01  7 19  3 46 30.0000000  0  6 27 13 01 08 31 28
  21084267.740   -13321544.081 9 -10368260.49847  21084267.395    21084273.7334
  20272733.839   -23312394.515 9 -17521785.95148  20272733.968    20272738.8674
  21918190.501   -10859752.296 8  -8023002.68247  21918190.053    21918197.5354
  22016646.257   -10227942.512 8  -7954877.98547  22016645.783    22016652.9764
  23254890.083    -2937058.649 8  -2274835.11645  23254889.115    23254897.1674
  21146804.713    -7583418.132 9  -5879700.42347  21146804.233    21146810.2644
 01  7 19  3 47  0.0000000  0  6 27 13 01 08 31 28
  21077707.604   -13356018.011 9 -10395123.30547  21077707.247    21077713.5704
  20274572.748   -23302730.566 9 -17514255.61748  20274572.886    20274578.0584
  21931633.908   -10789106.088 8  -7967953.70747  21931633.506    21931640.9054
  22003187.796   -10298666.952 9  -8009987.89947  22003187.400    22003194.5824
  23240228.013    -3014105.441 8  -2334871.44845  23240227.306    23240235.8954
  21134833.034    -7646328.804 9  -5928721.68447  21134832.660    21134838.7034
 01  7 19  3 47 30.0000000  0  7 27 13 10 01 08 31 28
  21071188.268   -13390277.672 9 -10421819.13247  21071187.910    21071194.0994
  20276495.542   -23292626.117 9 -17506382.02548  20276495.724    20276500.9224
  24291822.685                                    24291825.399    24291808.6904
  21945137.734   -10718143.455 9  -7912658.19847  21945137.407    21945144.6494
  21989768.634   -10369186.344 8  -8064938.04347  21989768.081    21989775.1814
  23225625.353    -3090840.975 8  -2394665.23746  23225624.795    23225633.8064
  21122946.470    -7708793.622 9  -5977395.53747  21122945.989    21122952.0964
 01  7 19  3 48  0.0000000  0  7 27 13 10 01 08 31 28
  21064709.506   -13424323.797 9 -10448348.57847  21064709.125    21064715.2694
  20278502.290   -23282081.310 9 -17498165.29348  20278502.455    20278507.4964
  24277069.875                                    24277074.201    24277080.3614
  21958701.791   -10646865.800 8  -7857117.20647  21958701.297    21958708.3154
  21976387.873   -10439501.277 8  -8119728.88747  21976387.474    21976394.4614
  23211082.438    -3167262.738 8  -2454214.58746  23211081.943    23211091.3384
  21111144.648    -7770811.958 9  -6025721.48547  21111144.229    21111150.3194
 01  7 19  3 48 30.0000000  0  7 27 13 10 01 08 31 28
  21058271.401   -13458155.826 9 -10474711.20847  21058271.122    21058277.1344
  20280593.046   -23271094.843 9 -17489604.42448  20280593.167    20280598.0814
  24262395.831                                    24262398.431    24262404.0864
  21972325.301   -10575273.233 8  -7801330.81547  21972324.886    21972332.0504
  21963046.357   -10509610.621 8  -8174359.51047  21963046.060    21963052.9694
  23196600.050    -3243367.199 8  -2513516.65745  23196599.728    23196608.7844
  21099428.280    -7832381.860 9  -6073697.99247  21099427.810    21099433.8844
 01  7 19  3 49  0.0000000  0  7 27 13 10 01 08 31 28
  21051873.847   -13491775.239 9 -10500908.15247  21051873.522    21051879.5704
  20282767.730   -23259667.353 9 -17480699.89648  20282767.782    20282772.7924
  24247794.459    -1231490.27154                  24247794.401    24247804.8424
  21986008.646   -10503367.939 8  -7745300.78347  21986008.163    21986015.2134
  21949744.050   -10579515.414 8  -8228830.73047  21949743.559    21949750.4904
  23182178.796    -3319152.631 8  -2572570.10446  23182178.481    23182186.9424
  21087796.966    -7893503.657 9  -6121325.33247  21087796.622    21087802.8094
 01  7 19  3 49 30.0000000  0  7 27 13 10 01 08 31 28
  21045516.125   -13525184.395 9 -10526941.24947  21045515.843    21045522.0994
  20285025.722   -23247800.639 9 -17471453.11648  20285025.829    20285031.0084
  24233270.144    -1693880.47817  -1290965.91345  24233270.686    24233280.3444
  21999750.782   -10431153.058 8  -7689029.48047  21999750.210    21999757.2944
  21936479.930   -10649218.024 8  -8283144.41847  21936479.442    21936486.6534
  23167818.082    -3394618.175 8  -2631374.31246  23167817.754    23167826.2224
  21076251.134    -7954178.575 9  -6168604.46347  21076250.725    21076256.7874
 01  7 19  3 50  0.0000000  0  7 27 13 10 01 08 31 28
  21039199.028   -13558380.758 9 -10552808.53647  21039198.796    21039205.0824
  20287367.953   -23235491.948 9 -17461861.93148  20287368.117    20287373.1974
  24218822.231    -1769805.416 7  -1350128.19545  24218821.709    24218830.2624
  22013552.028   -10358626.708 8  -7632515.46447  22013551.466    22013558.8294
  21923254.916   -10718715.699 8  -8337298.41147  21923254.387    21923261.7084
  23153519.109    -3469758.302 8  -2689924.94946  23153518.853    23153527.7364
  21064791.039    -8014402.597 9  -6215532.23447  21064790.499    21064796.5664
 01  7 19  3 50 30.0000000  0  7 27 13 10 01 08 31 28
  21032922.615   -13591363.075 9 -10578509.02947  21032922.421    21032928.7714
  20289794.798   -23222739.421 9 -17451924.90348  20289794.937    20289799.8664
  24204450.934    -1845324.577 7  -1408974.31245  24204450.068    24204458.8254
  22027412.693   -10285788.420 8  -7575758.38747  22027412.140    22027419.5954
  21910069.417   -10788006.603 8  -8391291.25947  21910068.845    21910076.2444
  23139283.128    -3544568.492 8  -2748218.48546  23139282.917    23139291.7714
  21053416.956    -8074173.325 9  -6262106.80547  21053416.423    21053422.6334
 01  7 19  3 51  0.0000000  0  7 27 13 10 01 08 31 28
  21026687.310   -13624130.628 9 -10604042.17747  21026686.988    21026693.3004
  20292306.267   -23209541.902 9 -17441641.11348  20292306.418    20292311.2824
  24190158.051    -1920435.308 7  -1467502.14445  24190156.902    24190165.9714
  22041332.736   -10212638.559 8  -7518758.54347  22041332.133    22041339.6744
  21896923.233   -10857089.728 8  -8445122.23847  21896922.845    21896930.1744
  23125110.822    -3619044.995 8  -2806251.98446  23125110.469    23125119.1884
  21042129.320    -8133488.929 9  -6308326.71347  21042128.888    21042135.2424
 01  7 19  3 51 30.0000000  0  8 27 13 10 01 08 03 31 28
  21020492.593   -13656684.421 9 -10629408.76347  21020492.156    21020498.5714
  20294902.309   -23195899.775 9 -17431010.88948  20294902.461    20294907.2814
  24175943.596    -1995136.347 7  -1525710.73745  24175942.343    24175951.0734
  22055311.707   -10139178.753 8  -7461517.16847  22055311.106    22055318.7614
  21883816.763   -10925966.032 8  -8498792.05147  21883816.170    21883823.3904
  23358900.732                                    23358902.658    23358888.4944
  23111002.452    -3693185.609 8  -2864023.76346  23111001.818    23111010.7364
  21030928.524    -8192349.303 9  -6354191.90947  21030928.122    21030934.4034
 01  7 19  3 52  0.0000000  0  7 27 13 10 01 08 31 28
  21014338.532   -13689023.545 9 -10654608.08147  21014338.216    21014344.5734
  20297583.175   -23181811.475 9 -17420032.99048  20297583.256    20297588.2104
  24161807.128    -2069424.122 7  -1583597.28245  24161805.720    24161814.0514
  22069349.416   -10065408.891 8  -7404034.20347  22069348.927    22069356.7644
  21870749.572   -10994633.808 8  -8552299.38947  21870749.016    21870756.2554
  23096958.204    -3766986.270 8  -2921530.67846  23096957.839    23096966.9504
  21019814.642    -8250752.474 9  -6399700.84047  21019814.305    21019820.5904
 01  7 19  3 52 30.0000000  0  7 27 13 10 01 08 31 28
  21008225.603   -13721147.626 9 -10679639.84148  21008225.288    21008231.5734
  20300348.960   -23167276.181 9 -17408706.79448  20300349.171    20300354.1734
  24147749.214    -2143296.226 7  -1641159.87945  24147748.023    24147756.3684
  22083446.156    -9991329.402 8  -7346309.95747  22083445.779    22083453.7594
  21857722.241   -11063092.794 8  -8605644.01447  21857721.635    21857728.8854
  23082979.668    -3840443.647 8  -2978770.08145  23082979.217    23082987.9614
  21008788.440    -8308696.772 9  -6444852.20947  21008788.049    21008794.0844
 01  7 19  3 53  0.0000000  0  7 27 13 10 01 08 31 28
  21002153.637   -13753056.158 9 -10704503.64348  21002153.332    21002159.6334
  20303200.358   -23152293.107 9 -17397031.66348  20303200.507    20303205.2534
  24133771.104    -2216749.683 7  -1698396.30945  24133770.108    24133779.0974
  22097601.933    -9916940.466 8  -7288344.58347  22097601.628    22097609.5524
  21844734.543   -11131341.964 8  -8658825.13047  21844734.066    21844741.3134
  23069067.132    -3913554.241 8  -3035739.27945  23069066.607    23069074.9774
  20997849.589    -8366180.735 9  -6489644.86347  20997849.122    20997855.1384
 01  7 19  3 53 30.0000000  0  7 27 13 10 01 08 31 28
  20996122.582   -13784750.589 9 -10729200.58848  20996122.157    20996128.3944
  20306136.445   -23136863.344 9 -17385008.46248  20306136.584    20306141.4664
  24119873.454    -2289783.868 7  -1755305.99845  24119872.658    24119881.6994
  22111816.332    -9842244.606 8  -7230140.04347  22111815.859    22111823.6044
  21831786.683   -11199382.769 8  -8711843.88147  21831786.249    21831793.5034
  23055220.965    -3986316.502 8  -3092437.04745  23055220.353    23055228.4554
  20986998.231    -8423204.718 9  -6534079.12047  20986997.754    20987003.9314
 01  7 19  3 54  0.0000000  0  7 27 13 10 01 08 31 28
  20990131.728   -13816231.997 9 -10753731.54948  20990131.385    20990137.7504
  20309157.461   -23120987.334 9 -17372637.55348  20309157.613    20309162.6064
  24106056.097    -2362397.677 7  -1811888.14045  24106055.236    24106063.9554
  22126088.652    -9767243.921 8  -7171697.99347  22126088.108    22126095.9144
  21818878.487   -11267215.943 8  -8764700.83847  21818877.906    21818885.2584
  23041441.096    -4058728.441 8  -3148861.88046  23041440.732    23041448.9354
  20976234.627    -8479768.733 9  -6578154.94447  20976234.085    20976240.1534
 01  7 19  3 54 30.0000000  0  7 27 13 10 01 08 31 28
  20984181.803   -13847498.286 9 -10778094.88348  20984181.504    20984187.9864
  20312263.872   -23104662.791 9 -17359917.12448  20312264.032    20312269.1304
  24092318.344    -2434586.672 7  -1868139.25944  24092317.775    24092326.6024
  22140419.131    -9691936.785 8  -7113017.13447  22140418.557    22140426.5834
  21806009.630   -11334839.055 8  -8817394.12547  21806009.364    21806016.8114
  23027728.988    -4130784.926 8  -3205009.72146  23027728.655    23027737.1824
  20965559.024    -8535869.438 9  -6621869.73547  20965558.456    20965564.4434
 01  7 19  3 55  0.0000000  0  7 27 13 10 01 08 31 28
  20978272.974   -13878549.380 9 -10802290.53048  20978272.734    20978279.2924
  20315455.796   -23087889.040 9 -17346846.66148  20315455.953    20315461.1904
  24078662.460    -2506348.692 7  -1924057.72144  24078661.920    24078671.2154
  22154807.773    -9616323.971 8  -7054098.10047  22154807.146    22154815.2134
  21793181.649   -11402251.742 8  -8869923.45547  21793181.264    21793188.3484
  23014085.452    -4202482.832 8  -3260878.10746  23014084.911    23014093.3474
  20954971.524    -8591505.918 9  -6665222.80347  20954971.085    20954977.1744
 01  7 19  3 55 30.0000000  0  7 27 13 10 01 08 31 28
  20972404.995   -13909386.184 9 -10826319.20548  20972404.736    20972411.2584
  20318733.190   -23070666.685 9 -17333426.64148  20318733.344    20318738.4964
  24065087.920    -2577682.500 7  -1979642.41044  24065087.506    24065095.8654
  22169254.093    -9540407.506 8  -6994942.45647  22169253.545    22169261.4994
  21780393.539   -11469454.457 8  -8922289.17147  21780393.117    21780399.9364
  23000510.363    -4273820.076 8  -3316465.46446  23000509.838    23000518.2064
  20944472.587    -8646677.964 9  -6708213.98347  20944472.124    20944478.1894
 01  7 19  3 56  0.0000000  0  7 27 13 10 01 08 31 28
  20966577.985   -13940008.252 9 -10850180.54948  20966577.670    20966584.0894
  20322095.952   -23052994.876 9 -17319656.39848  20322096.066    20322101.2714
  24051595.813    -2648585.291 7  -2034891.25244  24051595.147    24051604.3374
  22183758.084    -9464187.833 8  -6935550.54947  22183757.773    22183765.6154
  21767645.660   -11536446.728 8  -8974490.88647  21767645.013    21767651.7694
  22987004.538    -4344793.161 8  -3371769.09046  22987004.028    22987012.2334
  20934062.394    -8701384.182 9  -6750842.17347  20934061.930    20934067.7104
 01  7 19  3 56 30.0000000  0  7 27 13 10 01 08 31 28
  20960791.529   -13970416.384 9 -10873875.18248  20960791.236    20960797.6004
  20325544.289   -23034874.177 9 -17305536.37248  20325544.418    20325549.4264
  24038186.031    -2719055.780 7  -2089803.17944  24038185.200    24038195.1704
  22198319.810    -9387666.617 8  -6875923.66847  22198319.463    22198327.2714
  21754937.403   -11603228.677 8  -9026528.74347  21754936.800    21754943.6614
  22973568.525    -4415399.743 8  -3426787.12446  22973567.949    22973576.1324
  20923740.787    -8755624.477 9  -6793107.30047  20923740.366    20923746.0744
 01  7 19  3 57  0.0000000  0  7 27 13 10 01 08 31 28
  20955046.102   -14000608.933 9 -10897401.83348  20955045.744    20955052.1944
  20329078.487   -23016302.459 9 -17291064.89448  20329078.582    20329083.4454
  24024858.857    -2789090.062 7  -2144375.23844  24024858.225    24024867.9474
  22212938.727    -9310843.071 8  -6816061.21447  22212938.453    22212946.3404
  21742269.421   -11669798.899 8  -9078401.61147  21742268.841    21742275.8194
  22960203.260    -4485635.120 8  -3481515.90546  22960202.633    22960211.0184
  20913508.174    -8809396.228 9  -6835007.33447  20913507.820    20913513.6434
 01  7 19  3 57 30.0000000  0  7 27 13 10 01 08 31 28
  20949341.519   -14030586.734 9 -10920761.15648  20949341.183    20949347.5804
  20332698.168   -22997280.154 9 -17276242.31348  20332698.306    20332703.3844
  24011615.252    -2858686.914 7  -2198606.40744  24011614.226    24011623.1424
  22227615.106    -9233719.138 8  -6755964.67546  22227614.662    22227622.2454
  21729641.618   -11736157.837 8  -9130109.86247  21729641.063    21729648.0714
  22946908.880    -4555497.202 8  -3535953.80546  22946908.246    22946916.5854
  20903364.887    -8862699.212 9  -6876542.10147  20903364.642    20903370.3824
 01  7 19  3 58  0.0000000  0  7 27 13 10 01 08 31 28
  20943677.918   -14060348.977 9 -10943952.50548  20943677.534    20943683.9954
  20336403.996   -22977806.220 9 -17261067.82648  20336404.100    20336409.1984
  23998454.661    -2927843.464 7  -2252494.67744  23998453.985    23998462.8254
  22242348.612    -9156294.866 8  -6695634.12746  22242348.202    22242355.3624
  21717054.482   -11802304.223 8  -9181652.44347  21717053.737    21717060.9044
  22933686.342    -4624982.397 8  -3590098.01846  22933685.729    22933694.0484
  20893311.348    -8915531.851 9  -6917710.34847  20893310.942    20893316.6464
 01  7 19  3 58 30.0000000  0  7 27 13 10 01 08 31 28
  20938055.056   -14089896.592 9 -10966976.62748  20938054.756    20938061.2544
  20340195.630   -22957881.350 9 -17245541.95948  20340195.745    20340200.7454
  23985380.390    -2996558.78917  -2306039.03244  23985378.549    23985387.7794
  22257138.756    -9078572.038 8  -6635070.92346  22257138.404    22257145.5804
  21704507.442   -11868238.927 8  -9233030.09747  21704506.703    21704513.9204
  22920535.819    -4694088.516 8  -3643946.87946  22920535.234    22920543.5754
  20883347.134    -8967894.162 9  -6958512.13347  20883346.690    20883352.3624
 01  7 19  3 59  0.0000000  0  6 27 13 01 08 31 28
  20932474.146   -14119224.786 9 -10989829.75148  20932473.790    20932480.3074
  20344074.044   -22937500.254 9 -17229660.58348  20344074.160    20344079.1294
  22271986.110    -9000547.033 8  -6574272.25546  22271985.815    22271993.3034
  21692001.744   -11933956.731 8  -9284238.76147  21692001.090    21692008.1774
  22907458.631    -4762807.828 8  -3697494.26946  22907458.287    22907466.5154
  20873473.598    -9019780.442 9  -6998942.96147  20873473.075    20873478.6714
 01  7 19  3 59 30.0000000  0  6 27 13 01 08 31 28
  20926935.116   -14148332.173 9 -11012510.83048  20926934.774    20926941.4064
  20348039.551   -22916661.321 9 -17213422.45148  20348039.636    20348044.6724
  22286891.375    -8922219.316 8  -6513237.73546  22286891.126    22286898.6784
  21679537.753   -11999455.793 8  -9335276.96147  21679536.929    21679544.1374
  22894456.256    -4831135.967 8  -3750736.84046  22894455.689    22894463.6064
  20863690.992    -9071188.188 9  -7039000.91647  20863690.468    20863696.1434
 01  7 19  4  0  0.0000000  0  6 27 13 01 08 31 28
  20921436.619   -14177227.377 9 -11035026.57848  20921436.261    20921442.8714
  20352090.452   -22895373.253 9 -17196834.33548  20352090.541    20352095.5984
  22301852.752    -8843598.438 8  -6451974.77546  22301852.398    22301859.9014
  21667113.376   -12064744.670 8  -9386151.36747  21667112.790    21667119.9694
  22881527.005    -4899078.696 8  -3803679.19246  22881526.549    22881534.2384
  20853997.845    -9122125.354 9  -7078692.17547  20853997.378    20854003.1064
 01  7 19  4  0 30.0000000  0  6 27 13 01 08 31 28
  20915978.810   -14205908.864 9 -11057375.77348  20915978.400    20915984.8534
  20356227.264   -22873633.815 9 -17179894.51948  20356227.347    20356232.4454
  22316869.782    -8764683.888 8  -6390482.96946  22316869.433    22316876.9104
  21654729.622   -12129821.621 8  -9436860.66847  21654729.073    21654735.9934
  22868672.134    -4966631.753 8  -3856317.87146  22868671.718    22868679.4294
  20844394.841    -9172589.556 9  -7118014.88747  20844394.346    20844400.0424
 01  7 19  4  1  0.0000000  0  6 27 13 01 08 31 28
  20910561.638   -14234375.468 9 -11079557.56548  20910561.310    20910567.7684
  20360450.163   -22851441.923 9 -17162602.12848  20360450.253    20360455.4684
  22331942.860    -8685475.432 8  -6328762.16446  22331942.348    22331949.8544
  21642386.451   -12194685.298 8  -9487403.78147  21642385.948    21642392.8234
  22855892.487    -5033790.877 8  -3908649.55546  22855892.016    22855899.6664
  20834882.165    -9222578.917 9  -7156967.61048  20834881.702    20834887.3754
 01  7 19  4  1 30.0000000  0  6 27 13 01 08 31 28
  20905185.618   -14262627.062 9 -11101571.78648  20905185.211    20905191.5694
  20364759.363   -22828797.468 9 -17144957.09748  20364759.440    20364764.7184
  22347071.471    -8605974.284 8  -6266813.28146  22347070.905    22347078.5284
  21630084.014   -12259335.453 9  -9537780.51147  21630083.484    21630090.3754
  22843188.121    -5100553.176 8  -3960672.00746  22843187.581    22843195.3244
  20825459.885    -9272092.601 9  -7195549.68447  20825459.485    20825465.0844
 01  7 19  4  2  0.0000000  0  7 27 13 10 01 08 31 28
  20899850.709   -14290662.591 9 -11123417.64948  20899850.245    20899856.4984
  20369154.941   -22805699.003 9 -17126958.29748  20369154.988    20369160.1014
  23896243.295                                    23896241.606    23896254.5054
  22362255.437    -8526180.428 8  -6204636.33346  22362255.073    22362262.7884
  21617822.635   -12323770.725 9  -9587989.79247  21617821.973    21617828.8924
  22830559.798    -5166914.585 8  -4012382.09246  22830559.243    22830567.2274
  20816128.364    -9321128.771 9  -7233759.65747  20816128.085    20816133.8184
 01  7 19  4  2 30.0000000  0  6 27 13 01 08 31 28
  20894556.918   -14318481.077 9 -11145094.39848  20894556.470    20894562.8114
  20373636.934   -22782145.344 9 -17108604.79048  20373637.025    20373642.0724
  22377495.398    -8446093.806 8  -6142231.22846  22377495.073    22377502.7874
  21605602.070   -12387989.871 9  -9638030.64847  21605601.473    21605608.5644
  22818008.474    -5232871.331 8  -4063776.85346  22818007.903    22818016.0914
  20806888.281    -9369685.845 9  -7271596.30547  20806887.961    20806893.6364
 01  7 19  4  3  0.0000000  0  6 27 13 01 08 31 28
  20889304.450   -14346083.197 9 -11166602.52648  20889304.006    20889310.3524
  20378205.583   -22758136.889 9 -17089896.89448  20378205.682    20378210.5084
  22392790.764    -8365715.838 8  -6079599.08746  22392790.483    22392798.0624
  21593423.021   -12451993.107 9  -9687903.27347  21593422.224    21593429.2194
  22805534.276    -5298421.061 8  -4114854.47346  22805533.747    22805542.3164
  20797739.395    -9417763.339 9  -7309059.25747  20797739.055    20797744.7144
 01  7 19  4  3 30.0000000  0  6 27 13 01 08 31 28
  20884092.948   -14373469.096 9 -11187942.18748  20884092.574    20884099.1004
  20382860.830   -22733673.729 9 -17070834.68648  20382860.919    20382865.7974
  22408141.337    -8285047.871 8  -6016740.97346  22408141.037    22408148.5744
  21581284.791   -12515780.144 9  -9737607.45247  21581284.068    21581290.9624
  22793138.524    -5363561.043 8  -4165612.77246  22793138.009    22793146.4484
  20788681.965    -9465360.788 9  -7346148.14547  20788681.615    20788687.2784
 01  7 19  4  4  0.0000000  0  8 27 13 10 01 08 03 31 28
  20878922.747   -14400637.939 9 -11209112.70948  20878922.423    20878928.9264
  20387602.721   -22708754.872 9 -17051417.39548  20387602.846    20387607.8494
  23847221.923                                    23847219.543    23847233.4684
  22423547.138    -8204090.144 8  -5953657.06746  22423546.781    22423554.3234
  21569187.697   -12579350.439 9  -9787142.73947  21569186.963    21569193.8974
  23325326.447                                    23325327.492    23325400.6534
  22780821.441    -5428287.745 8  -4216049.03246  22780820.796    22780829.0874
  20779716.077    -9512476.655 9  -7382861.79247  20779715.702    20779721.5134
 01  7 19  4  4 30.0000000  0  8 27 13 10 01 08 03 31 28
  20873794.238   -14427589.477 9 -11230113.90848  20873793.863    20873800.2484
  20392431.296   -22683380.006 9 -17031644.78648  20392431.504    20392436.5344
  23835187.416                                    23835185.724    23835193.1454
  22439008.016    -8122843.689 8  -5890348.22646  22439007.399    22439015.0684
  21557131.988   -12642703.023 9  -9836508.37147  21557131.408    21557138.1424
  23325337.649                                    23325336.995    23325344.5084
  22768583.257    -5492598.333 8  -4266161.12846  22768582.689    22768591.0114
  20770842.043    -9559110.250 9  -7419199.63148  20770841.705    20770847.4104
 01  7 19  4  5  0.0000000  0  8 27 13 10 01 08 03 31 28
  20868706.888   -14454323.940 9 -11250945.95648  20868706.435    20868712.9114
  20397346.693   -22657549.400 9 -17011517.04948  20397346.860    20397351.8784
  23823242.746    -1101061.42054                  23823240.734    23823251.2094
  22454522.970    -8041309.878 8  -5826815.46246  22454522.617    22454530.6174
  21545118.105   -12705838.297 9  -9885704.66747  21545117.295    21545123.9264
  23325453.744                                    23325451.666    23325460.7234
  22756425.122    -5556490.130 8  -4315946.87946  22756424.416    22756432.5034
  20762059.942    -9605261.122 9  -7455161.30848  20762059.486    20762065.1044
 01  7 19  4  5 30.0000000  0  8 27 13 10 01 08 03 31 28
  20863660.457   -14480842.554 9 -11271609.80348  20863660.069    20863666.4874
  20402348.763   -22631264.002 9 -16991034.90948  20402348.888    20402353.7434
  23811386.589    -1484207.03918  -1149605.02545  23811386.280    23811394.1254
  22470092.646    -7959491.137 8  -5763060.65146  22470092.209    22470100.4474
  21533144.951   -12768757.270 8  -9934732.42147  21533144.155    21533150.8954
  23325671.359     -956396.38754                  23325670.574    23325681.2784
  22744346.770    -5619961.798 8  -4365405.21446  22744346.077    22744354.1514
  20753369.312    -9650929.955 9  -7490747.40248  20753368.882    20753374.5584
 01  7 19  4  6  0.0000000  0  8 27 13 10 01 08 03 31 28
  20858655.595   -14507143.271 9 -11292103.86348  20858655.154    20858661.6354
  20407437.636   -22604521.826 9 -16970196.84348  20407437.745    20407442.6384
  23799622.731    -1546030.227 7  -1197778.80845  23799622.754    23799630.7254
  22485716.697    -7877386.342 8  -5699082.94046  22485716.432    22485724.6314
  21521213.069   -12831457.520 8  -9983589.74247  21521212.455    21521219.2844
  23325994.469    -1227313.19117   -955065.11044  23325999.327    23326005.5404
  22732349.166    -5683008.344 8  -4414532.31546  22732348.563    22732356.7024
  20744771.095    -9696113.880 9  -7525955.60947  20744770.684    20744776.3354
 01  7 19  4  6 30.0000000  0  8 27 13 10 01 08 03 31 28
  20853691.905   -14533227.288 9 -11312429.07148  20853691.539    20853698.0104
  20412613.140   -22577324.027 9 -16949003.75348  20412613.312    20412618.3244
  23787948.828    -1607377.989 7  -1245582.13845  23787949.756    23787956.8734
  22501395.121    -7794997.791 8  -5634884.09746  22501394.709    22501402.9944
  21509322.810   -12893939.926 9 -10032277.31947  21509322.286    21509329.1864
  23326426.402    -1225051.332 7   -953302.51744  23326429.249    23326434.3374
  22720433.010    -5745628.001 8  -4463326.76346  22720432.522    22720440.7964
  20736264.991    -9740813.617 9  -7560786.54247  20736264.513    20736270.1254
 01  7 19  4  7  0.0000000  0  8 27 13 10 01 08 03 31 28
  20848769.960   -14559092.811 9 -11332584.03648  20848769.547    20848775.9144
  20417875.817   -22549668.658 9 -16927454.12248  20417875.968    20417881.0254
  23776364.875    -1668246.817 7  -1293012.38645  23776364.847    23776373.6064
  22517127.266    -7712324.728 8  -5570463.59446  22517126.977    22517135.2864
  21497474.552   -12956202.511 8 -10080793.58947  21497473.969    21497480.8724
  23326963.742    -1222233.991 7   -951107.17644  23326965.509    23326970.3664
  22708599.065    -5807816.429 8  -4511785.14946  22708598.485    22708606.5744
  20727851.372    -9785026.718 9  -7595238.27747  20727850.918    20727856.5734
 01  7 19  4  7 30.0000000  0  8 27 13 10 01 08 03 31 28
  20843889.619   -14584738.772 9 -11352567.89848  20843889.256    20843895.6284
  20423225.653   -22521554.821 9 -16905547.23348  20423225.775    20423230.8614
  23764873.392    -1728633.927 7  -1340067.32945  23764873.169    23764882.0724
  22532913.456    -7629367.343 8  -5505821.52146  22532913.268    22532921.7684
  21485668.327   -13018244.103 8 -10129137.65747  21485667.682    21485674.6864
  23327605.691    -1218860.147 7   -948478.15444  23327605.777    23327612.1834
  22696847.921    -5869569.782 8  -4559904.54346  22696847.250    22696855.1164
  20719530.752    -9828751.477 9  -7629309.47747  20719530.348    20719536.0834
 01  7 19  4  8  0.0000000  0  8 27 13 10 01 08 03 31 28
  20839050.712   -14610167.451 9 -11372382.44548  20839050.326    20839056.7004
  20428662.272   -22492984.881 9 -16883284.96848  20428662.451    20428667.5424
  23753474.640    -1788539.838 7  -1386747.20845  23753473.713    23753482.6074
  22548753.488    -7546129.171 8  -5440960.66246  22548753.222    22548761.5424
  21473903.726   -13080066.772 8 -10177311.14047  21473903.136    21473910.2824
  23328352.436    -1214931.746 6   -945417.01744  23328352.078    23328359.6904
  22685179.432    -5930887.521 8  -4607684.53846  22685178.748    22685186.5454
  20711302.868    -9871989.796 9  -7663001.65648  20711302.424    20711308.2754
 01  7 19  4  8 30.0000000  0  8 27 13 10 01 08 03 31 28
  20834253.291   -14635378.055 9 -11392027.07448  20834252.947    20834259.3844
  20434186.094   -22463957.698 9 -16860666.38948  20434186.197    20434191.2644
  23742167.117    -1847962.052 7  -1433050.16445  23742166.021    23742174.7944
  22564646.859    -7462610.629 8  -5375881.30946  22564646.450    22564654.6254
  21462181.159   -13141669.283 9 -10225313.07847  21462180.541    21462187.7234
  23329206.198    -1210447.600 6   -941922.92544  23329205.475    23329213.5524
  22673594.425    -5991766.380 8  -4655122.58346  22673593.867    22673601.5494
  20703167.657    -9914740.447 9  -7696313.83448  20703167.236    20703173.0314
 01  7 19  4  9  0.0000000  0  8 27 13 10 01 08 03 31 28
  20829497.532   -14660370.311 9 -11411501.57648  20829497.149    20829503.4674
  20439796.857   -22434473.371 9 -16837691.59748  20439797.003    20439802.0344
  23730951.503    -1906898.633 7  -1478974.69645  23730950.295    23730959.0224
  22580593.180    -7378812.638 8  -5310584.21546  22580592.641    22580600.6924
  21450500.540   -13203051.516 9 -10273143.35947  21450499.918    21450506.9564
  23330165.788                                    23330165.322    23330173.0944
  22662094.248    -6052203.358 8  -4702216.26746  22662093.280    22662100.8004
  20695125.504    -9957002.769 9  -7729245.49047  20695125.003    20695130.5774
 01  7 19  4  9 30.0000000  0  8 27 13 10 01 08 03 31 28
  20824783.383   -14685142.552 9 -11430804.62048  20824782.993    20824789.5834
  20445494.613   -22404530.571 9 -16814359.55848  20445494.739    20445499.9394
  23719828.645    -1965346.167 7  -1524518.22045  23719827.984    23719836.7044
  22596592.623    -7294734.777 8  -5245069.06246  22596592.175    22596599.9654
  21438862.240   -13264211.249 9 -10320800.25447  21438861.595    21438868.6334
  23331231.856                                    23331229.857    23331238.5394
  22650678.342    -6112194.052 8  -4748962.15246  22650677.403    22650684.9924
  20687176.532    -9998774.432 9  -7761794.79847  20687176.036    20687181.5924
 01  7 19  4 10  0.0000000  0  8 27 13 10 01 08 03 31 28
  20820110.667   -14709697.202 9 -11449938.11548  20820110.358    20820117.0724
  20451279.142   -22374131.452 9 -16790671.94048  20451279.334    20451284.5954
  23708800.031    -2023305.380 7  -1569681.17445  23708799.209    23708807.6384
  22612644.751    -7210380.618 8  -5179338.61046  22612644.312    22612652.0624
  21427265.503   -13325151.003 8 -10368285.74847  21427265.033    21427272.2294
  23332404.057                                    23332401.611    23332409.4464
  22639347.383    -6171738.349 8  -4795360.19146  22639346.327    22639353.8464
  20679320.577   -10040057.488 9  -7793963.38747  20679320.095    20679325.6884
 01  7 19  4 10 30.0000000  0  8 27 13 10 01 08 03 31 28
  20815479.628   -14734033.208 9 -11468901.23748  20815479.354    20815486.2304
  20457150.965   -22343274.599 9 -16766627.65048  20457151.189    20457156.3874
  23697864.339    -2080773.173 7  -1614461.22145  23697863.750    23697872.4494
  22628749.276    -7125750.435 8  -5113393.03546  22628748.773    22628756.6054
  21415711.286   -13385869.093 9 -10415598.49047  21415710.822    21415717.9614
  23333681.149                                    23333676.289    23333754.2604
  22628101.553    -6230832.658 8  -4841407.65146  22628100.702    22628108.5504
  20671558.045   -10080850.353 9  -7825749.99648  20671557.499    20671563.1534
 01  7 19  4 11  0.0000000  0  8 27 13 10 01 08 03 31 28
  20810890.718   -14758147.872 9 -11487691.87848  20810890.420    20810897.3724
  20463110.413   -22311957.880 9 -16742225.02148  20463110.583    20463115.7754
  23687022.434    -2137745.596 7  -1658855.31845  23687022.216    23687030.8514
  22644906.536    -7040842.755 8  -5047231.26146  22644906.088    22644914.0794
  21404199.660   -13446363.243 9 -10462736.72847  21404199.191    21404206.3824
  23335064.252                                    23335059.651    23335126.9474
  22616942.929    -6289471.739 8  -4887100.36146  22616942.186    22616949.9764
  20663889.240   -10121150.095 9  -7857152.36148  20663888.667    20663894.4044
 01  7 19  4 11 30.0000000  0  8 27 13 10 01 08 03 31 28
  20806343.807   -14782042.171 9 -11506310.81648  20806343.558    20806350.3224
  20469156.963   -22280183.150 9 -16717465.49648  20469157.127    20469162.3144
  23676274.584    -2194221.883 7  -1702862.83345  23676274.368    23676282.9444
  22661116.210    -6955660.065 8  -4980855.20146  22661115.776    22661123.9184
  21392730.606   -13506633.863 8 -10509700.79747  21392730.101    21392737.0874
  23336552.167                                    23336549.230    23336613.8854
  22605871.226    -6347653.970 8  -4932437.08746  22605870.472    22605878.0964
  20656314.191   -10160957.350 9  -7888170.96248  20656313.592    20656319.3824
 01  7 19  4 12  0.0000000  0  9 27 13 10 02 01 08 03 31 28
  20801838.718   -14805717.106 9 -11524758.83348  20801838.437    20801845.1484
  20475290.596   -22247950.539 9 -16692349.17748  20475290.762    20475296.0704
  23665622.937    -2250201.493 7  -1746483.29645  23665622.080    23665630.4324
  24462353.306    -1549856.229 7  -1189394.87445  24462354.964    24462367.6784
  22677378.283    -6870204.511 8  -4914266.51646  22677377.678    22677385.5874
  21381303.685   -13566682.192 9 -10556491.66447  21381303.222    21381310.0974
  23338148.246                                    23338142.897    23338162.2474
  22594886.437    -6405377.697 8  -4977416.53946  22594885.826    22594893.3934
  20648832.557   -10200272.811 9  -7918806.37447  20648832.061    20648837.8724
 01  7 19  4 12 30.0000000  0  8 27 13 10 02 01 08 31 28
  20797374.727   -14829175.877 9 -11543038.39848  20797374.437    20797381.1624
  20481510.652   -22215263.659 9 -16666878.90248  20481510.845    20481516.1304
  23655064.530    -2305685.459 7  -1789717.50445  23655063.791    23655072.2054
  24444635.401    -1642975.923 7  -1261955.45545  24444635.971    24444647.8944
  22693691.257    -6784480.379 8  -4847468.56446  22693690.466    22693698.4314
  21369918.845   -13626510.763 9 -10603111.29747  21369918.224    21369925.1374
  22583989.034    -6462643.535 8  -5022039.21446  22583988.361    22583996.0864
  20641444.157   -10239099.285 9  -7949060.75547  20641443.666    20641449.2454
 01  7 19  4 13  0.0000000  0  8 27 13 10 02 01 08 31 28
  20792952.524   -14852413.927 9 -11561145.95748  20792952.239    20792959.0574
  20487818.037   -22182118.360 9 -16641051.41448  20487818.278    20487823.4524
  23644601.488    -2360667.993 7  -1832561.02645  23644601.033    23644608.8314
  24426942.682    -1735953.937 7  -1334405.63245  24426942.719    24426954.9514
  22710055.122    -6698484.565 8  -4780458.89646  22710054.697    22710063.0604
  21358576.514   -13686114.959 8 -10649556.08347  21358575.876    21358582.7984
  22573180.207    -6519444.506 8  -5066299.62646  22573179.553    22573187.1774
  20634149.601   -10277431.897 9  -7978930.30048  20634149.156    20634154.7814
 01  7 19  4 13 30.0000000  0  8 27 13 10 02 01 08 31 28
  20788572.355   -14875431.391 9 -11579081.63748  20788572.111    20788578.9404
  20494212.636   -22148514.834 9 -16614866.85748  20494212.842    20494217.9774
  23634234.785    -2415147.874 7  -1875012.91045  23634233.682    23634241.6734
  24409276.748    -1828789.323 7  -1406744.68045  24409276.670    24409289.1174
  22726470.933    -6612218.413 8  -4713238.58346  22726470.552    22726478.9534
  21347276.738   -13745494.797 9 -10695826.04647  21347276.188    21347283.1034
  22562460.191    -6575778.343 8  -5110196.07346  22562459.594    22562466.9224
  20626949.064   -10315270.508 9  -8008414.89548  20626948.640    20626954.2864
 01  7 19  4 14  0.0000000  0  8 27 13 10 02 01 08 31 28
  20784234.365   -14898227.072 9 -11596844.51048  20784234.124    20784241.0204
  20500694.673   -22114452.219 9 -16588324.56648  20500694.834    20500699.9674
  23623963.454    -2469122.018 7  -1917070.69845  23623962.340    23623971.2974
  24391638.001    -1921479.700 7  -1478970.71345  24391637.601    24391650.3534
  22742938.221    -6525682.095 8  -4645807.75246  22742937.902    22742946.2884
  21336020.107   -13804648.776 8 -10741920.02747  21336019.511    21336026.3774
  22551829.888    -6631641.370 8  -5153725.67546  22551829.184    22551836.4654
  20619843.070   -10352613.665 9  -8037513.42648  20619842.560    20619848.1244
 01  7 19  4 14 30.0000000  0  8 27 13 10 02 01 08 31 28
  20779938.647   -14920801.110 9 -11614434.66748  20779938.388    20779945.2134
  20507263.835   -22079930.845 9 -16561424.78948  20507263.947    20507269.1564
  23613789.744    -2522588.803 7  -1958733.14644  23613788.564    23613796.4144
  24374027.488    -2014023.896 7  -1551082.85645  24374026.992    24374039.2714
  22759456.786    -6438876.991 8  -4578167.46346  22759456.396    22759464.8594
  21324806.436   -13863576.879 9 -10787837.99147  21324805.914    21324812.8854
  22541289.493    -6687030.809 8  -5196886.18346  22541288.811    22541296.2154
  20612831.234   -10389461.008 9  -8066225.61548  20612830.704    20612836.3074
 01  7 19  4 15  0.0000000  0  8 27 13 10 02 01 08 31 28
  20775684.932   -14943154.616 9 -11631852.97248  20775684.643    20775691.4244
  20513920.024   -22044951.942 9 -16534168.51048  20513920.188    20513925.3574
  23603711.444    -2575547.976 7  -2000000.05844  23603710.362    23603718.2554
  24356444.893    -2106421.666 7  -1623080.83245  24356444.434    24356456.5704
  22776026.490    -6351805.317 8  -4510319.47346  22776025.905    22776034.2044
  21313635.525   -13922279.967 9 -10833580.61847  21313635.028    21313642.0064
  22530839.687    -6741945.424 8  -5239676.72546  22530838.825    22530846.3834
  20605913.461   -10425813.394 9  -8094552.12848  20605913.033    20605918.5714
 01  7 19  4 15 30.0000000  0  8 27 13 10 02 01 08 31 28
  20771473.275   -14965286.565 9 -11649098.65148  20771473.018    20771479.7954
  20520663.495   -22009514.894 9 -16506555.22348  20520663.611    20520668.8644
  23593731.241    -2627997.046 7  -2040869.46944  23593729.810    23593737.1234
  24338890.046    -2198671.050 7  -1694963.26645  24338889.938    24338901.6024
  22792646.022    -6264467.895 8  -4442264.39746  22792645.630    22792654.2634
  21302507.714   -13980756.891 9 -10879147.02947  21302507.201    21302513.9704
  22520480.340    -6796382.148 8  -5282094.91846  22520479.607    22520487.3894
  20599090.292   -10461669.955 9  -8122492.26548  20599089.817    20599095.1964
 01  7 19  4 16  0.0000000  0  8 27 13 10 02 01 08 31 28
  20767303.874   -14987196.793 9 -11666171.54047  20767303.625    20767310.2514
  20527494.014   -21973619.478 9 -16478584.77648  20527494.201    20527499.5334
  23583847.449    -2679934.504 7  -2081340.25845  23583846.363    23583853.7034
  24321364.079    -2290770.867 7  -1766729.16345  24321363.640    24321375.3834
  22809315.977    -6176865.888 8  -4374003.16646  22809315.679    22809324.6324
  21291423.118   -14039007.477 9 -10924537.05147  21291422.455    21291429.1804
  22510212.749    -6850338.071 8  -5324138.45746  22510212.204    22510219.6994
  20592361.449   -10497030.147 9  -8150045.63848  20592360.965    20592366.4294
 01  7 19  4 16 30.0000000  0  8 27 13 10 02 01 08 31 28
  20763176.768   -15008884.708 9 -11683071.19347  20763176.522    20763183.1544
  20534411.951   -21937265.852 9 -16450257.28148  20534412.142    20534417.4784
  23574061.690    -2731358.169 8  -2121410.63145  23574061.007    23574068.6544
  24303866.628    -2382719.541 7  -1838377.29245  24303866.333    24303877.7584
  22826036.528    -6088999.822 8  -4305536.18646  22826036.223    22826045.0974
  21280381.564   -14097030.696 9 -10969749.90947  21280380.889    21280387.9004
  22500037.586    -6903810.363 8  -5365805.10546  22500037.038    22500044.1064
  20585727.166   -10531893.184 9  -8177211.63248  20585726.758    20585732.2854
 01  7 19  4 17  0.0000000  0  8 27 13 10 02 01 08 31 28
  20759091.804   -15030351.682 9 -11699798.70048  20759091.490    20759098.1554
  20541416.656   -21900456.174 9 -16421574.41848  20541416.813    20541422.1574
  23564374.072    -2782267.857 8  -2161080.50145  23564373.264    23564380.9314
  24286398.446    -2474516.978 8  -1909907.56945  24286397.927    24286409.1674
  22842807.184    -6000872.186 8  -4236865.37446  22842806.663    22842815.1894
  21269383.030   -14154827.918 9 -11014786.68247  21269382.453    21269389.5004
  22489954.427    -6956797.690 8  -5407093.89846  22489953.680    22489960.8874
  20579187.488   -10566260.130 9  -8203991.04848  20579186.975    20579192.4304
 01  7 19  4 17 30.0000000  0  8 27 13 10 02 01 08 31 28
  20755049.054   -15051596.895 9 -11716353.41548  20755048.768    20755055.3194
  20548508.484   -21863188.674 9 -16392534.81948  20548508.574    20548513.8024
  23554784.188    -2832661.746 8  -2200348.49045  23554783.463    23554791.5704
  24268959.580    -2566161.223 7  -1981318.47545  24268958.450    24268970.0374
  22859627.031    -5912483.780 8  -4167991.35346  22859626.540    22859634.7934
  21258427.905   -14212398.107 9 -11059646.55447  21258427.297    21258434.1804
  22479963.933    -7009297.087 8  -5448002.46346  22479963.276    22479970.6814
  20572742.106   -10600130.448 9  -8230383.46848  20572741.658    20572747.1074
 01  7 19  4 18  0.0000000  0  8 27 13 10 02 01 08 31 28
  20751048.623   -15072619.520 9 -11732734.66748  20751048.328    20751054.8384
  20555687.190   -21825463.578 9 -16363138.64548  20555687.394    20555692.7824
  23545293.207    -2882537.243 8  -2239212.44245  23545292.453    23545300.7394
  24251549.527    -2657650.402 8  -2052608.59645  24251548.602    24251560.2204
  22876495.840    -5823835.440 8  -4098914.74946  22876495.542    22876504.2284
  21247516.102   -14269740.391 9 -11104328.84247  21247515.441    21247522.2104
  22470067.189    -7061305.435 8  -5488528.37646  22470066.447    22470073.6134
  20566391.322   -10633502.908 9  -8256387.95248  20566390.944    20566396.5324
 01  7 19  4 18 30.0000000  0  8 27 13 10 02 01 08 31 28
  20747090.503   -15093419.367 9 -11748942.32648  20747090.268    20747096.7474
  20562953.022   -21787281.255 9 -16333386.19248  20562953.184    20562958.6234
  23535900.996    -2931893.095 8  -2277671.49145  23535900.356    23535908.6354
  24234169.855    -2748983.413 8  -2123776.99245  24234168.774    24234180.1784
  22893414.387    -5734928.315 8  -4029636.54746  22893414.089    22893422.9804
  21236647.731   -14326854.348 9 -11148833.20147  21236647.025    21236653.7984
  22460264.197    -7112820.355 8  -5528669.84646  22460263.373    22460270.3784
  20560135.614   -10666377.463 9  -8282004.45748  20560135.184    20560140.6434
 01  7 19  4 19  0.0000000  0  8 27 13 10 02 01 08 31 28
  20743174.946   -15113996.224 9 -11764976.21848  20743174.659    20743181.0464
  20570305.888   -21748641.720 9 -16303277.46548  20570306.043    20570311.4784
  23526607.732    -2980727.487 8  -2315724.25245  23526607.309    23526616.1204
  24216819.491    -2840158.658 7  -2194822.47945  24216818.497    24216829.8314
  22910382.229    -5645763.404 8  -3960157.44146  22910381.792    22910390.6224
  21225822.823   -14383739.498 9 -11193159.27647  21225822.189    21225828.9394
  22450555.779    -7163839.146 8  -5568424.70046  22450554.954    22450561.7404
  20553974.709   -10698753.623 9  -8307232.61048  20553974.250    20553979.6784
 01  7 19  4 19 30.0000000  0  8 27 13 10 02 01 08 31 28
  20739301.725   -15134350.212 9 -11780836.45548  20739301.470    20739307.9254
  20577745.710   -21709545.064 9 -16272812.55348  20577745.913    20577751.3224
  23517414.415    -3029039.096 8  -2353369.68645  23517413.833    23517422.8554
  24199499.225    -2931175.260 7  -2265744.35345  24199498.136    24199509.6344
  22927398.619    -5556342.340 8  -3890478.76046  22927398.213    22927406.8114
  21215041.514   -14440395.685 9 -11237306.95347  21215040.813    21215047.4834
  22440941.978    -7214359.627 8  -5607791.23446  22440941.200    22440948.0994
  20547908.556   -10730631.351 9  -8332072.37748  20547908.079    20547913.5404
 01  7 19  4 20  0.0000000  0  8 27 13 10 02 01 08 31 28
  20735471.183   -15154480.282 9 -11796522.20848  20735470.912    20735477.3444
  20585272.667   -21669991.387 9 -16241991.51448  20585272.842    20585278.1884
  23508321.192                    -2390606.23345  23508320.408    23508329.1254
  24182209.282    -3022031.180 7  -2336541.03145  24182208.695    24182219.8094
  22944463.380    -5466665.681 8  -3820600.91346  22944463.049    22944471.6694
  21204303.987   -14496821.936 9 -11281275.44747  21204303.226    21204309.8584
  22431423.254    -7264378.535 8  -5646766.96146  22431422.739    22431429.9694
  20541937.313   -10762009.635 9  -8356522.94848  20541936.893    20541942.4274
 01  7 19  4 20 30.0000000  0  8 27 13 10 02 01 08 31 28
  20731682.935   -15174387.570 9 -11812034.34348  20731682.714    20731689.2674
  20592886.117   -21629981.983 9 -16210815.35748  20592886.331    20592891.7604
  23499328.221    -3124087.50118  -2427433.44945  23499326.984    23499335.1514
  24164950.736    -3112726.742 7  -2407212.77445  24164949.754    24164961.0094
  22961576.398    -5376735.982 8  -3750525.91346  22961576.201    22961584.6724
  21193609.890   -14553019.351 9 -11325065.62347  21193609.240    21193615.9414
  22422000.602    -7313894.879 8  -5685351.05046  22422000.022    22422007.3624
  20536061.008   -10792889.815 9  -8380585.39948  20536060.561    20536066.1284
 01  7 19  4 21  0.0000000  0  8 27 13 10 02 01 08 31 28
  20727937.351   -15194071.320 9 -11827372.29748  20727937.098    20727943.6054
  20600586.641   -21589516.262 9 -16179283.64348  20600586.790    20600592.1654
  23490434.985    -3170821.856 8  -2463849.77445  23490433.950    23490441.5574
  24147722.804    -3203259.960 7  -2477757.96745  24147721.622    24147732.9014
  22978737.661    -5286553.919 8  -3680254.25446  22978737.381    22978745.7844
  21182959.575   -14608986.762 9 -11368676.58647  21182958.943    21182965.6774
  22412674.124    -7362905.777 8  -5723541.29846  22412673.410    22412680.7204
  20530279.538   -10823271.096 9  -8404259.10948  20530279.124    20530284.6774
 01  7 19  4 21 30.0000000  0  8 27 13 10 02 01 08 31 28
  20724234.407   -15213530.431 9 -11842535.21448  20724234.121    20724240.6054
  20608373.858   -21548594.931 9 -16147396.90348  20608373.959    20608379.1764
  23481642.410    -3217026.779 8  -2499853.58945  23481641.348    23481649.2794
  24130525.720    -3293628.657 8  -2548174.94945  24130524.676    24130535.7414
  22995946.691    -5196120.003 8  -3609786.32346  22995946.328    22995955.0614
  21172353.153   -14664723.140 9 -11412107.52047  21172352.535    21172359.4834
  22403444.211    -7411407.861 8  -5761335.08246  22403443.688    22403451.0864
  20524593.191   -10853152.707 9  -8427543.44748  20524592.790    20524598.3214
 01  7 19  4 22  0.0000000  0  8 27 13 10 02 01 08 31 28
  20720574.176   -15232765.057 9 -11857523.22348  20720573.885    20720580.4224
  20616247.611   -21507218.172 9 -16115155.28448  20616247.778    20616252.8324
  23472950.872    -3262701.042 8  -2535443.86845  23472949.875    23472958.0904
  24113360.315    -3383832.064 8  -2618463.14345  24113359.448    24113370.2694
  23013203.369    -5105435.853 8  -3539123.40946  23013202.960    23013211.8704
  21161790.749   -14720228.421 9 -11455358.38547  21161790.128    21161797.2434
  22394312.109    -7459399.173 8  -5798730.82846  22394311.442    22394318.4534
  20519002.026   -10882534.566 9  -8450438.38248  20519001.571    20519007.1764
 01  7 19  4 22 30.0000000  0  8 27 13 10 02 01 08 31 28
  20716956.534   -15251775.399 9 -11872336.44348  20716956.210    20716962.9144
  20624208.384   -21465384.912 9 -16082557.95048  20624208.438    20624213.4154
  23464360.478    -3307844.038 8  -2570620.21246  23464359.541    23464367.9294
  24096226.661    -3473869.203 8  -2688621.80345  24096226.030    24096236.2244
  23030507.598    -5014503.065 8  -3468266.72146  23030507.121    23030515.7964
  21151272.304   -14775502.640 9 -11498429.18947  21151271.680    21151278.8464
  22385276.706    -7506877.696 8  -5835727.03846  22385276.236    22385283.3734
  20513505.849   -10911417.013 9  -8472944.15848  20513505.426    20513510.9454
 01  7 19  4 23  0.0000000  0  8 27 13 10 02 01 08 31 28
  20713381.634   -15270560.822 9 -11886974.40648  20713381.335    20713387.9834
  20632255.502   -21423096.805 9 -16049606.18048  20632255.587    20632260.6144
  23455872.043    -3352453.722 8  -2605380.94846  23455870.799    23455879.0564
  24079125.204    -3563738.484 8  -2758649.69445  24079124.668    24079134.2844
  23047858.626    -4923322.536 8  -3397217.02546  23047858.140    23047866.5774
  21140798.135   -14830544.917 9 -11541319.27247  21140797.421    21140804.8354
  22376339.923    -7553840.640 8  -5872321.47346  22376339.532    22376346.6104
  20508104.819   -10939799.357 9  -8495060.23748  20508104.365    20508109.9074
 01  7 19  4 23 30.0000000  0  8 27 13 10 02 01 08 31 28
  20709849.688   -15289121.234 9 -11901437.05748  20709849.360    20709855.8644
  20640389.045   -21380354.793 9 -16016300.74048  20640389.096    20640394.1244
  23447484.574    -3396528.595 8  -2639724.99145  23447483.236    23447491.6084
  24062055.866    -3653438.729 7  -2828545.88545  24062055.276    24062064.8854
  23065256.618    -4831895.688 8  -3325975.40846  23065256.175    23065264.4514
  21130368.012   -14885355.220 9 -11584028.60447  21130367.331    21130374.8404
  22367501.704    -7600285.718 8  -5908512.39746  22367501.390    22367508.1764
  20502798.844   -10967681.820 9  -8516786.79948  20502798.458    20502804.0404
 01  7 19  4 24  0.0000000  0  8 27 13 10 02 01 08 31 28
  20706360.448   -15307456.634 9 -11915724.36448  20706360.086    20706366.8154
  20648609.193   -21337157.555 9 -15982640.56048  20648609.255    20648614.2344
  23439199.007    -3440067.718 8  -2673651.53645  23439197.751    23439206.0284
  24045018.524    -3742969.174 7  -2898309.75445  24045017.931    24045027.8484
  23082701.255    -4740224.183 8  -3254543.16146  23082700.749    23082708.9794
  21119982.276   -14939933.065 9 -11626556.78447  21119981.611    21119989.0214
  22358762.524    -7646210.880 8  -5944298.19146  22358762.191    22358768.9804
  20497588.196   -10995064.417 9  -8538123.86448  20497587.815    20497593.3584
 01  7 19  4 24 30.0000000  0  8 27 13 10 02 01 08 31 28
  20702914.275   -15325566.082 9 -11929835.59848  20702914.011    20702920.7184
  20656915.969   -21293505.205 9 -15948625.76148  20656916.015    20656921.1124
  23431016.570    -3483069.069 8  -2707159.00345  23431015.166    23431023.2254
  24028014.193    -3832327.758 7  -2967939.69745  24028013.572    24028023.6744
  23100191.828    -4648308.512 8  -3182920.64146  23100191.540    23100199.8054
  21109641.016   -14994277.636 9 -11668903.20047  21109640.370    21109647.6064
  22350122.813    -7691613.228 8  -5979676.57246  22350122.442    22350129.1154
  20492472.708   -11021946.432 9  -8559070.86348  20492472.277    20492477.7594
 01  7 19  4 25  0.0000000  0  8 27 13 10 02 01 08 31 28
  20699511.183   -15343449.887 9 -11943771.01548  20699510.857    20699517.4864
  20665308.811   -21249400.361 9 -15914258.36348  20665308.904    20665313.9404
  23422936.266    -3525532.135 8  -2740247.12945  23422934.789    23422942.7674
  24011042.290    -3921513.876 7  -3037435.27145  24011041.842    24011052.1834
  23117728.979    -4556150.776 8  -3111109.49046  23117728.769    23117737.0044
  21099344.187   -15048389.205 9 -11711068.05947  21099343.388    21099350.4064
  22341582.776    -7736491.270 8  -6014646.38546  22341582.285    22341589.0824
  20487452.290   -11048328.493 9  -8579628.30048  20487451.912    20487457.3454
 01  7 19  4 25 30.0000000  0  8 27 13 10 02 01 08 31 28
  20696151.047   -15361107.103 9 -11957529.87748  20696150.783    20696157.3634
  20673788.153   -21204841.215 9 -15879536.96648  20673788.204    20673793.2194
  23414958.664    -3567454.717 8  -2772914.06145  23414957.303    23414965.3044
  23994103.778    -4010525.652 7  -3106794.99745  23994103.428    23994113.7074
  23135312.239    -4463751.375 8  -3039110.04546  23135311.947    23135320.3014
  21089091.664   -15102266.544 9 -11753050.41447  21089090.946    21089097.7264
  22333142.788    -7780841.728 8  -6049205.11346  22333142.378    22333149.6434
  20482527.211   -11074209.736 9  -8599795.47748  20482526.792    20482532.2494
 01  7 19  4 26  0.0000000  0  8 27 13 10 02 01 08 31 28
  20692834.190   -15378537.454 9 -11971111.95448  20692833.889    20692840.4944
  20682353.761   -21159828.312 9 -15844461.99048  20682353.815    20682358.9444
  23407083.399    -3608835.581 7  -2805158.86545  23407082.396    23407090.8404
  23977199.543    -4099361.700 7  -3176017.77745  23977198.672    23977208.4424
  23152941.156    -4371111.656 8  -2966923.31946  23152940.863    23152949.3374
  21078883.528   -15155909.339 9 -11794850.00047  21078882.963    21078889.7474
  22324803.978    -7824662.163 8  -6083350.80946  22324803.540    22324810.9484
  20477697.558   -11099590.197 9  -8619572.42048  20477697.085    20477702.4224
 01  7 19  4 26 30.0000000  0  8 27 13 10 02 01 08 31 28
  20689560.557   -15395740.368 9 -11984516.81248  20689560.275    20689566.9754
  20691005.505   -21114362.323 9 -15809033.96448  20691005.665    20691010.9204
  23399311.404    -3649672.988 7  -2836980.16445  23399310.835    23399319.9364
  23960328.064    -4188020.422 7  -3245102.39445  23960327.212    23960337.0224
  23170615.791    -4278232.587 8  -2894550.09346  23170615.406    23170623.5844
  21068720.476   -15209316.687 9 -11836466.11847  21068719.949    21068726.6034
  22316566.356    -7867950.190 8  -6117081.69846  22316565.983    22316573.4244
  20472963.221   -11124469.464 9  -8638958.82848  20472962.723    20472968.0544
 01  7 19  4 27  0.0000000  0  8 27 13 10 02 01 08 31 28
  20686330.280   -15412715.952 9 -11997744.53448  20686330.031    20686336.5604
  20699743.655   -21068443.828 9 -15773253.33748  20699743.686    20699748.9954
  23391643.941    -3689966.163 8  -2868377.39645  23391643.352    23391652.4654
  23943489.778    -4276501.083 7  -3314048.27045  23943489.269    23943499.8934
  23188335.349    -4185115.965 8  -2821991.75246  23188334.990    23188342.8474
  21058602.366   -15262488.550 9 -11877898.73447  21058601.703    21058608.2404
  22308430.447    -7910703.862 8  -6150396.23246  22308430.195    22308437.3364
  20468324.044   -11148847.798 9  -8657954.90848  20468323.624    20468328.9904
 01  7 19  4 27 30.0000000  0  8 27 13 10 02 01 08 31 28
  20683143.176   -15429464.318 9 -12010795.19748  20683142.908    20683149.3644
  20708567.681   -21022073.383 9 -15737120.52248  20708567.777    20708572.8504
  23384080.423    -3729714.160 8  -2899349.84545  23384079.569    23384088.3674
  23926685.881    -4364803.015 8  -3382854.86345  23926685.700    23926696.6924
  23206099.516    -4091763.399 8  -2749249.55145  23206099.152    23206107.2324
  21048528.938   -15315424.910 9 -11919147.84647  21048528.347    21048534.7244
  22300396.783    -7952921.583 8  -6183293.11746  22300396.537    22300403.5974
  20463780.356   -11172725.582 9  -8676560.95148  20463779.920    20463785.1534
 01  7 19  4 28  0.0000000  0  8 27 13 10 02 01 08 31 28
  20679999.426   -15445985.356 9 -12023668.72948  20679999.144    20680005.4884
  20717477.681   -20975250.888 9 -15700635.46948  20717477.839    20717482.9034
  23376620.215    -3768916.093 8  -2929896.83245  23376619.753    23376628.3444
  23909916.971    -4452925.185 8  -3451521.34945  23909916.460    23909927.5614
  23223908.314    -3998176.546 8  -2676324.80645  23223907.804    23223916.3054
  21038500.155   -15368125.837 9 -11960213.49647  21038499.560    21038505.9484
  22292465.673    -7994601.457 8  -6215770.88046  22292465.128    22292472.2654
  20459331.835   -11196103.331 9  -8694777.34348  20459331.290    20459336.5064
 01  7 19  4 28 30.0000000  0  8 27 13 10 02 01 08 31 28
  20676899.135   -15462278.511 9 -12036364.68348  20676898.751    20676904.9984
  20726473.349   -20927978.506 9 -15663799.87048  20726473.511    20726478.6594
  23369264.679    -3807570.525 8  -2960017.16845  23369264.055    23369272.7734
  23893182.292    -4540866.057 8  -3520046.59045  23893181.824    23893192.6994
  23241761.255    -3904356.533 8  -2603218.36245  23241760.973    23241769.6744
  21028516.304   -15420590.498 9 -12001095.03647  21028515.772    21028522.2034
  22284636.943    -8035741.018 8  -6247827.68546  22284636.318    22284643.5114
  20454978.188   -11218980.944 9  -8712604.03248  20454977.734    20454983.0444
 01  7 19  4 29  0.0000000  0  8 27 13 10 02 01 08 31 28
  20673841.897   -15478343.776 9 -12048883.06448  20673841.577    20673847.8594
  20735554.873   -20880255.061 9 -15626612.78248  20735554.964    20735560.1144
  23362013.703    -3845676.383 8  -2989710.02445  23362012.746    23362021.6294
  23876482.608    -4628624.739 8  -3588429.86245  23876482.045    23876492.7424
  23259658.696    -3810305.075 8  -2529931.53345  23259658.573    23259667.0804
  21018577.549   -15472818.822 9 -12041792.41847  21018577.042    21018583.4834
  22276911.353    -8076338.534 8  -6279462.07846  22276910.776    22276918.1534
  20450719.933   -11241358.399 9  -8730040.98048  20450719.432    20450724.7624
 01  7 19  4 29 30.0000000  0  8 27 13 10 02 01 08 31 28
  20670828.368   -15494180.459 9 -12061223.31948  20670828.013    20670834.2134
  20744722.101   -20832081.183 9 -15589074.71148  20744722.207    20744727.2544
  23354867.083    -3883232.034 8  -3018974.13845  23354866.083    23354874.8894
  23859817.755    -4716199.739 8  -3656670.02745  23859817.172    23859827.8794
  23277600.368    -3716022.892 8  -2456464.96145  23277600.003    23277608.5924
  21008684.081   -15524809.872 9 -12082304.91447  21008683.541    21008689.8094
  22269289.118    -8116391.485 8  -6310672.07646  22269288.702    22269296.3694
  20446556.794   -11263235.486 9  -8747088.03448  20446556.314    20446561.6164
 01  7 19  4 30  0.0000000  0  8 27 13 10 02 01 08 31 28
  20667858.209   -15509788.840 9 -12073385.69448  20667857.850    20667863.8854
  20753974.456   -20783459.512 9 -15551187.71447  20753974.592    20753979.6584
  23347825.288    -3920236.922 8  -3047809.11345  23347824.148    23347832.9814
  23843188.122    -4803590.314 8  -3724766.46545  23843187.424    23843198.1734
  23295585.548    -3621511.989 7  -2382820.13345  23295584.682    23295593.8434
  20998835.461   -15576563.872 9 -12122632.70247  20998834.999    20998841.4394
  22261771.440    -8155898.055 8  -6341456.39346  22261770.996    22261778.3074
  20442488.862   -11284612.761 9  -8763745.62648  20442488.420    20442493.5944
 01  7 19  4 30 30.0000000  0  8 27 13 10 02 01 08 31 28
  20664931.718   -15525167.917 9 -12085369.36848  20664931.286    20664937.2494
  20763312.575   -20734387.807 9 -15512950.03348  20763312.708    20763317.7744
  23340888.143    -3956689.550 8  -3076213.75745  23340887.360    23340896.1604
  23826594.048    -4890794.735 8  -3792717.84545  23826593.063    23826603.9414
  23313613.550    -3526773.129 7  -2308997.70545  23313612.790    23313622.1074
  20989032.343   -15628079.603 9 -12162774.81847  20989031.896    20989038.4814
  22254358.294    -8194855.577 8  -6371812.87146  22254357.818    22254364.7944
  20438516.198   -11305490.003 9  -8780013.59148  20438515.640    20438520.7324
 01  7 19  4 31  0.0000000  0  8 27 13 10 02 01 08 31 28
  20662048.566   -15540318.286 9 -12097174.84948  20662048.242    20662054.2654
  20772735.746   -20684868.228 9 -15474363.37048  20772735.904    20772741.1344
  23334057.012    -3992589.641 8  -3104187.82245  23334056.088    23334064.5684
  23810034.894    -4977812.711 7  -3860523.95045  23810033.748    23810044.7834
  23331685.190    -3431808.527 7  -2234999.36445  23331684.290    23331693.6844
  20979274.448   -15679357.652 9 -12202731.71147  20979273.951    20979280.6694
  22247049.859    -8233263.023 8  -6401740.71746  22247049.208    22247056.1884
  20434638.224   -11325867.973 9  -8795892.48747  20434637.745    20434642.8744
 01  7 19  4 31 30.0000000  0  8 27 13 10 02 01 08 31 28
  20659209.220   -15555238.870 9 -12108801.25248  20659208.848    20659214.9494
  20782244.301   -20634900.209 9 -15435427.25648  20782244.472    20782249.8014
  23327331.278    -4027935.185 8  -3131729.80245  23327330.195    23327338.7334
  23793511.294    -5064642.337 8  -3928183.28045  23793510.485    23793521.2724
  23349799.031    -3336618.985 7  -2160825.70545  23349798.411    23349808.2304
  20969562.052   -15730396.783 9 -12242502.45147  20969561.514    20969568.1324
  22239846.108    -8271117.601 8  -6431237.75546  22239845.486    22239852.5944
  20430855.416   -11345746.141 9  -8811381.94248  20430854.964    20430860.2824
 01  7 19  4 32  0.0000000  0  8 27 13 10 02 01 08 31 28
  20656413.646   -15569928.280 9 -12120247.52848  20656413.303    20656419.6534
  20791838.135   -20584483.970 9 -15396141.89747  20791838.290    20791843.5564
  23320711.119    -4062724.100 8  -3158838.03545  23320710.168    23320718.4534
  23777024.862    -5151281.362 8  -3995694.04745  23777023.829    23777034.1704
  23367955.519    -3241204.558 7  -2086476.91044  23367954.982    23367964.5344
  20959895.610   -15781195.605 9 -12282085.92347  20959894.907    20959901.5584
  22232748.337    -8308416.094 8  -6460301.45046  22232747.859    22232754.9844
  20427168.069   -11365123.451 9  -8826481.12448  20427167.656    20427172.9784
 01  7 19  4 32 30.0000000  0  8 27 13 10 02 01 08 31 28
  20653662.006   -15584387.218 9 -12131514.23948  20653661.757    20653668.2814
  20801517.131   -20533620.661 9 -15356508.18247  20801517.299    20801522.5304
  23314196.884    -4096956.703 8  -3185512.75445  23314196.097    23314203.9554
  23760574.305    -5237729.712 8  -4063056.27145  23760573.178    23760583.3904
  23386154.275    -3145567.751 6                  23386153.924    23386163.1684
  20950274.526   -15831754.524 9 -12321482.46647  20950273.877    20950280.5694
  22225756.838    -8345157.653 8  -6488931.19146  22225756.249    22225763.3584
  20423575.702   -11384001.330 9  -8841191.13448  20423575.283    20423580.5404
 01  7 19  4 33  0.0000000  0  8 27 13 10 02 01 08 31 28
  20650954.709   -15598614.257 9 -12142600.22648  20650954.372    20650961.1034
  20811281.115   -20482310.657 9 -15316526.37047  20811281.200    20811286.5814
  23307788.764    -4130630.525 8  -3211752.08245  23307788.085    23307796.0924
  23744159.944    -5323985.238 8  -4130268.24845  23744159.100    23744169.3854
  23404394.268    -3049708.907 7  -1937259.67454  23404394.844    23404404.4754
  20940699.327   -15882072.404 9 -12360691.17347  20940698.706    20940705.2974
  22218871.798    -8381338.990 8  -6517124.37146  22218871.166    22218877.9854
  20420078.538   -11402378.875 9  -8855511.26248  20420078.104    20420083.3214
 01  7 19  4 33 30.0000000  0  8 27 13 10 02 01 08 31 28
  20648291.465   -15612609.388 9 -12153505.52348  20648291.185    20648297.9794
  20821130.093   -20430553.420 9 -15276196.07247  20821130.271    20821135.6744
  23301487.104    -4163744.904 8  -3237555.49345  23301486.527    23301494.9754
  23727782.800    -5410047.166 8  -4197329.33645  23727781.969    23727792.2684
  23422678.499    -2953629.710 7  -1862392.86044  23422678.706    23422689.0254
  20931170.089   -15932148.466 9 -12399711.45447  20931169.513    20931176.0864
  22212093.230    -8416958.721 8  -6544879.94046  22212092.828    22212099.5294
  20416676.487   -11420256.576 9  -8869441.91348  20416676.039    20416681.3054
 01  7 19  4 34  0.0000000  0  8 27 13 10 02 01 08 31 28
  20645672.063   -15626374.827 9 -12164231.82748  20645671.729    20645678.5564
  20831063.706   -20378352.492 9 -15235520.05647  20831063.924    20831069.2094
  23295292.392    -4196301.477 8  -3262924.21945  23295291.495    23295299.8794
  23711442.040    -5495916.694 8  -4264240.48245  23711441.311    23711451.7184
  23441003.714    -2857334.249 7  -1787357.47144  23441004.029    23441013.7824
  20921686.485   -15981985.512 9 -12438545.47347  20921685.828    20921692.4524
  22205421.845    -8452017.348 8  -6572198.31246  22205421.407    22205427.9964
  20413369.039   -11437637.136 9  -8882985.18548  20413368.609    20413373.7954
 01  7 19  4 34 30.0000000  0  8 27 13 10 02 01 08 31 28
  20643096.351   -15639909.390 9 -12174778.23348  20643096.142    20643103.0134
  20841081.788   -20325708.389 9 -15194498.70148  20841081.879    20841087.1654
  23289203.795    -4228298.208 7  -3287856.72345  23289202.571    23289211.0734
  23695138.470    -5581591.742 8  -4331000.11345  23695137.918    23695148.2934
  23459369.225    -2760823.112 7  -1712153.99844  23459369.167    23459378.8054
  20912248.646   -16031581.745 9 -12477191.87047  20912248.022    20912254.6774
  22198857.628    -8486512.135 8  -6599077.35246  22198857.241    22198863.8484
  20410156.456   -11454519.887 9  -8896140.55348  20410155.993    20410161.0464
 01  7 19  4 35  0.0000000  0  8 27 13 10 02 01 08 31 28
  20640565.358   -15653210.331 9 -12185142.60948  20640565.154    20640571.9384
  20851184.431   -20272618.533 9 -15153130.00047  20851184.525    20851189.8234
  23283221.592    -4259731.965 7  -3312350.60145  23283220.821    23283229.1544
  23678872.811    -5667069.096 8  -4397605.71146  23678872.038    23678882.4044
  23477777.012    -2664095.157 7  -1636781.64744  23477776.460    23477785.5564
  20902857.027   -16080934.669 9 -12515648.69147  20902856.444    20902863.1854
  22192401.395    -8520438.874 8  -6625513.72646  22192401.050    22192407.9074
  20407039.054   -11470902.846 9  -8908906.46348  20407038.521    20407043.6024
 01  7 19  4 35 30.0000000  0  8 27 13 10 02 01 08 31 28
  20638078.400   -15666280.456 9 -12195327.10948  20638078.126    20638084.8074
  20861371.146   -20219086.959 9 -15111417.11447  20861371.293    20861376.5574
  23277346.938    -4290605.354 7  -3336407.76045  23277345.969    23277353.7174
  23662644.355    -5752350.643 8  -4464058.72846  23662643.463    23662653.6604
  23496225.691    -2567154.931 7  -1561244.00044  23496224.125    23496232.5494
  20893511.457   -16130046.725 9 -12553917.78247  20893510.783    20893517.4294
  22186053.217    -8553798.838 8  -6651508.41946  22186052.865    22186060.0014
  20404015.936   -11486789.302 9  -8921285.49848  20404015.414    20404020.5974
 01  7 19  4 36  0.0000000  0  8 27 13 10 02 01 08 31 28
  20635635.612   -15679116.990 9 -12205329.59648  20635635.407    20635642.0604
  20871642.309   -20165111.701 9 -15069358.49847  20871642.423    20871647.6014
  23271578.497    -4320914.633 7  -3360025.41645  23271577.584    23271586.3064
  23646453.533    -5837432.827 8  -4530356.39545  23646452.623    23646462.7644
  23514711.351    -2470001.628 6  -1485540.19144  23514710.066    23514719.6624
  20884212.198   -16178915.059 9 -12591996.96747  20884211.471    20884218.0634
  22179813.898    -8586587.532 8  -6677057.98046  22179813.335    22179820.5364
  20401087.683   -11502177.163 9  -8933276.02248  20401087.191    20401092.2874
 01  7 19  4 36 30.0000000  0  8 27 13 10 02 01 08 31 28
  20633238.147   -15691716.334 9 -12215147.26048  20633237.926    20633244.4794
  20881998.130   -20110690.703 9 -15026952.56047  20881998.234    20882003.6944
  23265917.878    -4350655.748 7  -3383200.30945  23265917.501    23265927.8034
  23630300.795    -5922311.229 7  -4596495.29345  23630300.434    23630310.6164
  23533239.555    -2372633.058 7  -1409668.60644  23533239.038    23533248.1234
  20874959.943   -16227535.940 9 -12629883.33947  20874959.236    20874965.7524
  22173683.911    -8618799.859 8  -6702158.46346  22173683.438    22173690.6284
  20398255.009   -11517063.447 9  -8944875.70548  20398254.452    20398259.4824
 01  7 19  4 37  0.0000000  0  8 27 13 10 02 01 08 31 28
  20630884.857   -15704083.933 9 -12224784.33948  20630884.606    20630890.9774
  20892437.717   -20055830.166 9 -14984204.10047  20892437.876    20892443.4214
  23260366.167    -4379833.921 8  -3405936.54345  23260365.452    23260375.0174
  23614186.703    -6006990.929 7  -4662479.30945  23614186.339    23614196.5304
  23551808.509    -2275056.852 7  -1333635.29044  23551807.035    23551816.3684
  20865753.721   -16275914.856 9 -12667581.17147  20865752.970    20865759.5294
  22167662.984    -8650440.196 8  -6726813.22746  22167662.556    22167669.5084
  20395516.309   -11531454.365 9  -8956089.40848  20395515.828    20395520.9754
 01  7 19  4 37 30.0000000  0  8 27 13 10 02 01 08 31 28
  20628575.324   -15716219.957 9 -12234240.97548  20628575.055    20628581.4834
  20902960.677   -20000531.452 9 -14941114.21347  20902960.842    20902966.3504
  23254922.001    -4408448.666 8  -3428233.74045  23254920.763    23254929.2424
  23598109.946    -6091470.947 7  -4728307.81045  23598109.930    23598120.5384
  23570416.002    -2177274.939 7                  23570414.421    23570422.6824
  20856593.370   -16324051.684 9 -12705090.36147  20856592.682    20856599.3014
  22161751.231    -8681507.175 8  -6751021.18846  22161750.740    22161757.4974
  20392871.847   -11545350.864 9  -8966917.83348  20392871.349    20392876.4494
 01  7 19  4 38  0.0000000  0  8 27 13 10 02 01 08 31 28
  20626310.377   -15728122.375 9 -12243515.58248  20626310.073    20626316.3884
  20913567.093   -19944794.025 9 -14897682.48947  20913567.308    20913572.8814
  23249584.341    -4436497.482 8  -3450089.96845  23249583.298    23249590.7864
  23582072.189    -6175748.797 7  -4793978.74945  23582072.021    23582082.6874
  23589063.356    -2079287.248 7  -1181087.67054  23589061.283    23589069.2314
  20847479.557   -16371944.814 9 -12742409.66047  20847478.861    20847485.4384
  22155949.060    -8711997.524 8  -6774779.84646  22155948.557    22155955.3654
  20390321.813   -11558751.536 9  -8977359.89748  20390321.284    20390326.3654
 01  7 19  4 38 30.0000000  0  8 27 13 10 02 01 08 31 28
  20624090.122   -15739789.997 9 -12252607.23048  20624089.820    20624096.0614
  20924257.398   -19888616.794 9 -14853908.04847  20924257.538    20924263.1334
  23244355.131    -4463978.871 8  -3471504.02745  23244353.918    23244361.5444
  23566073.703    -6259822.427 7  -4859490.52645  23566073.168    23566083.6964
  23607749.250    -1981094.410 7  -1104573.86444  23607746.527    23607756.0684
  20838412.391   -16419592.659 9 -12779537.80447  20838411.658    20838418.3614
  22150257.019    -8741908.629 8  -6798087.12346  22150256.557    22150263.5614
  20387866.175   -11571656.000 9  -8987415.29948  20387865.654    20387870.8334
 01  7 19  4 39  0.0000000  0  8 27 13 10 02 01 08 31 28
  20621914.493   -15751222.027 9 -12261515.30248  20621914.166    20621920.5014
  20935031.039   -19832000.658 9 -14809791.60347  20935031.229    20935036.9264
  23239234.110    -4490891.827 8  -3492475.18045  23239232.833    23239240.7354
  23550113.931    -6343690.539 7  -4924842.19045  23550113.456    23550123.9434
  23626473.293    -1882697.526 6  -1027901.01944  23626471.035    23626481.4914
  20829392.056   -16466994.362 9 -12816474.14547  20829391.392    20829398.1494
  22144675.394    -8771238.239 8  -6820941.31246  22144675.100    22144682.4134
  20385504.788   -11584064.537 9  -8997084.27548  20385504.319    20385509.6814
 01  7 19  4 39 30.0000000  0  8 27 13 10 02 01 08 31 28
  20619783.985   -15762417.202 9 -12270238.79648  20619783.681    20619790.1964
  20945888.374   -19774945.718 9 -14765333.21747  20945888.543    20945894.0904
  23234221.155    -4517234.861 8  -3513002.16645  23234219.834    23234227.5614
  23534194.106    -6427351.275 8  -4990032.21045  23534193.277    23534203.6494
  23645233.053                                    23645232.182    23645243.7984
  20820418.873   -16514148.493 9 -12853217.58647  20820418.184    20820425.0714
  22139205.293    -8799984.086 8  -6843340.61446  22139204.908    22139212.0254
  20383238.019   -11595976.250 9  -9006366.11847  20383237.509    20383242.7834
 01  7 19  4 40  0.0000000  0  8 27 13 10 02 01 08 31 28
  20617698.892   -15773374.254 9 -12278776.75748  20617698.574    20617705.2874
  20956829.179   -19717451.815 9 -14720532.80847  20956829.369    20956834.7724
  23229316.676    -4543006.065 8  -3533083.56745  23229315.600    23229323.5124
  23518313.868    -6510802.480 8  -5055058.95745  23518312.831    23518323.5334
  23664035.281    -1685293.92717   -874080.09354  23664034.334    23664044.9714
  20811493.067   -16561053.853 9 -12889767.16147  20811492.394    20811499.3514
  22133846.449    -8828143.727 8  -6865283.16346  22133846.297    22133853.3574
  20381065.934   -11607390.538 9  -9015260.36448  20381065.521    20381070.5114
 01  7 19  4 40 30.0000000  0  8 27 13 10 02 01 08 31 28
  20615658.313   -15784097.730 9 -12287132.70848  20615658.047    20615664.5284
  20967852.356   -19659524.080 9 -14675394.32747  20967852.538    20967858.2134
  23224520.243    -4568209.631 8  -3552722.74045  23224519.290    23224527.5824
  23502472.671    -6594048.014 8  -5119925.48145  23502471.717    23502482.3324
  23682876.532    -1586293.842 6   -796937.45644  23682875.253    23682884.1384
  20802613.767   -16607714.522 9 -12926126.09447  20802613.141    20802620.1064
  22128599.194    -8855720.354 8  -6886771.38246  22128598.830    22128605.6324
  20378987.662   -11618312.833 9  -9023771.22448  20378987.111    20378992.0744
 01  7 19  4 41  0.0000000  0  7 27 13 10 02 08 31 28
  20613662.835   -15794584.295 9 -12295304.03648  20613662.538    20613669.0814
  20978958.291   -19601160.739 9 -14629916.41947  20978958.549    20978964.3714
  23219833.295    -4592842.297 8  -3571916.98445  23219832.134    23219840.3384
  23486671.464    -6677084.084 8  -5184628.76246  23486670.607    23486680.8934
  20793781.693   -16654127.478 9 -12962292.01547  20793781.035    20793787.8764
  22123463.356    -8882709.365 8  -6907801.75346  22123462.815    22123469.7904
  20377003.176   -11628740.938 9  -9031897.01348  20377002.685    20377007.6764
 01  7 19  4 41 30.0000000  0  7 27 13 10 02 08 31 28
  20611712.610   -15804832.882 9 -12303289.94348  20611712.318    20611718.8944
  20990147.492   -19542362.179 9 -14584099.37047  20990147.663    20990153.3764
  23215254.856    -4616902.425 7  -3590665.13045  23215253.486    23215261.8504
  23470910.292    -6759908.916 8  -5249167.43646  23470909.577    23470919.7534
  20784996.880   -16700291.270 9 -12998263.75747  20784996.267    20785002.9534
  22118439.904    -8909108.221 8  -6928372.25946  22118439.213    22118445.9904
  20375112.840   -11638674.709 9  -9039637.60048  20375112.363    20375117.3374
 01  7 19  4 42  0.0000000  0  7 27 13 10 02 08 31 28
  20609807.493   -15814844.716 9 -12311091.36848  20609807.187    20609813.6964
  21001418.970   -19483130.472 9 -14537944.81647  21001419.130    21001424.6244
  23210784.546    -4640391.341 8  -3608968.15245  23210783.567    23210792.1204
  23455189.622    -6842523.115 8  -5313541.98146  23455188.820    23455198.6904
  20776259.361   -16746207.344 9 -13034042.49047  20776258.685    20776265.2164
  22113528.604    -8934916.928 8  -6948482.88646  22113527.953    22113534.4394
  20373316.140   -11648116.102 9  -9046994.51948  20373315.707    20373320.6524
 01  7 19  4 42 30.0000000  0  7 27 13 10 02 08 31 28
  20607947.323   -15824619.928 9 -12318708.39848  20607946.995    20607953.5794
  21012772.669   -19423467.244 9 -14491453.99547  21012772.800    21012778.0234
  23206423.872    -4663308.860 8  -3626825.87945  23206422.927    23206431.1624
  23439509.059    -6924926.252 8  -5377752.06946  23439508.156    23439517.6524
  20767568.904   -16791875.631 9 -13069628.14547  20767568.272    20767574.7394
  22108730.023    -8960134.544 8  -6968132.93846  22108729.325    22108735.5894
  20371613.063   -11657065.898 9  -9053968.36948  20371612.586    20371617.5314
 01  7 19  4 43  0.0000000  0  7 27 13 10 02 08 31 28
  20606132.351   -15834157.651 9 -12326140.38048  20606131.992    20606138.7154
  21024208.078   -19363372.878 9 -14444627.22647  21024208.304    21024213.6364
  23202172.175    -4685654.137 7  -3644237.72945  23202170.932    23202178.7824
  23423868.549    -7007116.845 8  -5441796.54946  23423867.595    23423877.0934
  20758925.782   -16837295.058 9 -13105019.87747  20758925.215    20758931.6824
  22104043.901    -8984759.573 8  -6987321.21846  22104043.290    22104049.7164
  20370003.477   -11665524.455 9  -9060559.44348  20370002.990    20370008.0114
 01  7 19  4 43 30.0000000  0  7 27 13 10 02 08 31 28
  20604363.152   -15843454.748 9 -12333384.86648  20604362.816    20604369.5534
  21035726.101   -19302845.308 9 -14397462.88547  21035726.290    21035731.7504
  23198027.796    -4707423.626 7  -3661200.99945  23198027.121    23198035.6134
  23408268.530    -7089091.157 8  -5505672.52746  23408268.044    23408277.7604
  20750330.733   -16882462.507 9 -13140215.26847  20750330.135    20750336.6374
  22099471.414    -9008787.508 8  -7006044.26546  22099470.815    22099477.4814
  20368487.718   -11673489.551 9  -9066765.99648  20368487.260    20368492.3494
 01  7 19  4 44  0.0000000  0  7 27 13 10 02 08 31 28
  20602639.868   -15852510.991 9 -12340441.66948  20602639.509    20602646.1904
  21047326.200   -19241885.716 9 -14349961.92347  21047326.529    21047331.9874
  23193995.035    -4728617.014 7  -3677715.28745  23193994.223    23194002.2954
  23392710.149    -7170848.188 8  -5569379.17346  23392709.974    23392719.8114
  20741783.595   -16927377.797 9 -13175214.19847  20741783.032    20741789.4954
  22095012.684    -9032217.283 8  -7024301.20846  22095012.122    22095018.9244
  20367065.789   -11680961.712 9  -9072588.44948  20367065.384    20367070.4404
 01  7 19  4 44 30.0000000  0  7 27 13 10 02 08 31 28
  20600961.813   -15861329.369 9 -12347313.12348  20600961.481    20600968.0594
  21059008.046   -19180498.565 9 -14302127.79547  21059008.242    21059013.6934
  23190071.398    -4749237.270 7  -3693783.00745  23190070.278    23190078.3344
  23377193.078    -7252390.503 8  -5632918.51546  23377192.856    23377202.7284
  20733284.022   -16972043.847 9 -13210018.88647  20733283.317    20733289.8434
  22090667.452    -9055050.684 8  -7042093.45446  22090667.019    22090673.9034
  20365736.946   -11687945.084 9  -9078030.03448  20365736.524    20365741.5524
